<?xml version="1.0" encoding="UTF-8" standalone="no" ?>
<gpx xmlns="http://www.topografix.com/GPX/1/1" xmlns:xsi="http://www.w3.org/2001/XMLSchema-instance" xsi:schemaLocation="http://www.topografix.com/GPX/1/1 http://www.topografix.com/GPX/1/1/gpx.xsd" version="1.1" creator="VisuGPX - https://www.visugpx.com">
  <metadata>
    <name>65 - PEDESTRE - Cauteret tour des lacs</name>
    <desc><![CDATA[Avec Yves et Nathalie]]></desc>
  </metadata>
  <wpt lat="42.84236" lon="-0.17282">
    <ele>1802.34375</ele>
    <name><![CDATA[001]]></name>
    <desc><![CDATA[25-SEP-14 10:54:03]]></desc>
    <cmt><![CDATA[25-SEP-14 10:54:03]]></cmt>
  </wpt>
  <trk>
    <name><![CDATA[ACTIVE LOG 002]]></name>
    <trkseg>
      <trkpt lat="42.8516" lon="-0.13504">
        <ele>1439.2309570312</ele>
        <time>2015-07-26T07:47:22Z</time>
      </trkpt>
      <trkpt lat="42.85158" lon="-0.13502">
        <ele>1439.2309570312</ele>
        <time>2015-07-26T07:47:23Z</time>
      </trkpt>
      <trkpt lat="42.85153" lon="-0.13501">
        <ele>1441.6342773438</ele>
        <time>2015-07-26T07:47:28Z</time>
      </trkpt>
      <trkpt lat="42.85153" lon="-0.13497">
        <ele>1444.9987792969</ele>
        <time>2015-07-26T07:47:35Z</time>
      </trkpt>
      <trkpt lat="42.85151" lon="-0.13499">
        <ele>1448.36328125</ele>
        <time>2015-07-26T07:47:51Z</time>
      </trkpt>
      <trkpt lat="42.85158" lon="-0.13514">
        <ele>1451.2473144531</ele>
        <time>2015-07-26T07:48:02Z</time>
      </trkpt>
      <trkpt lat="42.85161" lon="-0.13523">
        <ele>1453.6508789062</ele>
        <time>2015-07-26T07:48:09Z</time>
      </trkpt>
      <trkpt lat="42.85156" lon="-0.13531">
        <ele>1455.0927734375</ele>
        <time>2015-07-26T07:48:20Z</time>
      </trkpt>
      <trkpt lat="42.85145" lon="-0.13539">
        <ele>1457.0153808594</ele>
        <time>2015-07-26T07:48:31Z</time>
      </trkpt>
      <trkpt lat="42.85143" lon="-0.13551">
        <ele>1458.4572753906</ele>
        <time>2015-07-26T07:48:43Z</time>
      </trkpt>
      <trkpt lat="42.85145" lon="-0.13573">
        <ele>1458.9379882812</ele>
        <time>2015-07-26T07:48:58Z</time>
      </trkpt>
      <trkpt lat="42.85142" lon="-0.13593">
        <ele>1459.4187011719</ele>
        <time>2015-07-26T07:49:12Z</time>
      </trkpt>
      <trkpt lat="42.85146" lon="-0.13618">
        <ele>1459.8991699219</ele>
        <time>2015-07-26T07:49:25Z</time>
      </trkpt>
      <trkpt lat="42.85148" lon="-0.1363">
        <ele>1459.8991699219</ele>
        <time>2015-07-26T07:49:31Z</time>
      </trkpt>
      <trkpt lat="42.85138" lon="-0.1365">
        <ele>1461.8220214844</ele>
        <time>2015-07-26T07:49:46Z</time>
      </trkpt>
      <trkpt lat="42.85139" lon="-0.1367">
        <ele>1462.3024902344</ele>
        <time>2015-07-26T07:49:58Z</time>
      </trkpt>
      <trkpt lat="42.85145" lon="-0.13687">
        <ele>1462.783203125</ele>
        <time>2015-07-26T07:50:09Z</time>
      </trkpt>
      <trkpt lat="42.8514" lon="-0.13685">
        <ele>1463.7443847656</ele>
        <time>2015-07-26T07:50:23Z</time>
      </trkpt>
      <trkpt lat="42.85131" lon="-0.13679">
        <ele>1464.2250976562</ele>
        <time>2015-07-26T07:50:36Z</time>
      </trkpt>
      <trkpt lat="42.85136" lon="-0.13694">
        <ele>1464.2250976562</ele>
        <time>2015-07-26T07:50:50Z</time>
      </trkpt>
      <trkpt lat="42.85143" lon="-0.13712">
        <ele>1465.1865234375</ele>
        <time>2015-07-26T07:51:06Z</time>
      </trkpt>
      <trkpt lat="42.85163" lon="-0.13728">
        <ele>1465.1865234375</ele>
        <time>2015-07-26T07:51:21Z</time>
      </trkpt>
      <trkpt lat="42.85163" lon="-0.13733">
        <ele>1466.6284179688</ele>
        <time>2015-07-26T07:51:54Z</time>
      </trkpt>
      <trkpt lat="42.85155" lon="-0.13728">
        <ele>1468.0705566406</ele>
        <time>2015-07-26T07:55:46Z</time>
      </trkpt>
      <trkpt lat="42.85151" lon="-0.13741">
        <ele>1469.0319824219</ele>
        <time>2015-07-26T07:55:56Z</time>
      </trkpt>
      <trkpt lat="42.8515" lon="-0.13745">
        <ele>1469.0319824219</ele>
        <time>2015-07-26T07:55:59Z</time>
      </trkpt>
      <trkpt lat="42.85142" lon="-0.13765">
        <ele>1470.9545898438</ele>
        <time>2015-07-26T07:56:15Z</time>
      </trkpt>
      <trkpt lat="42.85126" lon="-0.1378">
        <ele>1471.4350585938</ele>
        <time>2015-07-26T07:56:28Z</time>
      </trkpt>
      <trkpt lat="42.85117" lon="-0.13785">
        <ele>1471.9157714844</ele>
        <time>2015-07-26T07:56:33Z</time>
      </trkpt>
      <trkpt lat="42.85111" lon="-0.13795">
        <ele>1472.396484375</ele>
        <time>2015-07-26T07:56:39Z</time>
      </trkpt>
      <trkpt lat="42.85107" lon="-0.13797">
        <ele>1472.396484375</ele>
        <time>2015-07-26T07:56:41Z</time>
      </trkpt>
      <trkpt lat="42.85102" lon="-0.13808">
        <ele>1473.8383789062</ele>
        <time>2015-07-26T07:56:48Z</time>
      </trkpt>
      <trkpt lat="42.85128" lon="-0.13837">
        <ele>1474.7998046875</ele>
        <time>2015-07-26T07:56:59Z</time>
      </trkpt>
      <trkpt lat="42.85122" lon="-0.13848">
        <ele>1476.7224121094</ele>
        <time>2015-07-26T07:57:13Z</time>
      </trkpt>
      <trkpt lat="42.85111" lon="-0.13851">
        <ele>1477.203125</ele>
        <time>2015-07-26T07:57:19Z</time>
      </trkpt>
      <trkpt lat="42.85099" lon="-0.13863">
        <ele>1479.6062011719</ele>
        <time>2015-07-26T07:57:35Z</time>
      </trkpt>
      <trkpt lat="42.85097" lon="-0.13893">
        <ele>1482.0095214844</ele>
        <time>2015-07-26T07:57:56Z</time>
      </trkpt>
      <trkpt lat="42.851" lon="-0.13914">
        <ele>1482.970703125</ele>
        <time>2015-07-26T07:58:07Z</time>
      </trkpt>
      <trkpt lat="42.85105" lon="-0.1393">
        <ele>1483.4514160156</ele>
        <time>2015-07-26T07:58:20Z</time>
      </trkpt>
      <trkpt lat="42.85113" lon="-0.13935">
        <ele>1484.8937988281</ele>
        <time>2015-07-26T07:58:43Z</time>
      </trkpt>
      <trkpt lat="42.8512" lon="-0.13936">
        <ele>1484.8937988281</ele>
        <time>2015-07-26T07:58:47Z</time>
      </trkpt>
      <trkpt lat="42.85134" lon="-0.13935">
        <ele>1487.296875</ele>
        <time>2015-07-26T07:59:02Z</time>
      </trkpt>
      <trkpt lat="42.85124" lon="-0.13939">
        <ele>1488.7390136719</ele>
        <time>2015-07-26T07:59:13Z</time>
      </trkpt>
      <trkpt lat="42.85115" lon="-0.13944">
        <ele>1490.1809082031</ele>
        <time>2015-07-26T07:59:23Z</time>
      </trkpt>
      <trkpt lat="42.85087" lon="-0.13946">
        <ele>1493.0646972656</ele>
        <time>2015-07-26T07:59:42Z</time>
      </trkpt>
      <trkpt lat="42.85082" lon="-0.13961">
        <ele>1494.5065917969</ele>
        <time>2015-07-26T07:59:52Z</time>
      </trkpt>
      <trkpt lat="42.851" lon="-0.13977">
        <ele>1496.4294433594</ele>
        <time>2015-07-26T08:00:02Z</time>
      </trkpt>
      <trkpt lat="42.85102" lon="-0.13977">
        <ele>1496.4294433594</ele>
        <time>2015-07-26T08:00:03Z</time>
      </trkpt>
      <trkpt lat="42.85116" lon="-0.13978">
        <ele>1496.9099121094</ele>
        <time>2015-07-26T08:00:15Z</time>
      </trkpt>
      <trkpt lat="42.85133" lon="-0.13983">
        <ele>1496.9099121094</ele>
        <time>2015-07-26T08:00:28Z</time>
      </trkpt>
      <trkpt lat="42.85136" lon="-0.13993">
        <ele>1498.8325195312</ele>
        <time>2015-07-26T08:00:35Z</time>
      </trkpt>
      <trkpt lat="42.85125" lon="-0.1402">
        <ele>1500.7553710938</ele>
        <time>2015-07-26T08:00:53Z</time>
      </trkpt>
      <trkpt lat="42.85117" lon="-0.14024">
        <ele>1501.2360839844</ele>
        <time>2015-07-26T08:00:57Z</time>
      </trkpt>
      <trkpt lat="42.85122" lon="-0.14057">
        <ele>1503.6394042969</ele>
        <time>2015-07-26T08:01:15Z</time>
      </trkpt>
      <trkpt lat="42.85124" lon="-0.14079">
        <ele>1505.5620117188</ele>
        <time>2015-07-26T08:01:35Z</time>
      </trkpt>
      <trkpt lat="42.85127" lon="-0.14098">
        <ele>1507.00390625</ele>
        <time>2015-07-26T08:01:43Z</time>
      </trkpt>
      <trkpt lat="42.8513" lon="-0.14115">
        <ele>1508.9265136719</ele>
        <time>2015-07-26T08:01:58Z</time>
      </trkpt>
      <trkpt lat="42.85136" lon="-0.14137">
        <ele>1511.3298339844</ele>
        <time>2015-07-26T08:02:12Z</time>
      </trkpt>
      <trkpt lat="42.85143" lon="-0.14157">
        <ele>1513.2524414062</ele>
        <time>2015-07-26T08:02:29Z</time>
      </trkpt>
      <trkpt lat="42.85151" lon="-0.1417">
        <ele>1514.6943359375</ele>
        <time>2015-07-26T08:02:38Z</time>
      </trkpt>
      <trkpt lat="42.85162" lon="-0.14171">
        <ele>1517.0979003906</ele>
        <time>2015-07-26T08:02:48Z</time>
      </trkpt>
      <trkpt lat="42.8517" lon="-0.14178">
        <ele>1518.5397949219</ele>
        <time>2015-07-26T08:02:58Z</time>
      </trkpt>
      <trkpt lat="42.85179" lon="-0.14187">
        <ele>1520.9431152344</ele>
        <time>2015-07-26T08:03:10Z</time>
      </trkpt>
      <trkpt lat="42.85184" lon="-0.14195">
        <ele>1520.9431152344</ele>
        <time>2015-07-26T08:03:20Z</time>
      </trkpt>
      <trkpt lat="42.85192" lon="-0.14206">
        <ele>1520.9431152344</ele>
        <time>2015-07-26T08:03:32Z</time>
      </trkpt>
      <trkpt lat="42.85205" lon="-0.14225">
        <ele>1521.904296875</ele>
        <time>2015-07-26T08:03:48Z</time>
      </trkpt>
      <trkpt lat="42.85221" lon="-0.14248">
        <ele>1522.8657226562</ele>
        <time>2015-07-26T08:04:08Z</time>
      </trkpt>
      <trkpt lat="42.85232" lon="-0.14258">
        <ele>1523.3464355469</ele>
        <time>2015-07-26T08:04:21Z</time>
      </trkpt>
      <trkpt lat="42.85237" lon="-0.14263">
        <ele>1522.8657226562</ele>
        <time>2015-07-26T08:04:30Z</time>
      </trkpt>
      <trkpt lat="42.85247" lon="-0.1427">
        <ele>1522.8657226562</ele>
        <time>2015-07-26T08:04:40Z</time>
      </trkpt>
      <trkpt lat="42.85248" lon="-0.14271">
        <ele>1522.8657226562</ele>
        <time>2015-07-26T08:04:41Z</time>
      </trkpt>
      <trkpt lat="42.8526" lon="-0.14306">
        <ele>1523.3464355469</ele>
        <time>2015-07-26T08:05:01Z</time>
      </trkpt>
      <trkpt lat="42.8526" lon="-0.14337">
        <ele>1524.7883300781</ele>
        <time>2015-07-26T08:05:20Z</time>
      </trkpt>
      <trkpt lat="42.85261" lon="-0.14377">
        <ele>1526.2302246094</ele>
        <time>2015-07-26T08:05:44Z</time>
      </trkpt>
      <trkpt lat="42.85252" lon="-0.1441">
        <ele>1526.7109375</ele>
        <time>2015-07-26T08:06:06Z</time>
      </trkpt>
      <trkpt lat="42.85241" lon="-0.1444">
        <ele>1525.2687988281</ele>
        <time>2015-07-26T08:06:27Z</time>
      </trkpt>
      <trkpt lat="42.8523" lon="-0.14469">
        <ele>1525.7495117188</ele>
        <time>2015-07-26T08:06:48Z</time>
      </trkpt>
      <trkpt lat="42.85221" lon="-0.14498">
        <ele>1523.8269042969</ele>
        <time>2015-07-26T08:07:07Z</time>
      </trkpt>
      <trkpt lat="42.8521" lon="-0.14533">
        <ele>1523.3464355469</ele>
        <time>2015-07-26T08:07:29Z</time>
      </trkpt>
      <trkpt lat="42.85198" lon="-0.14563">
        <ele>1523.8269042969</ele>
        <time>2015-07-26T08:07:49Z</time>
      </trkpt>
      <trkpt lat="42.85184" lon="-0.14591">
        <ele>1524.3076171875</ele>
        <time>2015-07-26T08:08:08Z</time>
      </trkpt>
      <trkpt lat="42.85169" lon="-0.14617">
        <ele>1524.7883300781</ele>
        <time>2015-07-26T08:08:26Z</time>
      </trkpt>
      <trkpt lat="42.85162" lon="-0.14641">
        <ele>1524.7883300781</ele>
        <time>2015-07-26T08:08:43Z</time>
      </trkpt>
      <trkpt lat="42.85158" lon="-0.14656">
        <ele>1526.2302246094</ele>
        <time>2015-07-26T08:08:53Z</time>
      </trkpt>
      <trkpt lat="42.85157" lon="-0.14662">
        <ele>1526.2302246094</ele>
        <time>2015-07-26T08:08:57Z</time>
      </trkpt>
      <trkpt lat="42.85157" lon="-0.14703">
        <ele>1527.1916503906</ele>
        <time>2015-07-26T08:09:21Z</time>
      </trkpt>
      <trkpt lat="42.85159" lon="-0.14739">
        <ele>1527.1916503906</ele>
        <time>2015-07-26T08:09:43Z</time>
      </trkpt>
      <trkpt lat="42.85157" lon="-0.14746">
        <ele>1527.6721191406</ele>
        <time>2015-07-26T08:10:06Z</time>
      </trkpt>
      <trkpt lat="42.85161" lon="-0.14767">
        <ele>1527.6721191406</ele>
        <time>2015-07-26T08:11:19Z</time>
      </trkpt>
      <trkpt lat="42.85163" lon="-0.14799">
        <ele>1528.1528320312</ele>
        <time>2015-07-26T08:11:39Z</time>
      </trkpt>
      <trkpt lat="42.85166" lon="-0.14829">
        <ele>1529.1140136719</ele>
        <time>2015-07-26T08:11:59Z</time>
      </trkpt>
      <trkpt lat="42.85167" lon="-0.14836">
        <ele>1531.998046875</ele>
        <time>2015-07-26T08:12:05Z</time>
      </trkpt>
      <trkpt lat="42.85168" lon="-0.14851">
        <ele>1532.9594726562</ele>
        <time>2015-07-26T08:12:18Z</time>
      </trkpt>
      <trkpt lat="42.85168" lon="-0.14866">
        <ele>1535.3627929688</ele>
        <time>2015-07-26T08:12:31Z</time>
      </trkpt>
      <trkpt lat="42.85168" lon="-0.14895">
        <ele>1538.2468261719</ele>
        <time>2015-07-26T08:12:53Z</time>
      </trkpt>
      <trkpt lat="42.8517" lon="-0.14918">
        <ele>1540.1694335938</ele>
        <time>2015-07-26T08:13:11Z</time>
      </trkpt>
      <trkpt lat="42.8517" lon="-0.14946">
        <ele>1541.1306152344</ele>
        <time>2015-07-26T08:13:31Z</time>
      </trkpt>
      <trkpt lat="42.85182" lon="-0.1496">
        <ele>1544.4951171875</ele>
        <time>2015-07-26T08:13:46Z</time>
      </trkpt>
      <trkpt lat="42.85187" lon="-0.14967">
        <ele>1545.9372558594</ele>
        <time>2015-07-26T08:13:52Z</time>
      </trkpt>
      <trkpt lat="42.85196" lon="-0.14988">
        <ele>1548.3405761719</ele>
        <time>2015-07-26T08:14:11Z</time>
      </trkpt>
      <trkpt lat="42.85199" lon="-0.14995">
        <ele>1549.3020019531</ele>
        <time>2015-07-26T08:14:17Z</time>
      </trkpt>
      <trkpt lat="42.85203" lon="-0.15011">
        <ele>1549.7827148438</ele>
        <time>2015-07-26T08:14:34Z</time>
      </trkpt>
      <trkpt lat="42.85207" lon="-0.15023">
        <ele>1550.2634277344</ele>
        <time>2015-07-26T08:14:44Z</time>
      </trkpt>
      <trkpt lat="42.85214" lon="-0.15047">
        <ele>1553.6279296875</ele>
        <time>2015-07-26T08:15:02Z</time>
      </trkpt>
      <trkpt lat="42.85218" lon="-0.15057">
        <ele>1555.5505371094</ele>
        <time>2015-07-26T08:15:12Z</time>
      </trkpt>
      <trkpt lat="42.85224" lon="-0.15073">
        <ele>1557.4731445312</ele>
        <time>2015-07-26T08:15:22Z</time>
      </trkpt>
      <trkpt lat="42.85232" lon="-0.15091">
        <ele>1558.4343261719</ele>
        <time>2015-07-26T08:15:37Z</time>
      </trkpt>
      <trkpt lat="42.85241" lon="-0.15109">
        <ele>1560.8376464844</ele>
        <time>2015-07-26T08:15:56Z</time>
      </trkpt>
      <trkpt lat="42.85245" lon="-0.15124">
        <ele>1561.7990722656</ele>
        <time>2015-07-26T08:16:12Z</time>
      </trkpt>
      <trkpt lat="42.85248" lon="-0.15133">
        <ele>1562.7602539062</ele>
        <time>2015-07-26T08:16:23Z</time>
      </trkpt>
      <trkpt lat="42.85239" lon="-0.15143">
        <ele>1565.64453125</ele>
        <time>2015-07-26T08:16:39Z</time>
      </trkpt>
      <trkpt lat="42.85235" lon="-0.15151">
        <ele>1566.6057128906</ele>
        <time>2015-07-26T08:16:46Z</time>
      </trkpt>
      <trkpt lat="42.85232" lon="-0.15157">
        <ele>1568.0476074219</ele>
        <time>2015-07-26T08:16:52Z</time>
      </trkpt>
      <trkpt lat="42.8523" lon="-0.15165">
        <ele>1569.0090332031</ele>
        <time>2015-07-26T08:17:00Z</time>
      </trkpt>
      <trkpt lat="42.85224" lon="-0.15184">
        <ele>1569.9702148438</ele>
        <time>2015-07-26T08:17:15Z</time>
      </trkpt>
      <trkpt lat="42.85221" lon="-0.15204">
        <ele>1570.4509277344</ele>
        <time>2015-07-26T08:17:31Z</time>
      </trkpt>
      <trkpt lat="42.8522" lon="-0.15214">
        <ele>1570.931640625</ele>
        <time>2015-07-26T08:17:40Z</time>
      </trkpt>
      <trkpt lat="42.85215" lon="-0.15221">
        <ele>1571.412109375</ele>
        <time>2015-07-26T08:17:45Z</time>
      </trkpt>
      <trkpt lat="42.85215" lon="-0.15243">
        <ele>1570.931640625</ele>
        <time>2015-07-26T08:18:00Z</time>
      </trkpt>
      <trkpt lat="42.85205" lon="-0.15266">
        <ele>1571.412109375</ele>
        <time>2015-07-26T08:18:16Z</time>
      </trkpt>
      <trkpt lat="42.85207" lon="-0.15287">
        <ele>1572.8542480469</ele>
        <time>2015-07-26T08:18:34Z</time>
      </trkpt>
      <trkpt lat="42.852" lon="-0.15308">
        <ele>1574.7768554688</ele>
        <time>2015-07-26T08:18:51Z</time>
      </trkpt>
      <trkpt lat="42.85199" lon="-0.15323">
        <ele>1575.2573242188</ele>
        <time>2015-07-26T08:19:03Z</time>
      </trkpt>
      <trkpt lat="42.852" lon="-0.15334">
        <ele>1577.1801757812</ele>
        <time>2015-07-26T08:19:12Z</time>
      </trkpt>
      <trkpt lat="42.85202" lon="-0.15346">
        <ele>1579.1025390625</ele>
        <time>2015-07-26T08:19:22Z</time>
      </trkpt>
      <trkpt lat="42.85202" lon="-0.1536">
        <ele>1581.0256347656</ele>
        <time>2015-07-26T08:19:34Z</time>
      </trkpt>
      <trkpt lat="42.85202" lon="-0.15379">
        <ele>1581.5061035156</ele>
        <time>2015-07-26T08:19:47Z</time>
      </trkpt>
      <trkpt lat="42.85201" lon="-0.15397">
        <ele>1581.5061035156</ele>
        <time>2015-07-26T08:19:59Z</time>
      </trkpt>
      <trkpt lat="42.85203" lon="-0.15403">
        <ele>1581.9868164062</ele>
        <time>2015-07-26T08:20:03Z</time>
      </trkpt>
      <trkpt lat="42.852" lon="-0.15438">
        <ele>1581.9868164062</ele>
        <time>2015-07-26T08:20:24Z</time>
      </trkpt>
      <trkpt lat="42.85199" lon="-0.15455">
        <ele>1581.5061035156</ele>
        <time>2015-07-26T08:20:35Z</time>
      </trkpt>
      <trkpt lat="42.85198" lon="-0.15473">
        <ele>1582.4675292969</ele>
        <time>2015-07-26T08:20:50Z</time>
      </trkpt>
      <trkpt lat="42.85201" lon="-0.15493">
        <ele>1582.9479980469</ele>
        <time>2015-07-26T08:21:07Z</time>
      </trkpt>
      <trkpt lat="42.85202" lon="-0.15511">
        <ele>1582.9479980469</ele>
        <time>2015-07-26T08:21:19Z</time>
      </trkpt>
      <trkpt lat="42.8521" lon="-0.15532">
        <ele>1582.9479980469</ele>
        <time>2015-07-26T08:21:36Z</time>
      </trkpt>
      <trkpt lat="42.8521" lon="-0.15557">
        <ele>1584.8708496094</ele>
        <time>2015-07-26T08:21:54Z</time>
      </trkpt>
      <trkpt lat="42.85207" lon="-0.15568">
        <ele>1585.83203125</ele>
        <time>2015-07-26T08:22:05Z</time>
      </trkpt>
      <trkpt lat="42.85205" lon="-0.15574">
        <ele>1586.3127441406</ele>
        <time>2015-07-26T08:22:10Z</time>
      </trkpt>
      <trkpt lat="42.85205" lon="-0.15584">
        <ele>1586.7932128906</ele>
        <time>2015-07-26T08:22:21Z</time>
      </trkpt>
      <trkpt lat="42.85205" lon="-0.15602">
        <ele>1588.7160644531</ele>
        <time>2015-07-26T08:22:36Z</time>
      </trkpt>
      <trkpt lat="42.85206" lon="-0.15615">
        <ele>1589.1965332031</ele>
        <time>2015-07-26T08:22:45Z</time>
      </trkpt>
      <trkpt lat="42.85219" lon="-0.15651">
        <ele>1591.5998535156</ele>
        <time>2015-07-26T08:23:08Z</time>
      </trkpt>
      <trkpt lat="42.85231" lon="-0.15683">
        <ele>1592.0805664062</ele>
        <time>2015-07-26T08:23:29Z</time>
      </trkpt>
      <trkpt lat="42.85233" lon="-0.1569">
        <ele>1592.0805664062</ele>
        <time>2015-07-26T08:23:45Z</time>
      </trkpt>
      <trkpt lat="42.85233" lon="-0.1569">
        <ele>1592.0805664062</ele>
        <time>2015-07-26T08:23:57Z</time>
      </trkpt>
      <trkpt lat="42.85229" lon="-0.15671">
        <ele>1592.0805664062</ele>
        <time>2015-07-26T08:24:07Z</time>
      </trkpt>
      <trkpt lat="42.85226" lon="-0.15665">
        <ele>1591.5998535156</ele>
        <time>2015-07-26T08:24:10Z</time>
      </trkpt>
      <trkpt lat="42.85213" lon="-0.15645">
        <ele>1592.0805664062</ele>
        <time>2015-07-26T08:24:23Z</time>
      </trkpt>
      <trkpt lat="42.85208" lon="-0.15626">
        <ele>1591.119140625</ele>
        <time>2015-07-26T08:24:34Z</time>
      </trkpt>
      <trkpt lat="42.85207" lon="-0.15622">
        <ele>1591.119140625</ele>
        <time>2015-07-26T08:24:36Z</time>
      </trkpt>
      <trkpt lat="42.85207" lon="-0.15613">
        <ele>1590.1579589844</ele>
        <time>2015-07-26T08:24:41Z</time>
      </trkpt>
      <trkpt lat="42.85207" lon="-0.15606">
        <ele>1590.1579589844</ele>
        <time>2015-07-26T08:24:44Z</time>
      </trkpt>
      <trkpt lat="42.85207" lon="-0.15603">
        <ele>1589.1965332031</ele>
        <time>2015-07-26T08:24:46Z</time>
      </trkpt>
      <trkpt lat="42.85209" lon="-0.15581">
        <ele>1586.3127441406</ele>
        <time>2015-07-26T08:24:59Z</time>
      </trkpt>
      <trkpt lat="42.8521" lon="-0.15573">
        <ele>1585.83203125</ele>
        <time>2015-07-26T08:25:05Z</time>
      </trkpt>
      <trkpt lat="42.85212" lon="-0.15553">
        <ele>1583.4287109375</ele>
        <time>2015-07-26T08:25:17Z</time>
      </trkpt>
      <trkpt lat="42.8521" lon="-0.15524">
        <ele>1583.4287109375</ele>
        <time>2015-07-26T08:25:32Z</time>
      </trkpt>
      <trkpt lat="42.85208" lon="-0.15514">
        <ele>1582.9479980469</ele>
        <time>2015-07-26T08:25:37Z</time>
      </trkpt>
      <trkpt lat="42.85203" lon="-0.15507">
        <ele>1583.4287109375</ele>
        <time>2015-07-26T08:25:43Z</time>
      </trkpt>
      <trkpt lat="42.85202" lon="-0.15495">
        <ele>1583.4287109375</ele>
        <time>2015-07-26T08:25:50Z</time>
      </trkpt>
      <trkpt lat="42.85202" lon="-0.1549">
        <ele>1582.9479980469</ele>
        <time>2015-07-26T08:25:53Z</time>
      </trkpt>
      <trkpt lat="42.85202" lon="-0.1546">
        <ele>1582.9479980469</ele>
        <time>2015-07-26T08:26:11Z</time>
      </trkpt>
      <trkpt lat="42.85202" lon="-0.15435">
        <ele>1583.4287109375</ele>
        <time>2015-07-26T08:26:26Z</time>
      </trkpt>
      <trkpt lat="42.85202" lon="-0.15403">
        <ele>1582.9479980469</ele>
        <time>2015-07-26T08:26:44Z</time>
      </trkpt>
      <trkpt lat="42.85204" lon="-0.15371">
        <ele>1581.9868164062</ele>
        <time>2015-07-26T08:27:02Z</time>
      </trkpt>
      <trkpt lat="42.85206" lon="-0.15338">
        <ele>1580.0642089844</ele>
        <time>2015-07-26T08:27:21Z</time>
      </trkpt>
      <trkpt lat="42.85206" lon="-0.15318">
        <ele>1576.21875</ele>
        <time>2015-07-26T08:27:33Z</time>
      </trkpt>
      <trkpt lat="42.85206" lon="-0.15316">
        <ele>1576.21875</ele>
        <time>2015-07-26T08:27:34Z</time>
      </trkpt>
      <trkpt lat="42.85209" lon="-0.153">
        <ele>1572.8542480469</ele>
        <time>2015-07-26T08:27:44Z</time>
      </trkpt>
      <trkpt lat="42.85217" lon="-0.15274">
        <ele>1571.8928222656</ele>
        <time>2015-07-26T08:28:00Z</time>
      </trkpt>
      <trkpt lat="42.85221" lon="-0.15246">
        <ele>1571.412109375</ele>
        <time>2015-07-26T08:28:16Z</time>
      </trkpt>
      <trkpt lat="42.85223" lon="-0.15224">
        <ele>1570.4509277344</ele>
        <time>2015-07-26T08:28:29Z</time>
      </trkpt>
      <trkpt lat="42.85226" lon="-0.15212">
        <ele>1570.931640625</ele>
        <time>2015-07-26T08:28:38Z</time>
      </trkpt>
      <trkpt lat="42.85232" lon="-0.15192">
        <ele>1569.9702148438</ele>
        <time>2015-07-26T08:28:52Z</time>
      </trkpt>
      <trkpt lat="42.85233" lon="-0.15185">
        <ele>1569.4897460938</ele>
        <time>2015-07-26T08:28:57Z</time>
      </trkpt>
      <trkpt lat="42.8524" lon="-0.15165">
        <ele>1569.0090332031</ele>
        <time>2015-07-26T08:29:14Z</time>
      </trkpt>
      <trkpt lat="42.85244" lon="-0.15154">
        <ele>1568.0476074219</ele>
        <time>2015-07-26T08:29:24Z</time>
      </trkpt>
      <trkpt lat="42.85246" lon="-0.1514">
        <ele>1566.6057128906</ele>
        <time>2015-07-26T08:29:36Z</time>
      </trkpt>
      <trkpt lat="42.85246" lon="-0.15131">
        <ele>1565.1638183594</ele>
        <time>2015-07-26T08:29:47Z</time>
      </trkpt>
      <trkpt lat="42.85241" lon="-0.1512">
        <ele>1562.7602539062</ele>
        <time>2015-07-26T08:30:01Z</time>
      </trkpt>
      <trkpt lat="42.85238" lon="-0.15112">
        <ele>1561.7990722656</ele>
        <time>2015-07-26T08:30:10Z</time>
      </trkpt>
      <trkpt lat="42.85237" lon="-0.15101">
        <ele>1559.8762207031</ele>
        <time>2015-07-26T08:30:18Z</time>
      </trkpt>
      <trkpt lat="42.85232" lon="-0.15083">
        <ele>1559.8762207031</ele>
        <time>2015-07-26T08:30:30Z</time>
      </trkpt>
      <trkpt lat="42.8523" lon="-0.15078">
        <ele>1559.3957519531</ele>
        <time>2015-07-26T08:30:34Z</time>
      </trkpt>
      <trkpt lat="42.85227" lon="-0.1507">
        <ele>1559.3957519531</ele>
        <time>2015-07-26T08:30:41Z</time>
      </trkpt>
      <trkpt lat="42.85214" lon="-0.15041">
        <ele>1557.4731445312</ele>
        <time>2015-07-26T08:31:03Z</time>
      </trkpt>
      <trkpt lat="42.85205" lon="-0.15015">
        <ele>1554.1086425781</ele>
        <time>2015-07-26T08:31:21Z</time>
      </trkpt>
      <trkpt lat="42.85202" lon="-0.15008">
        <ele>1553.6279296875</ele>
        <time>2015-07-26T08:31:26Z</time>
      </trkpt>
      <trkpt lat="42.85196" lon="-0.14985">
        <ele>1550.7438964844</ele>
        <time>2015-07-26T08:31:42Z</time>
      </trkpt>
      <trkpt lat="42.85187" lon="-0.14963">
        <ele>1547.3791503906</ele>
        <time>2015-07-26T08:31:59Z</time>
      </trkpt>
      <trkpt lat="42.85179" lon="-0.14954">
        <ele>1545.9372558594</ele>
        <time>2015-07-26T08:32:09Z</time>
      </trkpt>
      <trkpt lat="42.85174" lon="-0.14946">
        <ele>1545.4565429688</ele>
        <time>2015-07-26T08:32:16Z</time>
      </trkpt>
      <trkpt lat="42.85168" lon="-0.14925">
        <ele>1544.0146484375</ele>
        <time>2015-07-26T08:32:31Z</time>
      </trkpt>
      <trkpt lat="42.85168" lon="-0.1492">
        <ele>1542.5727539062</ele>
        <time>2015-07-26T08:32:34Z</time>
      </trkpt>
      <trkpt lat="42.85166" lon="-0.14899">
        <ele>1539.6887207031</ele>
        <time>2015-07-26T08:32:47Z</time>
      </trkpt>
      <trkpt lat="42.85166" lon="-0.14858">
        <ele>1536.32421875</ele>
        <time>2015-07-26T08:33:12Z</time>
      </trkpt>
      <trkpt lat="42.85163" lon="-0.14824">
        <ele>1533.9208984375</ele>
        <time>2015-07-26T08:33:33Z</time>
      </trkpt>
      <trkpt lat="42.85162" lon="-0.14805">
        <ele>1531.998046875</ele>
        <time>2015-07-26T08:33:44Z</time>
      </trkpt>
      <trkpt lat="42.85163" lon="-0.14777">
        <ele>1531.0368652344</ele>
        <time>2015-07-26T08:34:01Z</time>
      </trkpt>
      <trkpt lat="42.85161" lon="-0.14765">
        <ele>1531.5173339844</ele>
        <time>2015-07-26T08:34:08Z</time>
      </trkpt>
      <trkpt lat="42.85161" lon="-0.14758">
        <ele>1531.998046875</ele>
        <time>2015-07-26T08:34:12Z</time>
      </trkpt>
      <trkpt lat="42.8516" lon="-0.1475">
        <ele>1531.5173339844</ele>
        <time>2015-07-26T08:34:19Z</time>
      </trkpt>
      <trkpt lat="42.85159" lon="-0.14753">
        <ele>1531.5173339844</ele>
        <time>2015-07-26T08:34:21Z</time>
      </trkpt>
      <trkpt lat="42.85163" lon="-0.14786">
        <ele>1532.4790039062</ele>
        <time>2015-07-26T08:34:40Z</time>
      </trkpt>
      <trkpt lat="42.85163" lon="-0.14812">
        <ele>1531.998046875</ele>
        <time>2015-07-26T08:34:57Z</time>
      </trkpt>
      <trkpt lat="42.85161" lon="-0.14836">
        <ele>1533.4401855469</ele>
        <time>2015-07-26T08:35:14Z</time>
      </trkpt>
      <trkpt lat="42.85162" lon="-0.14848">
        <ele>1535.8435058594</ele>
        <time>2015-07-26T08:35:23Z</time>
      </trkpt>
      <trkpt lat="42.85163" lon="-0.14873">
        <ele>1539.2080078125</ele>
        <time>2015-07-26T08:35:40Z</time>
      </trkpt>
      <trkpt lat="42.85165" lon="-0.14904">
        <ele>1540.1694335938</ele>
        <time>2015-07-26T08:35:59Z</time>
      </trkpt>
      <trkpt lat="42.85164" lon="-0.14917">
        <ele>1543.0532226562</ele>
        <time>2015-07-26T08:36:08Z</time>
      </trkpt>
      <trkpt lat="42.85168" lon="-0.14948">
        <ele>1543.5339355469</ele>
        <time>2015-07-26T08:36:28Z</time>
      </trkpt>
      <trkpt lat="42.85181" lon="-0.14958">
        <ele>1544.9758300781</ele>
        <time>2015-07-26T08:36:42Z</time>
      </trkpt>
      <trkpt lat="42.85185" lon="-0.14974">
        <ele>1548.3405761719</ele>
        <time>2015-07-26T08:36:54Z</time>
      </trkpt>
      <trkpt lat="42.85184" lon="-0.14991">
        <ele>1549.7827148438</ele>
        <time>2015-07-26T08:37:07Z</time>
      </trkpt>
      <trkpt lat="42.85192" lon="-0.15012">
        <ele>1552.1857910156</ele>
        <time>2015-07-26T08:37:24Z</time>
      </trkpt>
      <trkpt lat="42.85198" lon="-0.15021">
        <ele>1554.1086425781</ele>
        <time>2015-07-26T08:37:33Z</time>
      </trkpt>
      <trkpt lat="42.85204" lon="-0.15047">
        <ele>1554.5891113281</ele>
        <time>2015-07-26T08:37:51Z</time>
      </trkpt>
      <trkpt lat="42.8521" lon="-0.15063">
        <ele>1556.0310058594</ele>
        <time>2015-07-26T08:38:03Z</time>
      </trkpt>
      <trkpt lat="42.85217" lon="-0.15076">
        <ele>1557.4731445312</ele>
        <time>2015-07-26T08:38:13Z</time>
      </trkpt>
      <trkpt lat="42.85224" lon="-0.15086">
        <ele>1557.9538574219</ele>
        <time>2015-07-26T08:38:21Z</time>
      </trkpt>
      <trkpt lat="42.85235" lon="-0.1511">
        <ele>1560.8376464844</ele>
        <time>2015-07-26T08:38:38Z</time>
      </trkpt>
      <trkpt lat="42.85238" lon="-0.15121">
        <ele>1561.318359375</ele>
        <time>2015-07-26T08:38:49Z</time>
      </trkpt>
      <trkpt lat="42.85245" lon="-0.15132">
        <ele>1563.7214355469</ele>
        <time>2015-07-26T08:39:02Z</time>
      </trkpt>
      <trkpt lat="42.85237" lon="-0.15155">
        <ele>1566.6057128906</ele>
        <time>2015-07-26T08:39:20Z</time>
      </trkpt>
      <trkpt lat="42.85235" lon="-0.15168">
        <ele>1568.0476074219</ele>
        <time>2015-07-26T08:39:33Z</time>
      </trkpt>
      <trkpt lat="42.85229" lon="-0.15184">
        <ele>1568.5283203125</ele>
        <time>2015-07-26T08:39:44Z</time>
      </trkpt>
      <trkpt lat="42.85226" lon="-0.15193">
        <ele>1569.0090332031</ele>
        <time>2015-07-26T08:39:51Z</time>
      </trkpt>
      <trkpt lat="42.85228" lon="-0.15206">
        <ele>1569.9702148438</ele>
        <time>2015-07-26T08:40:03Z</time>
      </trkpt>
      <trkpt lat="42.8523" lon="-0.15215">
        <ele>1570.4509277344</ele>
        <time>2015-07-26T08:40:13Z</time>
      </trkpt>
      <trkpt lat="42.85225" lon="-0.1523">
        <ele>1569.9702148438</ele>
        <time>2015-07-26T08:40:23Z</time>
      </trkpt>
      <trkpt lat="42.85217" lon="-0.15257">
        <ele>1569.9702148438</ele>
        <time>2015-07-26T08:40:40Z</time>
      </trkpt>
      <trkpt lat="42.8521" lon="-0.15277">
        <ele>1571.412109375</ele>
        <time>2015-07-26T08:40:55Z</time>
      </trkpt>
      <trkpt lat="42.85209" lon="-0.1528">
        <ele>1571.412109375</ele>
        <time>2015-07-26T08:40:57Z</time>
      </trkpt>
      <trkpt lat="42.85205" lon="-0.15294">
        <ele>1572.3735351562</ele>
        <time>2015-07-26T08:41:07Z</time>
      </trkpt>
      <trkpt lat="42.852" lon="-0.15314">
        <ele>1574.2961425781</ele>
        <time>2015-07-26T08:41:22Z</time>
      </trkpt>
      <trkpt lat="42.85199" lon="-0.15316">
        <ele>1575.2573242188</ele>
        <time>2015-07-26T08:41:24Z</time>
      </trkpt>
      <trkpt lat="42.85201" lon="-0.15333">
        <ele>1578.1413574219</ele>
        <time>2015-07-26T08:41:37Z</time>
      </trkpt>
      <trkpt lat="42.852" lon="-0.1535">
        <ele>1580.0642089844</ele>
        <time>2015-07-26T08:41:50Z</time>
      </trkpt>
      <trkpt lat="42.85201" lon="-0.15354">
        <ele>1580.544921875</ele>
        <time>2015-07-26T08:41:53Z</time>
      </trkpt>
      <trkpt lat="42.85201" lon="-0.15382">
        <ele>1581.9868164062</ele>
        <time>2015-07-26T08:42:11Z</time>
      </trkpt>
      <trkpt lat="42.85197" lon="-0.15411">
        <ele>1583.4287109375</ele>
        <time>2015-07-26T08:42:29Z</time>
      </trkpt>
      <trkpt lat="42.85199" lon="-0.15446">
        <ele>1582.4675292969</ele>
        <time>2015-07-26T08:42:50Z</time>
      </trkpt>
      <trkpt lat="42.85198" lon="-0.15473">
        <ele>1582.4675292969</ele>
        <time>2015-07-26T08:43:08Z</time>
      </trkpt>
      <trkpt lat="42.85198" lon="-0.15499">
        <ele>1583.4287109375</ele>
        <time>2015-07-26T08:43:25Z</time>
      </trkpt>
      <trkpt lat="42.85205" lon="-0.15516">
        <ele>1583.4287109375</ele>
        <time>2015-07-26T08:43:37Z</time>
      </trkpt>
      <trkpt lat="42.85211" lon="-0.1555">
        <ele>1583.9094238281</ele>
        <time>2015-07-26T08:43:59Z</time>
      </trkpt>
      <trkpt lat="42.85205" lon="-0.15578">
        <ele>1586.3127441406</ele>
        <time>2015-07-26T08:44:17Z</time>
      </trkpt>
      <trkpt lat="42.85204" lon="-0.15597">
        <ele>1587.7546386719</ele>
        <time>2015-07-26T08:44:30Z</time>
      </trkpt>
      <trkpt lat="42.85207" lon="-0.15621">
        <ele>1590.1579589844</ele>
        <time>2015-07-26T08:44:47Z</time>
      </trkpt>
      <trkpt lat="42.8521" lon="-0.15631">
        <ele>1592.0805664062</ele>
        <time>2015-07-26T08:44:54Z</time>
      </trkpt>
      <trkpt lat="42.85218" lon="-0.15648">
        <ele>1592.5612792969</ele>
        <time>2015-07-26T08:45:05Z</time>
      </trkpt>
      <trkpt lat="42.85229" lon="-0.1568">
        <ele>1592.5612792969</ele>
        <time>2015-07-26T08:45:27Z</time>
      </trkpt>
      <trkpt lat="42.85233" lon="-0.1571">
        <ele>1593.5224609375</ele>
        <time>2015-07-26T08:45:47Z</time>
      </trkpt>
      <trkpt lat="42.85232" lon="-0.1572">
        <ele>1593.0417480469</ele>
        <time>2015-07-26T08:45:54Z</time>
      </trkpt>
      <trkpt lat="42.85227" lon="-0.15734">
        <ele>1594.0031738281</ele>
        <time>2015-07-26T08:46:06Z</time>
      </trkpt>
      <trkpt lat="42.85215" lon="-0.15751">
        <ele>1595.92578125</ele>
        <time>2015-07-26T08:46:24Z</time>
      </trkpt>
      <trkpt lat="42.85208" lon="-0.15763">
        <ele>1595.92578125</ele>
        <time>2015-07-26T08:46:33Z</time>
      </trkpt>
      <trkpt lat="42.85215" lon="-0.15798">
        <ele>1595.4450683594</ele>
        <time>2015-07-26T08:46:55Z</time>
      </trkpt>
      <trkpt lat="42.85222" lon="-0.15823">
        <ele>1594.9643554688</ele>
        <time>2015-07-26T08:47:12Z</time>
      </trkpt>
      <trkpt lat="42.85219" lon="-0.15854">
        <ele>1596.8872070312</ele>
        <time>2015-07-26T08:47:33Z</time>
      </trkpt>
      <trkpt lat="42.85206" lon="-0.15871">
        <ele>1597.8486328125</ele>
        <time>2015-07-26T08:47:44Z</time>
      </trkpt>
      <trkpt lat="42.85191" lon="-0.15891">
        <ele>1599.7712402344</ele>
        <time>2015-07-26T08:48:04Z</time>
      </trkpt>
      <trkpt lat="42.85178" lon="-0.15907">
        <ele>1602.1743164062</ele>
        <time>2015-07-26T08:48:21Z</time>
      </trkpt>
      <trkpt lat="42.85171" lon="-0.15934">
        <ele>1604.0971679688</ele>
        <time>2015-07-26T08:48:40Z</time>
      </trkpt>
      <trkpt lat="42.8517" lon="-0.15969">
        <ele>1603.1357421875</ele>
        <time>2015-07-26T08:49:02Z</time>
      </trkpt>
      <trkpt lat="42.85164" lon="-0.15998">
        <ele>1603.6164550781</ele>
        <time>2015-07-26T08:49:21Z</time>
      </trkpt>
      <trkpt lat="42.85162" lon="-0.16007">
        <ele>1604.0971679688</ele>
        <time>2015-07-26T08:49:37Z</time>
      </trkpt>
      <trkpt lat="42.85162" lon="-0.16007">
        <ele>1604.5776367188</ele>
        <time>2015-07-26T08:49:59Z</time>
      </trkpt>
      <trkpt lat="42.85158" lon="-0.16023">
        <ele>1604.5776367188</ele>
        <time>2015-07-26T08:50:15Z</time>
      </trkpt>
      <trkpt lat="42.85156" lon="-0.16036">
        <ele>1605.5390625</ele>
        <time>2015-07-26T08:50:31Z</time>
      </trkpt>
      <trkpt lat="42.85151" lon="-0.16055">
        <ele>1606.5002441406</ele>
        <time>2015-07-26T08:50:46Z</time>
      </trkpt>
      <trkpt lat="42.85149" lon="-0.16066">
        <ele>1606.9809570312</ele>
        <time>2015-07-26T08:50:53Z</time>
      </trkpt>
      <trkpt lat="42.85137" lon="-0.1609">
        <ele>1607.9423828125</ele>
        <time>2015-07-26T08:51:11Z</time>
      </trkpt>
      <trkpt lat="42.8513" lon="-0.16113">
        <ele>1609.8647460938</ele>
        <time>2015-07-26T08:51:28Z</time>
      </trkpt>
      <trkpt lat="42.85127" lon="-0.16118">
        <ele>1610.826171875</ele>
        <time>2015-07-26T08:51:31Z</time>
      </trkpt>
      <trkpt lat="42.85114" lon="-0.16145">
        <ele>1611.7875976562</ele>
        <time>2015-07-26T08:51:51Z</time>
      </trkpt>
      <trkpt lat="42.85113" lon="-0.16149">
        <ele>1612.2683105469</ele>
        <time>2015-07-26T08:51:54Z</time>
      </trkpt>
      <trkpt lat="42.85106" lon="-0.16159">
        <ele>1614.1909179688</ele>
        <time>2015-07-26T08:52:03Z</time>
      </trkpt>
      <trkpt lat="42.85096" lon="-0.16175">
        <ele>1616.1135253906</ele>
        <time>2015-07-26T08:52:17Z</time>
      </trkpt>
      <trkpt lat="42.85087" lon="-0.16205">
        <ele>1617.0749511719</ele>
        <time>2015-07-26T08:52:37Z</time>
      </trkpt>
      <trkpt lat="42.85072" lon="-0.16225">
        <ele>1618.5168457031</ele>
        <time>2015-07-26T08:52:54Z</time>
      </trkpt>
      <trkpt lat="42.85056" lon="-0.16246">
        <ele>1618.9975585938</ele>
        <time>2015-07-26T08:53:12Z</time>
      </trkpt>
      <trkpt lat="42.85037" lon="-0.16255">
        <ele>1620.9201660156</ele>
        <time>2015-07-26T08:53:32Z</time>
      </trkpt>
      <trkpt lat="42.85014" lon="-0.16261">
        <ele>1622.8427734375</ele>
        <time>2015-07-26T08:53:51Z</time>
      </trkpt>
      <trkpt lat="42.84989" lon="-0.16269">
        <ele>1623.3234863281</ele>
        <time>2015-07-26T08:54:12Z</time>
      </trkpt>
      <trkpt lat="42.84972" lon="-0.16286">
        <ele>1619.9587402344</ele>
        <time>2015-07-26T08:54:28Z</time>
      </trkpt>
      <trkpt lat="42.84956" lon="-0.16309">
        <ele>1620.9201660156</ele>
        <time>2015-07-26T08:54:47Z</time>
      </trkpt>
      <trkpt lat="42.84952" lon="-0.1634">
        <ele>1620.9201660156</ele>
        <time>2015-07-26T08:55:06Z</time>
      </trkpt>
      <trkpt lat="42.8495" lon="-0.16357">
        <ele>1619.4782714844</ele>
        <time>2015-07-26T08:55:16Z</time>
      </trkpt>
      <trkpt lat="42.84946" lon="-0.1636">
        <ele>1619.9587402344</ele>
        <time>2015-07-26T08:55:22Z</time>
      </trkpt>
      <trkpt lat="42.8493" lon="-0.16379">
        <ele>1620.439453125</ele>
        <time>2015-07-26T08:55:38Z</time>
      </trkpt>
      <trkpt lat="42.8492" lon="-0.1639">
        <ele>1619.9587402344</ele>
        <time>2015-07-26T08:55:48Z</time>
      </trkpt>
      <trkpt lat="42.84917" lon="-0.16392">
        <ele>1619.9587402344</ele>
        <time>2015-07-26T08:55:51Z</time>
      </trkpt>
      <trkpt lat="42.84913" lon="-0.16393">
        <ele>1619.4782714844</ele>
        <time>2015-07-26T08:55:55Z</time>
      </trkpt>
      <trkpt lat="42.84911" lon="-0.16395">
        <ele>1619.4782714844</ele>
        <time>2015-07-26T08:55:57Z</time>
      </trkpt>
      <trkpt lat="42.8489" lon="-0.16406">
        <ele>1619.9587402344</ele>
        <time>2015-07-26T08:56:16Z</time>
      </trkpt>
      <trkpt lat="42.84871" lon="-0.16429">
        <ele>1620.439453125</ele>
        <time>2015-07-26T08:56:35Z</time>
      </trkpt>
      <trkpt lat="42.84846" lon="-0.16455">
        <ele>1619.9587402344</ele>
        <time>2015-07-26T08:56:59Z</time>
      </trkpt>
      <trkpt lat="42.84822" lon="-0.16474">
        <ele>1620.439453125</ele>
        <time>2015-07-26T08:57:20Z</time>
      </trkpt>
      <trkpt lat="42.84799" lon="-0.16484">
        <ele>1620.9201660156</ele>
        <time>2015-07-26T08:57:39Z</time>
      </trkpt>
      <trkpt lat="42.84776" lon="-0.16497">
        <ele>1620.9201660156</ele>
        <time>2015-07-26T08:57:59Z</time>
      </trkpt>
      <trkpt lat="42.84755" lon="-0.16514">
        <ele>1621.4006347656</ele>
        <time>2015-07-26T08:58:18Z</time>
      </trkpt>
      <trkpt lat="42.84742" lon="-0.16535">
        <ele>1621.8813476562</ele>
        <time>2015-07-26T08:58:34Z</time>
      </trkpt>
      <trkpt lat="42.84735" lon="-0.16567">
        <ele>1622.3620605469</ele>
        <time>2015-07-26T08:58:53Z</time>
      </trkpt>
      <trkpt lat="42.84724" lon="-0.16588">
        <ele>1625.2458496094</ele>
        <time>2015-07-26T08:59:10Z</time>
      </trkpt>
      <trkpt lat="42.84711" lon="-0.16616">
        <ele>1626.2072753906</ele>
        <time>2015-07-26T08:59:29Z</time>
      </trkpt>
      <trkpt lat="42.84695" lon="-0.16647">
        <ele>1625.2458496094</ele>
        <time>2015-07-26T08:59:51Z</time>
      </trkpt>
      <trkpt lat="42.8468" lon="-0.16668">
        <ele>1624.7653808594</ele>
        <time>2015-07-26T09:00:08Z</time>
      </trkpt>
      <trkpt lat="42.84659" lon="-0.16681">
        <ele>1625.2458496094</ele>
        <time>2015-07-26T09:00:27Z</time>
      </trkpt>
      <trkpt lat="42.84639" lon="-0.16696">
        <ele>1624.2846679688</ele>
        <time>2015-07-26T09:00:45Z</time>
      </trkpt>
      <trkpt lat="42.84616" lon="-0.16705">
        <ele>1624.2846679688</ele>
        <time>2015-07-26T09:01:05Z</time>
      </trkpt>
      <trkpt lat="42.8459" lon="-0.16709">
        <ele>1625.2458496094</ele>
        <time>2015-07-26T09:01:26Z</time>
      </trkpt>
      <trkpt lat="42.84571" lon="-0.16725">
        <ele>1624.2846679688</ele>
        <time>2015-07-26T09:01:44Z</time>
      </trkpt>
      <trkpt lat="42.84549" lon="-0.16743">
        <ele>1625.2458496094</ele>
        <time>2015-07-26T09:02:05Z</time>
      </trkpt>
      <trkpt lat="42.84532" lon="-0.16757">
        <ele>1625.7265625</ele>
        <time>2015-07-26T09:02:21Z</time>
      </trkpt>
      <trkpt lat="42.84532" lon="-0.16758">
        <ele>1626.2072753906</ele>
        <time>2015-07-26T09:02:22Z</time>
      </trkpt>
      <trkpt lat="42.84507" lon="-0.16774">
        <ele>1627.1687011719</ele>
        <time>2015-07-26T09:02:44Z</time>
      </trkpt>
      <trkpt lat="42.8449" lon="-0.16794">
        <ele>1625.7265625</ele>
        <time>2015-07-26T09:03:02Z</time>
      </trkpt>
      <trkpt lat="42.84467" lon="-0.16807">
        <ele>1623.3234863281</ele>
        <time>2015-07-26T09:03:22Z</time>
      </trkpt>
      <trkpt lat="42.8444" lon="-0.16812">
        <ele>1623.8039550781</ele>
        <time>2015-07-26T09:03:42Z</time>
      </trkpt>
      <trkpt lat="42.84418" lon="-0.16818">
        <ele>1624.2846679688</ele>
        <time>2015-07-26T09:04:00Z</time>
      </trkpt>
      <trkpt lat="42.84392" lon="-0.16835">
        <ele>1624.7653808594</ele>
        <time>2015-07-26T09:04:23Z</time>
      </trkpt>
      <trkpt lat="42.84371" lon="-0.16845">
        <ele>1625.2458496094</ele>
        <time>2015-07-26T09:04:40Z</time>
      </trkpt>
      <trkpt lat="42.84352" lon="-0.1685">
        <ele>1625.2458496094</ele>
        <time>2015-07-26T09:04:55Z</time>
      </trkpt>
      <trkpt lat="42.84337" lon="-0.1685">
        <ele>1624.7653808594</ele>
        <time>2015-07-26T09:05:08Z</time>
      </trkpt>
      <trkpt lat="42.84323" lon="-0.16854">
        <ele>1625.7265625</ele>
        <time>2015-07-26T09:05:19Z</time>
      </trkpt>
      <trkpt lat="42.84315" lon="-0.16858">
        <ele>1627.6491699219</ele>
        <time>2015-07-26T09:05:26Z</time>
      </trkpt>
      <trkpt lat="42.84296" lon="-0.16865">
        <ele>1629.0913085938</ele>
        <time>2015-07-26T09:05:43Z</time>
      </trkpt>
      <trkpt lat="42.84289" lon="-0.16868">
        <ele>1629.0913085938</ele>
        <time>2015-07-26T09:05:49Z</time>
      </trkpt>
      <trkpt lat="42.84269" lon="-0.16878">
        <ele>1630.5334472656</ele>
        <time>2015-07-26T09:06:06Z</time>
      </trkpt>
      <trkpt lat="42.84254" lon="-0.16894">
        <ele>1631.4946289062</ele>
        <time>2015-07-26T09:06:23Z</time>
      </trkpt>
      <trkpt lat="42.84251" lon="-0.16896">
        <ele>1631.0141601562</ele>
        <time>2015-07-26T09:06:25Z</time>
      </trkpt>
      <trkpt lat="42.84249" lon="-0.16896">
        <ele>1631.0141601562</ele>
        <time>2015-07-26T09:06:27Z</time>
      </trkpt>
      <trkpt lat="42.84245" lon="-0.16893">
        <ele>1631.0141601562</ele>
        <time>2015-07-26T09:06:31Z</time>
      </trkpt>
      <trkpt lat="42.84242" lon="-0.16892">
        <ele>1630.052734375</ele>
        <time>2015-07-26T09:06:33Z</time>
      </trkpt>
      <trkpt lat="42.84222" lon="-0.16891">
        <ele>1630.052734375</ele>
        <time>2015-07-26T09:06:51Z</time>
      </trkpt>
      <trkpt lat="42.84199" lon="-0.16894">
        <ele>1629.5720214844</ele>
        <time>2015-07-26T09:07:10Z</time>
      </trkpt>
      <trkpt lat="42.84172" lon="-0.16892">
        <ele>1628.1301269531</ele>
        <time>2015-07-26T09:07:32Z</time>
      </trkpt>
      <trkpt lat="42.84146" lon="-0.16884">
        <ele>1628.6108398438</ele>
        <time>2015-07-26T09:07:54Z</time>
      </trkpt>
      <trkpt lat="42.84127" lon="-0.16879">
        <ele>1628.6108398438</ele>
        <time>2015-07-26T09:08:10Z</time>
      </trkpt>
      <trkpt lat="42.84101" lon="-0.16888">
        <ele>1629.5720214844</ele>
        <time>2015-07-26T09:08:32Z</time>
      </trkpt>
      <trkpt lat="42.84082" lon="-0.16901">
        <ele>1630.5334472656</ele>
        <time>2015-07-26T09:08:48Z</time>
      </trkpt>
      <trkpt lat="42.84067" lon="-0.16926">
        <ele>1631.4946289062</ele>
        <time>2015-07-26T09:09:05Z</time>
      </trkpt>
      <trkpt lat="42.84045" lon="-0.16953">
        <ele>1632.4560546875</ele>
        <time>2015-07-26T09:09:29Z</time>
      </trkpt>
      <trkpt lat="42.84031" lon="-0.16971">
        <ele>1634.3786621094</ele>
        <time>2015-07-26T09:09:46Z</time>
      </trkpt>
      <trkpt lat="42.84021" lon="-0.16983">
        <ele>1634.859375</ele>
        <time>2015-07-26T09:09:58Z</time>
      </trkpt>
      <trkpt lat="42.84016" lon="-0.16986">
        <ele>1635.8205566406</ele>
        <time>2015-07-26T09:10:02Z</time>
      </trkpt>
      <trkpt lat="42.84" lon="-0.17">
        <ele>1635.8205566406</ele>
        <time>2015-07-26T09:10:19Z</time>
      </trkpt>
      <trkpt lat="42.83991" lon="-0.17007">
        <ele>1639.1850585938</ele>
        <time>2015-07-26T09:10:36Z</time>
      </trkpt>
      <trkpt lat="42.83989" lon="-0.17017">
        <ele>1641.1076660156</ele>
        <time>2015-07-26T09:10:46Z</time>
      </trkpt>
      <trkpt lat="42.83983" lon="-0.17022">
        <ele>1643.0302734375</ele>
        <time>2015-07-26T09:10:58Z</time>
      </trkpt>
      <trkpt lat="42.83975" lon="-0.17031">
        <ele>1643.5109863281</ele>
        <time>2015-07-26T09:11:08Z</time>
      </trkpt>
      <trkpt lat="42.83972" lon="-0.17039">
        <ele>1646.8757324219</ele>
        <time>2015-07-26T09:11:16Z</time>
      </trkpt>
      <trkpt lat="42.83973" lon="-0.17062">
        <ele>1647.3564453125</ele>
        <time>2015-07-26T09:11:31Z</time>
      </trkpt>
      <trkpt lat="42.83976" lon="-0.17071">
        <ele>1650.2404785156</ele>
        <time>2015-07-26T09:11:43Z</time>
      </trkpt>
      <trkpt lat="42.83986" lon="-0.17073">
        <ele>1652.6435546875</ele>
        <time>2015-07-26T09:11:54Z</time>
      </trkpt>
      <trkpt lat="42.84" lon="-0.17077">
        <ele>1655.046875</ele>
        <time>2015-07-26T09:12:04Z</time>
      </trkpt>
      <trkpt lat="42.84009" lon="-0.17076">
        <ele>1655.046875</ele>
        <time>2015-07-26T09:12:12Z</time>
      </trkpt>
      <trkpt lat="42.84017" lon="-0.17077">
        <ele>1655.5275878906</ele>
        <time>2015-07-26T09:12:18Z</time>
      </trkpt>
      <trkpt lat="42.84028" lon="-0.17085">
        <ele>1656.0080566406</ele>
        <time>2015-07-26T09:12:29Z</time>
      </trkpt>
      <trkpt lat="42.8404" lon="-0.17092">
        <ele>1656.9694824219</ele>
        <time>2015-07-26T09:12:40Z</time>
      </trkpt>
      <trkpt lat="42.84049" lon="-0.17097">
        <ele>1659.8532714844</ele>
        <time>2015-07-26T09:12:52Z</time>
      </trkpt>
      <trkpt lat="42.84057" lon="-0.17106">
        <ele>1661.2956542969</ele>
        <time>2015-07-26T09:13:04Z</time>
      </trkpt>
      <trkpt lat="42.84065" lon="-0.17111">
        <ele>1663.6987304688</ele>
        <time>2015-07-26T09:13:14Z</time>
      </trkpt>
      <trkpt lat="42.84073" lon="-0.17114">
        <ele>1666.1020507812</ele>
        <time>2015-07-26T09:13:26Z</time>
      </trkpt>
      <trkpt lat="42.84087" lon="-0.17121">
        <ele>1667.0634765625</ele>
        <time>2015-07-26T09:13:39Z</time>
      </trkpt>
      <trkpt lat="42.84098" lon="-0.17125">
        <ele>1670.4279785156</ele>
        <time>2015-07-26T09:13:47Z</time>
      </trkpt>
      <trkpt lat="42.84094" lon="-0.1713">
        <ele>1671.3891601562</ele>
        <time>2015-07-26T09:14:03Z</time>
      </trkpt>
      <trkpt lat="42.84087" lon="-0.17136">
        <ele>1672.8312988281</ele>
        <time>2015-07-26T09:14:14Z</time>
      </trkpt>
      <trkpt lat="42.84086" lon="-0.17138">
        <ele>1674.75390625</ele>
        <time>2015-07-26T09:14:17Z</time>
      </trkpt>
      <trkpt lat="42.8408" lon="-0.17142">
        <ele>1677.6379394531</ele>
        <time>2015-07-26T09:14:26Z</time>
      </trkpt>
      <trkpt lat="42.84072" lon="-0.17145">
        <ele>1678.5993652344</ele>
        <time>2015-07-26T09:14:36Z</time>
      </trkpt>
      <trkpt lat="42.84062" lon="-0.17147">
        <ele>1680.0412597656</ele>
        <time>2015-07-26T09:14:47Z</time>
      </trkpt>
      <trkpt lat="42.84055" lon="-0.17161">
        <ele>1681.9638671875</ele>
        <time>2015-07-26T09:15:00Z</time>
      </trkpt>
      <trkpt lat="42.84051" lon="-0.17179">
        <ele>1683.4057617188</ele>
        <time>2015-07-26T09:15:15Z</time>
      </trkpt>
      <trkpt lat="42.84058" lon="-0.17179">
        <ele>1685.3283691406</ele>
        <time>2015-07-26T09:15:24Z</time>
      </trkpt>
      <trkpt lat="42.84064" lon="-0.17177">
        <ele>1687.7316894531</ele>
        <time>2015-07-26T09:15:31Z</time>
      </trkpt>
      <trkpt lat="42.84068" lon="-0.17177">
        <ele>1688.6931152344</ele>
        <time>2015-07-26T09:15:36Z</time>
      </trkpt>
      <trkpt lat="42.84074" lon="-0.17183">
        <ele>1690.6154785156</ele>
        <time>2015-07-26T09:15:47Z</time>
      </trkpt>
      <trkpt lat="42.84062" lon="-0.17186">
        <ele>1694.4609375</ele>
        <time>2015-07-26T09:16:01Z</time>
      </trkpt>
      <trkpt lat="42.84062" lon="-0.17187">
        <ele>1694.4609375</ele>
        <time>2015-07-26T09:16:02Z</time>
      </trkpt>
      <trkpt lat="42.84052" lon="-0.17198">
        <ele>1696.3837890625</ele>
        <time>2015-07-26T09:16:15Z</time>
      </trkpt>
      <trkpt lat="42.84047" lon="-0.17207">
        <ele>1698.7868652344</ele>
        <time>2015-07-26T09:16:26Z</time>
      </trkpt>
      <trkpt lat="42.84044" lon="-0.17212">
        <ele>1700.2290039062</ele>
        <time>2015-07-26T09:16:32Z</time>
      </trkpt>
      <trkpt lat="42.84043" lon="-0.17217">
        <ele>1701.6708984375</ele>
        <time>2015-07-26T09:16:36Z</time>
      </trkpt>
      <trkpt lat="42.8404" lon="-0.17227">
        <ele>1704.5546875</ele>
        <time>2015-07-26T09:16:49Z</time>
      </trkpt>
      <trkpt lat="42.84029" lon="-0.17232">
        <ele>1706.4772949219</ele>
        <time>2015-07-26T09:17:02Z</time>
      </trkpt>
      <trkpt lat="42.84026" lon="-0.17233">
        <ele>1708.4001464844</ele>
        <time>2015-07-26T09:17:06Z</time>
      </trkpt>
      <trkpt lat="42.84017" lon="-0.17243">
        <ele>1711.7648925781</ele>
        <time>2015-07-26T09:17:21Z</time>
      </trkpt>
      <trkpt lat="42.84015" lon="-0.17244">
        <ele>1712.7260742188</ele>
        <time>2015-07-26T09:17:23Z</time>
      </trkpt>
      <trkpt lat="42.84014" lon="-0.17257">
        <ele>1715.1293945312</ele>
        <time>2015-07-26T09:17:38Z</time>
      </trkpt>
      <trkpt lat="42.84016" lon="-0.17259">
        <ele>1716.5712890625</ele>
        <time>2015-07-26T09:17:41Z</time>
      </trkpt>
      <trkpt lat="42.84028" lon="-0.17262">
        <ele>1719.4553222656</ele>
        <time>2015-07-26T09:17:56Z</time>
      </trkpt>
      <trkpt lat="42.84029" lon="-0.17262">
        <ele>1720.8972167969</ele>
        <time>2015-07-26T09:18:11Z</time>
      </trkpt>
      <trkpt lat="42.84021" lon="-0.17269">
        <ele>1722.8198242188</ele>
        <time>2015-07-26T09:18:23Z</time>
      </trkpt>
      <trkpt lat="42.84013" lon="-0.17277">
        <ele>1724.7426757812</ele>
        <time>2015-07-26T09:18:36Z</time>
      </trkpt>
      <trkpt lat="42.84009" lon="-0.17288">
        <ele>1728.1071777344</ele>
        <time>2015-07-26T09:18:47Z</time>
      </trkpt>
      <trkpt lat="42.84004" lon="-0.173">
        <ele>1730.0297851562</ele>
        <time>2015-07-26T09:18:58Z</time>
      </trkpt>
      <trkpt lat="42.84" lon="-0.1731">
        <ele>1732.4331054688</ele>
        <time>2015-07-26T09:19:10Z</time>
      </trkpt>
      <trkpt lat="42.84007" lon="-0.1731">
        <ele>1734.3557128906</ele>
        <time>2015-07-26T09:19:21Z</time>
      </trkpt>
      <trkpt lat="42.8401" lon="-0.17308">
        <ele>1734.8364257812</ele>
        <time>2015-07-26T09:19:24Z</time>
      </trkpt>
      <trkpt lat="42.8402" lon="-0.1731">
        <ele>1738.2009277344</ele>
        <time>2015-07-26T09:19:36Z</time>
      </trkpt>
      <trkpt lat="42.84034" lon="-0.17307">
        <ele>1740.6042480469</ele>
        <time>2015-07-26T09:19:50Z</time>
      </trkpt>
      <trkpt lat="42.84031" lon="-0.17309">
        <ele>1743.48828125</ele>
        <time>2015-07-26T09:20:05Z</time>
      </trkpt>
      <trkpt lat="42.84029" lon="-0.17318">
        <ele>1744.9301757812</ele>
        <time>2015-07-26T09:20:28Z</time>
      </trkpt>
      <trkpt lat="42.84024" lon="-0.17325">
        <ele>1747.3334960938</ele>
        <time>2015-07-26T09:20:39Z</time>
      </trkpt>
      <trkpt lat="42.84019" lon="-0.17335">
        <ele>1750.6979980469</ele>
        <time>2015-07-26T09:20:51Z</time>
      </trkpt>
      <trkpt lat="42.8401" lon="-0.17345">
        <ele>1752.6206054688</ele>
        <time>2015-07-26T09:21:03Z</time>
      </trkpt>
      <trkpt lat="42.84003" lon="-0.17351">
        <ele>1753.58203125</ele>
        <time>2015-07-26T09:21:12Z</time>
      </trkpt>
      <trkpt lat="42.84008" lon="-0.17355">
        <ele>1755.5046386719</ele>
        <time>2015-07-26T09:21:19Z</time>
      </trkpt>
      <trkpt lat="42.84016" lon="-0.17355">
        <ele>1756.4660644531</ele>
        <time>2015-07-26T09:21:28Z</time>
      </trkpt>
      <trkpt lat="42.84028" lon="-0.17348">
        <ele>1759.3500976562</ele>
        <time>2015-07-26T09:21:42Z</time>
      </trkpt>
      <trkpt lat="42.84034" lon="-0.17341">
        <ele>1761.7534179688</ele>
        <time>2015-07-26T09:21:54Z</time>
      </trkpt>
      <trkpt lat="42.84043" lon="-0.17338">
        <ele>1764.6372070312</ele>
        <time>2015-07-26T09:22:05Z</time>
      </trkpt>
      <trkpt lat="42.84042" lon="-0.17345">
        <ele>1766.5598144531</ele>
        <time>2015-07-26T09:22:20Z</time>
      </trkpt>
      <trkpt lat="42.84037" lon="-0.17354">
        <ele>1769.9243164062</ele>
        <time>2015-07-26T09:22:35Z</time>
      </trkpt>
      <trkpt lat="42.84036" lon="-0.1736">
        <ele>1773.2893066406</ele>
        <time>2015-07-26T09:22:48Z</time>
      </trkpt>
      <trkpt lat="42.84048" lon="-0.17361">
        <ele>1776.6538085938</ele>
        <time>2015-07-26T09:23:01Z</time>
      </trkpt>
      <trkpt lat="42.84042" lon="-0.17367">
        <ele>1780.0183105469</ele>
        <time>2015-07-26T09:23:12Z</time>
      </trkpt>
      <trkpt lat="42.84037" lon="-0.17376">
        <ele>1781.9409179688</ele>
        <time>2015-07-26T09:23:26Z</time>
      </trkpt>
      <trkpt lat="42.8405" lon="-0.17375">
        <ele>1783.3828125</ele>
        <time>2015-07-26T09:23:38Z</time>
      </trkpt>
      <trkpt lat="42.84059" lon="-0.17362">
        <ele>1783.8635253906</ele>
        <time>2015-07-26T09:23:50Z</time>
      </trkpt>
      <trkpt lat="42.84062" lon="-0.17362">
        <ele>1787.2280273438</ele>
        <time>2015-07-26T09:23:57Z</time>
      </trkpt>
      <trkpt lat="42.84068" lon="-0.17355">
        <ele>1790.1123046875</ele>
        <time>2015-07-26T09:24:09Z</time>
      </trkpt>
      <trkpt lat="42.84071" lon="-0.17354">
        <ele>1790.5927734375</ele>
        <time>2015-07-26T09:24:14Z</time>
      </trkpt>
      <trkpt lat="42.84083" lon="-0.17352">
        <ele>1791.0734863281</ele>
        <time>2015-07-26T09:24:26Z</time>
      </trkpt>
      <trkpt lat="42.84097" lon="-0.17352">
        <ele>1792.0349121094</ele>
        <time>2015-07-26T09:24:37Z</time>
      </trkpt>
      <trkpt lat="42.84107" lon="-0.1735">
        <ele>1793.4768066406</ele>
        <time>2015-07-26T09:24:47Z</time>
      </trkpt>
      <trkpt lat="42.84119" lon="-0.17351">
        <ele>1795.8801269531</ele>
        <time>2015-07-26T09:24:59Z</time>
      </trkpt>
      <trkpt lat="42.84128" lon="-0.17349">
        <ele>1795.8801269531</ele>
        <time>2015-07-26T09:25:09Z</time>
      </trkpt>
      <trkpt lat="42.8414" lon="-0.17347">
        <ele>1793.9575195312</ele>
        <time>2015-07-26T09:25:20Z</time>
      </trkpt>
      <trkpt lat="42.84149" lon="-0.17348">
        <ele>1796.8413085938</ele>
        <time>2015-07-26T09:25:27Z</time>
      </trkpt>
      <trkpt lat="42.84163" lon="-0.17345">
        <ele>1798.7639160156</ele>
        <time>2015-07-26T09:25:40Z</time>
      </trkpt>
      <trkpt lat="42.84175" lon="-0.17341">
        <ele>1801.1672363281</ele>
        <time>2015-07-26T09:25:53Z</time>
      </trkpt>
      <trkpt lat="42.84184" lon="-0.17336">
        <ele>1804.0515136719</ele>
        <time>2015-07-26T09:26:06Z</time>
      </trkpt>
      <trkpt lat="42.84193" lon="-0.17332">
        <ele>1805.4934082031</ele>
        <time>2015-07-26T09:26:18Z</time>
      </trkpt>
      <trkpt lat="42.84205" lon="-0.1733">
        <ele>1807.416015625</ele>
        <time>2015-07-26T09:26:31Z</time>
      </trkpt>
      <trkpt lat="42.84211" lon="-0.17322">
        <ele>1809.3386230469</ele>
        <time>2015-07-26T09:26:43Z</time>
      </trkpt>
      <trkpt lat="42.84214" lon="-0.17321">
        <ele>1810.2998046875</ele>
        <time>2015-07-26T09:26:46Z</time>
      </trkpt>
      <trkpt lat="42.84222" lon="-0.17316">
        <ele>1811.7419433594</ele>
        <time>2015-07-26T09:26:57Z</time>
      </trkpt>
      <trkpt lat="42.84234" lon="-0.1731">
        <ele>1812.703125</ele>
        <time>2015-07-26T09:27:08Z</time>
      </trkpt>
      <trkpt lat="42.84237" lon="-0.17293">
        <ele>1814.6257324219</ele>
        <time>2015-07-26T09:27:23Z</time>
      </trkpt>
      <trkpt lat="42.84239" lon="-0.17285">
        <ele>1813.6643066406</ele>
        <time>2015-07-26T09:27:36Z</time>
      </trkpt>
      <trkpt lat="42.84236" lon="-0.17286">
        <ele>1814.1450195312</ele>
        <time>2015-07-26T09:28:14Z</time>
      </trkpt>
      <trkpt lat="42.84236" lon="-0.1729">
        <ele>1817.0290527344</ele>
        <time>2015-07-26T09:32:53Z</time>
      </trkpt>
      <trkpt lat="42.84235" lon="-0.17293">
        <ele>1817.5095214844</ele>
        <time>2015-07-26T09:33:12Z</time>
      </trkpt>
      <trkpt lat="42.84232" lon="-0.17296">
        <ele>1815.5871582031</ele>
        <time>2015-07-26T09:33:27Z</time>
      </trkpt>
      <trkpt lat="42.84231" lon="-0.17307">
        <ele>1813.6643066406</ele>
        <time>2015-07-26T09:33:43Z</time>
      </trkpt>
      <trkpt lat="42.84231" lon="-0.17314">
        <ele>1813.1838378906</ele>
        <time>2015-07-26T09:33:56Z</time>
      </trkpt>
      <trkpt lat="42.84233" lon="-0.17317">
        <ele>1814.1450195312</ele>
        <time>2015-07-26T09:34:14Z</time>
      </trkpt>
      <trkpt lat="42.84232" lon="-0.17327">
        <ele>1816.0676269531</ele>
        <time>2015-07-26T09:34:34Z</time>
      </trkpt>
      <trkpt lat="42.84233" lon="-0.17329">
        <ele>1817.990234375</ele>
        <time>2015-07-26T09:34:49Z</time>
      </trkpt>
      <trkpt lat="42.84246" lon="-0.1733">
        <ele>1818.9516601562</ele>
        <time>2015-07-26T09:35:05Z</time>
      </trkpt>
      <trkpt lat="42.84254" lon="-0.17329">
        <ele>1820.3937988281</ele>
        <time>2015-07-26T09:35:19Z</time>
      </trkpt>
      <trkpt lat="42.84262" lon="-0.1733">
        <ele>1822.7971191406</ele>
        <time>2015-07-26T09:35:36Z</time>
      </trkpt>
      <trkpt lat="42.84267" lon="-0.17334">
        <ele>1823.2778320312</ele>
        <time>2015-07-26T09:35:51Z</time>
      </trkpt>
      <trkpt lat="42.84271" lon="-0.17342">
        <ele>1823.2778320312</ele>
        <time>2015-07-26T09:36:10Z</time>
      </trkpt>
      <trkpt lat="42.84274" lon="-0.17346">
        <ele>1824.2390136719</ele>
        <time>2015-07-26T09:36:17Z</time>
      </trkpt>
      <trkpt lat="42.84281" lon="-0.17351">
        <ele>1826.1616210938</ele>
        <time>2015-07-26T09:36:30Z</time>
      </trkpt>
      <trkpt lat="42.84288" lon="-0.17357">
        <ele>1825.6809082031</ele>
        <time>2015-07-26T09:36:44Z</time>
      </trkpt>
      <trkpt lat="42.84298" lon="-0.17359">
        <ele>1826.6423339844</ele>
        <time>2015-07-26T09:36:55Z</time>
      </trkpt>
      <trkpt lat="42.84304" lon="-0.17354">
        <ele>1827.603515625</ele>
        <time>2015-07-26T09:37:09Z</time>
      </trkpt>
      <trkpt lat="42.84319" lon="-0.17355">
        <ele>1828.5649414062</ele>
        <time>2015-07-26T09:37:29Z</time>
      </trkpt>
      <trkpt lat="42.84329" lon="-0.17354">
        <ele>1829.0454101562</ele>
        <time>2015-07-26T09:37:44Z</time>
      </trkpt>
      <trkpt lat="42.84336" lon="-0.17349">
        <ele>1830.4875488281</ele>
        <time>2015-07-26T09:37:57Z</time>
      </trkpt>
      <trkpt lat="42.84342" lon="-0.17346">
        <ele>1831.9294433594</ele>
        <time>2015-07-26T09:38:09Z</time>
      </trkpt>
      <trkpt lat="42.84349" lon="-0.17341">
        <ele>1833.8520507812</ele>
        <time>2015-07-26T09:38:22Z</time>
      </trkpt>
      <trkpt lat="42.84354" lon="-0.17337">
        <ele>1835.7746582031</ele>
        <time>2015-07-26T09:38:39Z</time>
      </trkpt>
      <trkpt lat="42.8436" lon="-0.17334">
        <ele>1837.216796875</ele>
        <time>2015-07-26T09:38:51Z</time>
      </trkpt>
      <trkpt lat="42.84366" lon="-0.17332">
        <ele>1839.1394042969</ele>
        <time>2015-07-26T09:39:01Z</time>
      </trkpt>
      <trkpt lat="42.84376" lon="-0.1733">
        <ele>1841.5427246094</ele>
        <time>2015-07-26T09:39:16Z</time>
      </trkpt>
      <trkpt lat="42.84384" lon="-0.17329">
        <ele>1842.9846191406</ele>
        <time>2015-07-26T09:39:29Z</time>
      </trkpt>
      <trkpt lat="42.84395" lon="-0.17331">
        <ele>1845.3879394531</ele>
        <time>2015-07-26T09:39:44Z</time>
      </trkpt>
      <trkpt lat="42.84399" lon="-0.17329">
        <ele>1846.3493652344</ele>
        <time>2015-07-26T09:39:48Z</time>
      </trkpt>
      <trkpt lat="42.84405" lon="-0.17328">
        <ele>1848.7524414062</ele>
        <time>2015-07-26T09:40:03Z</time>
      </trkpt>
      <trkpt lat="42.84413" lon="-0.17326">
        <ele>1850.6750488281</ele>
        <time>2015-07-26T09:40:18Z</time>
      </trkpt>
      <trkpt lat="42.84419" lon="-0.17326">
        <ele>1853.0786132812</ele>
        <time>2015-07-26T09:40:33Z</time>
      </trkpt>
      <trkpt lat="42.84427" lon="-0.17322">
        <ele>1854.5205078125</ele>
        <time>2015-07-26T09:40:47Z</time>
      </trkpt>
      <trkpt lat="42.84432" lon="-0.17322">
        <ele>1857.4045410156</ele>
        <time>2015-07-26T09:41:02Z</time>
      </trkpt>
      <trkpt lat="42.84438" lon="-0.1732">
        <ele>1859.3271484375</ele>
        <time>2015-07-26T09:41:16Z</time>
      </trkpt>
      <trkpt lat="42.84443" lon="-0.17316">
        <ele>1861.73046875</ele>
        <time>2015-07-26T09:41:31Z</time>
      </trkpt>
      <trkpt lat="42.8445" lon="-0.17316">
        <ele>1864.1335449219</ele>
        <time>2015-07-26T09:41:43Z</time>
      </trkpt>
      <trkpt lat="42.84454" lon="-0.17314">
        <ele>1866.0561523438</ele>
        <time>2015-07-26T09:41:55Z</time>
      </trkpt>
      <trkpt lat="42.84452" lon="-0.1732">
        <ele>1866.5368652344</ele>
        <time>2015-07-26T09:42:09Z</time>
      </trkpt>
      <trkpt lat="42.84445" lon="-0.1732">
        <ele>1867.498046875</ele>
        <time>2015-07-26T09:42:23Z</time>
      </trkpt>
      <trkpt lat="42.84442" lon="-0.17328">
        <ele>1868.9404296875</ele>
        <time>2015-07-26T09:42:34Z</time>
      </trkpt>
      <trkpt lat="42.84448" lon="-0.1733">
        <ele>1870.3823242188</ele>
        <time>2015-07-26T09:42:46Z</time>
      </trkpt>
      <trkpt lat="42.84446" lon="-0.1732">
        <ele>1871.3435058594</ele>
        <time>2015-07-26T09:43:19Z</time>
      </trkpt>
      <trkpt lat="42.84446" lon="-0.17323">
        <ele>1871.82421875</ele>
        <time>2015-07-26T09:44:20Z</time>
      </trkpt>
      <trkpt lat="42.84448" lon="-0.17327">
        <ele>1873.7468261719</ele>
        <time>2015-07-26T09:44:49Z</time>
      </trkpt>
      <trkpt lat="42.84449" lon="-0.17326">
        <ele>1873.7468261719</ele>
        <time>2015-07-26T09:45:20Z</time>
      </trkpt>
      <trkpt lat="42.84451" lon="-0.17329">
        <ele>1874.2275390625</ele>
        <time>2015-07-26T09:46:37Z</time>
      </trkpt>
      <trkpt lat="42.84456" lon="-0.17332">
        <ele>1875.1887207031</ele>
        <time>2015-07-26T09:46:49Z</time>
      </trkpt>
      <trkpt lat="42.84453" lon="-0.17338">
        <ele>1878.0727539062</ele>
        <time>2015-07-26T09:47:03Z</time>
      </trkpt>
      <trkpt lat="42.84452" lon="-0.17351">
        <ele>1879.9953613281</ele>
        <time>2015-07-26T09:47:20Z</time>
      </trkpt>
      <trkpt lat="42.84446" lon="-0.17364">
        <ele>1883.3598632812</ele>
        <time>2015-07-26T09:47:36Z</time>
      </trkpt>
      <trkpt lat="42.84442" lon="-0.17371">
        <ele>1884.3215332031</ele>
        <time>2015-07-26T09:47:51Z</time>
      </trkpt>
      <trkpt lat="42.8444" lon="-0.17376">
        <ele>1885.7634277344</ele>
        <time>2015-07-26T09:48:02Z</time>
      </trkpt>
      <trkpt lat="42.84438" lon="-0.17386">
        <ele>1887.2053222656</ele>
        <time>2015-07-26T09:48:16Z</time>
      </trkpt>
      <trkpt lat="42.84438" lon="-0.17394">
        <ele>1890.0893554688</ele>
        <time>2015-07-26T09:48:33Z</time>
      </trkpt>
      <trkpt lat="42.84442" lon="-0.17391">
        <ele>1890.5698242188</ele>
        <time>2015-07-26T09:48:45Z</time>
      </trkpt>
      <trkpt lat="42.84449" lon="-0.17386">
        <ele>1892.4926757812</ele>
        <time>2015-07-26T09:49:01Z</time>
      </trkpt>
      <trkpt lat="42.84455" lon="-0.17382">
        <ele>1892.4926757812</ele>
        <time>2015-07-26T09:49:13Z</time>
      </trkpt>
      <trkpt lat="42.8446" lon="-0.1738">
        <ele>1895.3764648438</ele>
        <time>2015-07-26T09:49:27Z</time>
      </trkpt>
      <trkpt lat="42.84459" lon="-0.17387">
        <ele>1897.7797851562</ele>
        <time>2015-07-26T09:49:43Z</time>
      </trkpt>
      <trkpt lat="42.84455" lon="-0.17392">
        <ele>1898.2602539062</ele>
        <time>2015-07-26T09:50:00Z</time>
      </trkpt>
      <trkpt lat="42.84451" lon="-0.17403">
        <ele>1899.7023925781</ele>
        <time>2015-07-26T09:50:15Z</time>
      </trkpt>
      <trkpt lat="42.84446" lon="-0.17412">
        <ele>1900.1833496094</ele>
        <time>2015-07-26T09:50:30Z</time>
      </trkpt>
      <trkpt lat="42.84442" lon="-0.17421">
        <ele>1902.5864257812</ele>
        <time>2015-07-26T09:50:46Z</time>
      </trkpt>
      <trkpt lat="42.84439" lon="-0.17426">
        <ele>1902.1057128906</ele>
        <time>2015-07-26T09:51:03Z</time>
      </trkpt>
      <trkpt lat="42.84433" lon="-0.17426">
        <ele>1903.5478515625</ele>
        <time>2015-07-26T09:51:16Z</time>
      </trkpt>
      <trkpt lat="42.84427" lon="-0.17421">
        <ele>1903.5478515625</ele>
        <time>2015-07-26T09:51:30Z</time>
      </trkpt>
      <trkpt lat="42.84425" lon="-0.17418">
        <ele>1905.9509277344</ele>
        <time>2015-07-26T09:51:35Z</time>
      </trkpt>
      <trkpt lat="42.84422" lon="-0.17419">
        <ele>1906.9123535156</ele>
        <time>2015-07-26T09:51:52Z</time>
      </trkpt>
      <trkpt lat="42.84418" lon="-0.17423">
        <ele>1907.3930664062</ele>
        <time>2015-07-26T09:52:15Z</time>
      </trkpt>
      <trkpt lat="42.84412" lon="-0.1743">
        <ele>1909.3156738281</ele>
        <time>2015-07-26T09:52:32Z</time>
      </trkpt>
      <trkpt lat="42.8441" lon="-0.17414">
        <ele>1909.7961425781</ele>
        <time>2015-07-26T09:52:47Z</time>
      </trkpt>
      <trkpt lat="42.84409" lon="-0.17412">
        <ele>1910.2768554688</ele>
        <time>2015-07-26T09:53:07Z</time>
      </trkpt>
      <trkpt lat="42.84406" lon="-0.17411">
        <ele>1911.23828125</ele>
        <time>2015-07-26T09:53:22Z</time>
      </trkpt>
      <trkpt lat="42.84409" lon="-0.17424">
        <ele>1910.2768554688</ele>
        <time>2015-07-26T09:53:38Z</time>
      </trkpt>
      <trkpt lat="42.8441" lon="-0.17428">
        <ele>1909.7961425781</ele>
        <time>2015-07-26T09:53:57Z</time>
      </trkpt>
      <trkpt lat="42.84408" lon="-0.17432">
        <ele>1910.2768554688</ele>
        <time>2015-07-26T09:54:39Z</time>
      </trkpt>
      <trkpt lat="42.84408" lon="-0.17445">
        <ele>1909.7961425781</ele>
        <time>2015-07-26T09:54:55Z</time>
      </trkpt>
      <trkpt lat="42.84399" lon="-0.17455">
        <ele>1911.7189941406</ele>
        <time>2015-07-26T09:55:10Z</time>
      </trkpt>
      <trkpt lat="42.84397" lon="-0.17468">
        <ele>1912.6801757812</ele>
        <time>2015-07-26T09:55:28Z</time>
      </trkpt>
      <trkpt lat="42.84394" lon="-0.17476">
        <ele>1915.5642089844</ele>
        <time>2015-07-26T09:55:42Z</time>
      </trkpt>
      <trkpt lat="42.84393" lon="-0.17484">
        <ele>1917.9675292969</ele>
        <time>2015-07-26T09:55:57Z</time>
      </trkpt>
      <trkpt lat="42.84392" lon="-0.17494">
        <ele>1919.8901367188</ele>
        <time>2015-07-26T09:56:10Z</time>
      </trkpt>
      <trkpt lat="42.84396" lon="-0.17495">
        <ele>1922.7741699219</ele>
        <time>2015-07-26T09:56:24Z</time>
      </trkpt>
      <trkpt lat="42.844" lon="-0.17489">
        <ele>1924.2160644531</ele>
        <time>2015-07-26T09:56:36Z</time>
      </trkpt>
      <trkpt lat="42.84406" lon="-0.17484">
        <ele>1927.1000976562</ele>
        <time>2015-07-26T09:56:50Z</time>
      </trkpt>
      <trkpt lat="42.84407" lon="-0.17495">
        <ele>1929.5031738281</ele>
        <time>2015-07-26T09:57:06Z</time>
      </trkpt>
      <trkpt lat="42.84405" lon="-0.17507">
        <ele>1931.42578125</ele>
        <time>2015-07-26T09:57:21Z</time>
      </trkpt>
      <trkpt lat="42.84403" lon="-0.17521">
        <ele>1933.8293457031</ele>
        <time>2015-07-26T09:57:38Z</time>
      </trkpt>
      <trkpt lat="42.84401" lon="-0.17532">
        <ele>1934.3100585938</ele>
        <time>2015-07-26T09:57:51Z</time>
      </trkpt>
      <trkpt lat="42.84398" lon="-0.17544">
        <ele>1936.7131347656</ele>
        <time>2015-07-26T09:58:07Z</time>
      </trkpt>
      <trkpt lat="42.84396" lon="-0.17553">
        <ele>1938.1552734375</ele>
        <time>2015-07-26T09:58:20Z</time>
      </trkpt>
      <trkpt lat="42.84394" lon="-0.17564">
        <ele>1941.5197753906</ele>
        <time>2015-07-26T09:58:35Z</time>
      </trkpt>
      <trkpt lat="42.84389" lon="-0.17577">
        <ele>1942.0004882812</ele>
        <time>2015-07-26T09:58:49Z</time>
      </trkpt>
      <trkpt lat="42.84386" lon="-0.17593">
        <ele>1942.4812011719</ele>
        <time>2015-07-26T09:59:06Z</time>
      </trkpt>
      <trkpt lat="42.84385" lon="-0.17602">
        <ele>1942.4812011719</ele>
        <time>2015-07-26T09:59:22Z</time>
      </trkpt>
      <trkpt lat="42.84384" lon="-0.1761">
        <ele>1944.4035644531</ele>
        <time>2015-07-26T09:59:36Z</time>
      </trkpt>
      <trkpt lat="42.84382" lon="-0.17616">
        <ele>1945.3649902344</ele>
        <time>2015-07-26T09:59:50Z</time>
      </trkpt>
      <trkpt lat="42.84381" lon="-0.17621">
        <ele>1945.845703125</ele>
        <time>2015-07-26T10:00:04Z</time>
      </trkpt>
      <trkpt lat="42.84377" lon="-0.1763">
        <ele>1946.8068847656</ele>
        <time>2015-07-26T10:00:21Z</time>
      </trkpt>
      <trkpt lat="42.84375" lon="-0.17636">
        <ele>1949.2104492188</ele>
        <time>2015-07-26T10:00:32Z</time>
      </trkpt>
      <trkpt lat="42.84373" lon="-0.17648">
        <ele>1950.65234375</ele>
        <time>2015-07-26T10:00:46Z</time>
      </trkpt>
      <trkpt lat="42.84373" lon="-0.17657">
        <ele>1950.65234375</ele>
        <time>2015-07-26T10:00:59Z</time>
      </trkpt>
      <trkpt lat="42.84372" lon="-0.17658">
        <ele>1951.1330566406</ele>
        <time>2015-07-26T10:01:00Z</time>
      </trkpt>
      <trkpt lat="42.84367" lon="-0.17674">
        <ele>1952.0942382812</ele>
        <time>2015-07-26T10:01:17Z</time>
      </trkpt>
      <trkpt lat="42.84363" lon="-0.17684">
        <ele>1953.0556640625</ele>
        <time>2015-07-26T10:01:28Z</time>
      </trkpt>
      <trkpt lat="42.84357" lon="-0.17693">
        <ele>1954.0170898438</ele>
        <time>2015-07-26T10:01:43Z</time>
      </trkpt>
      <trkpt lat="42.84349" lon="-0.17701">
        <ele>1954.4975585938</ele>
        <time>2015-07-26T10:01:56Z</time>
      </trkpt>
      <trkpt lat="42.84343" lon="-0.17703">
        <ele>1955.939453125</ele>
        <time>2015-07-26T10:02:10Z</time>
      </trkpt>
      <trkpt lat="42.84338" lon="-0.1771">
        <ele>1955.939453125</ele>
        <time>2015-07-26T10:02:24Z</time>
      </trkpt>
      <trkpt lat="42.84337" lon="-0.17713">
        <ele>1956.9008789062</ele>
        <time>2015-07-26T10:02:27Z</time>
      </trkpt>
      <trkpt lat="42.84332" lon="-0.17732">
        <ele>1957.8623046875</ele>
        <time>2015-07-26T10:02:44Z</time>
      </trkpt>
      <trkpt lat="42.8433" lon="-0.17737">
        <ele>1958.8234863281</ele>
        <time>2015-07-26T10:02:51Z</time>
      </trkpt>
      <trkpt lat="42.8433" lon="-0.17755">
        <ele>1959.3041992188</ele>
        <time>2015-07-26T10:03:08Z</time>
      </trkpt>
      <trkpt lat="42.84331" lon="-0.17766">
        <ele>1961.2268066406</ele>
        <time>2015-07-26T10:03:24Z</time>
      </trkpt>
      <trkpt lat="42.84332" lon="-0.17776">
        <ele>1962.1879882812</ele>
        <time>2015-07-26T10:03:36Z</time>
      </trkpt>
      <trkpt lat="42.84333" lon="-0.17786">
        <ele>1964.5915527344</ele>
        <time>2015-07-26T10:03:48Z</time>
      </trkpt>
      <trkpt lat="42.84333" lon="-0.17795">
        <ele>1965.5529785156</ele>
        <time>2015-07-26T10:04:00Z</time>
      </trkpt>
      <trkpt lat="42.84331" lon="-0.17807">
        <ele>1966.9948730469</ele>
        <time>2015-07-26T10:04:15Z</time>
      </trkpt>
      <trkpt lat="42.84331" lon="-0.17817">
        <ele>1968.9174804688</ele>
        <time>2015-07-26T10:04:31Z</time>
      </trkpt>
      <trkpt lat="42.84332" lon="-0.17825">
        <ele>1970.359375</ele>
        <time>2015-07-26T10:04:43Z</time>
      </trkpt>
      <trkpt lat="42.84327" lon="-0.17836">
        <ele>1971.8012695312</ele>
        <time>2015-07-26T10:04:57Z</time>
      </trkpt>
      <trkpt lat="42.84325" lon="-0.17847">
        <ele>1972.2819824219</ele>
        <time>2015-07-26T10:05:10Z</time>
      </trkpt>
      <trkpt lat="42.84323" lon="-0.17861">
        <ele>1973.2434082031</ele>
        <time>2015-07-26T10:05:25Z</time>
      </trkpt>
      <trkpt lat="42.84319" lon="-0.17872">
        <ele>1973.7238769531</ele>
        <time>2015-07-26T10:05:41Z</time>
      </trkpt>
      <trkpt lat="42.84318" lon="-0.17881">
        <ele>1974.6853027344</ele>
        <time>2015-07-26T10:05:54Z</time>
      </trkpt>
      <trkpt lat="42.84317" lon="-0.17889">
        <ele>1976.1271972656</ele>
        <time>2015-07-26T10:06:06Z</time>
      </trkpt>
      <trkpt lat="42.84316" lon="-0.17897">
        <ele>1977.0886230469</ele>
        <time>2015-07-26T10:06:20Z</time>
      </trkpt>
      <trkpt lat="42.84316" lon="-0.17911">
        <ele>1979.4916992188</ele>
        <time>2015-07-26T10:06:35Z</time>
      </trkpt>
      <trkpt lat="42.84316" lon="-0.17917">
        <ele>1979.9724121094</ele>
        <time>2015-07-26T10:06:47Z</time>
      </trkpt>
      <trkpt lat="42.84317" lon="-0.17929">
        <ele>1981.4145507812</ele>
        <time>2015-07-26T10:07:04Z</time>
      </trkpt>
      <trkpt lat="42.84314" lon="-0.17937">
        <ele>1980.4533691406</ele>
        <time>2015-07-26T10:07:15Z</time>
      </trkpt>
      <trkpt lat="42.84309" lon="-0.17946">
        <ele>1981.8952636719</ele>
        <time>2015-07-26T10:07:29Z</time>
      </trkpt>
      <trkpt lat="42.84305" lon="-0.17956">
        <ele>1982.8564453125</ele>
        <time>2015-07-26T10:07:43Z</time>
      </trkpt>
      <trkpt lat="42.84299" lon="-0.17963">
        <ele>1982.8564453125</ele>
        <time>2015-07-26T10:07:57Z</time>
      </trkpt>
      <trkpt lat="42.84295" lon="-0.17971">
        <ele>1984.779296875</ele>
        <time>2015-07-26T10:08:13Z</time>
      </trkpt>
      <trkpt lat="42.84291" lon="-0.17974">
        <ele>1986.2211914062</ele>
        <time>2015-07-26T10:08:23Z</time>
      </trkpt>
      <trkpt lat="42.84286" lon="-0.1798">
        <ele>1987.1823730469</ele>
        <time>2015-07-26T10:08:36Z</time>
      </trkpt>
      <trkpt lat="42.8428" lon="-0.17985">
        <ele>1988.6245117188</ele>
        <time>2015-07-26T10:08:50Z</time>
      </trkpt>
      <trkpt lat="42.84274" lon="-0.17988">
        <ele>1990.06640625</ele>
        <time>2015-07-26T10:09:00Z</time>
      </trkpt>
      <trkpt lat="42.84267" lon="-0.1799">
        <ele>1991.0275878906</ele>
        <time>2015-07-26T10:09:13Z</time>
      </trkpt>
      <trkpt lat="42.8426" lon="-0.17996">
        <ele>1993.9116210938</ele>
        <time>2015-07-26T10:09:30Z</time>
      </trkpt>
      <trkpt lat="42.84257" lon="-0.18">
        <ele>1994.8728027344</ele>
        <time>2015-07-26T10:09:44Z</time>
      </trkpt>
      <trkpt lat="42.8426" lon="-0.18006">
        <ele>1997.2763671875</ele>
        <time>2015-07-26T10:09:58Z</time>
      </trkpt>
      <trkpt lat="42.84263" lon="-0.18013">
        <ele>1997.7570800781</ele>
        <time>2015-07-26T10:10:40Z</time>
      </trkpt>
      <trkpt lat="42.84267" lon="-0.18016">
        <ele>1998.2375488281</ele>
        <time>2015-07-26T10:10:59Z</time>
      </trkpt>
      <trkpt lat="42.84265" lon="-0.1802">
        <ele>2001.1215820312</ele>
        <time>2015-07-26T10:11:12Z</time>
      </trkpt>
      <trkpt lat="42.84262" lon="-0.18032">
        <ele>2004.0056152344</ele>
        <time>2015-07-26T10:11:29Z</time>
      </trkpt>
      <trkpt lat="42.84256" lon="-0.18041">
        <ele>2005.4475097656</ele>
        <time>2015-07-26T10:11:45Z</time>
      </trkpt>
      <trkpt lat="42.84245" lon="-0.18041">
        <ele>2004.966796875</ele>
        <time>2015-07-26T10:12:02Z</time>
      </trkpt>
      <trkpt lat="42.84235" lon="-0.18038">
        <ele>2008.3312988281</ele>
        <time>2015-07-26T10:12:19Z</time>
      </trkpt>
      <trkpt lat="42.84227" lon="-0.18035">
        <ele>2009.2927246094</ele>
        <time>2015-07-26T10:12:33Z</time>
      </trkpt>
      <trkpt lat="42.84221" lon="-0.18034">
        <ele>2011.2153320312</ele>
        <time>2015-07-26T10:12:47Z</time>
      </trkpt>
      <trkpt lat="42.84217" lon="-0.18027">
        <ele>2012.6574707031</ele>
        <time>2015-07-26T10:13:01Z</time>
      </trkpt>
      <trkpt lat="42.84212" lon="-0.18024">
        <ele>2014.580078125</ele>
        <time>2015-07-26T10:13:17Z</time>
      </trkpt>
      <trkpt lat="42.84206" lon="-0.18019">
        <ele>2016.5026855469</ele>
        <time>2015-07-26T10:13:30Z</time>
      </trkpt>
      <trkpt lat="42.84202" lon="-0.18011">
        <ele>2018.9060058594</ele>
        <time>2015-07-26T10:13:44Z</time>
      </trkpt>
      <trkpt lat="42.84199" lon="-0.18004">
        <ele>2020.8286132812</ele>
        <time>2015-07-26T10:13:58Z</time>
      </trkpt>
      <trkpt lat="42.84195" lon="-0.17998">
        <ele>2021.7897949219</ele>
        <time>2015-07-26T10:14:11Z</time>
      </trkpt>
      <trkpt lat="42.84191" lon="-0.17993">
        <ele>2025.154296875</ele>
        <time>2015-07-26T10:14:25Z</time>
      </trkpt>
      <trkpt lat="42.84189" lon="-0.17987">
        <ele>2026.1157226562</ele>
        <time>2015-07-26T10:14:42Z</time>
      </trkpt>
      <trkpt lat="42.84188" lon="-0.17979">
        <ele>2028.0385742188</ele>
        <time>2015-07-26T10:14:58Z</time>
      </trkpt>
      <trkpt lat="42.84184" lon="-0.17975">
        <ele>2028.9997558594</ele>
        <time>2015-07-26T10:15:12Z</time>
      </trkpt>
      <trkpt lat="42.8418" lon="-0.17971">
        <ele>2030.4418945312</ele>
        <time>2015-07-26T10:15:25Z</time>
      </trkpt>
      <trkpt lat="42.84175" lon="-0.17974">
        <ele>2031.4030761719</ele>
        <time>2015-07-26T10:15:41Z</time>
      </trkpt>
      <trkpt lat="42.84171" lon="-0.17979">
        <ele>2033.8063964844</ele>
        <time>2015-07-26T10:15:56Z</time>
      </trkpt>
      <trkpt lat="42.84169" lon="-0.17979">
        <ele>2036.2097167969</ele>
        <time>2015-07-26T10:16:02Z</time>
      </trkpt>
      <trkpt lat="42.84168" lon="-0.1797">
        <ele>2038.6130371094</ele>
        <time>2015-07-26T10:16:18Z</time>
      </trkpt>
      <trkpt lat="42.84173" lon="-0.17963">
        <ele>2038.6130371094</ele>
        <time>2015-07-26T10:16:31Z</time>
      </trkpt>
      <trkpt lat="42.84177" lon="-0.17956">
        <ele>2039.57421875</ele>
        <time>2015-07-26T10:16:48Z</time>
      </trkpt>
      <trkpt lat="42.84176" lon="-0.17954">
        <ele>2040.0549316406</ele>
        <time>2015-07-26T10:17:02Z</time>
      </trkpt>
      <trkpt lat="42.84172" lon="-0.17944">
        <ele>2041.4968261719</ele>
        <time>2015-07-26T10:17:18Z</time>
      </trkpt>
      <trkpt lat="42.84168" lon="-0.17951">
        <ele>2043.4194335938</ele>
        <time>2015-07-26T10:17:32Z</time>
      </trkpt>
      <trkpt lat="42.84164" lon="-0.17955">
        <ele>2045.3422851562</ele>
        <time>2015-07-26T10:17:44Z</time>
      </trkpt>
      <trkpt lat="42.84162" lon="-0.17956">
        <ele>2047.2648925781</ele>
        <time>2015-07-26T10:17:56Z</time>
      </trkpt>
      <trkpt lat="42.84159" lon="-0.1795">
        <ele>2049.1875</ele>
        <time>2015-07-26T10:18:10Z</time>
      </trkpt>
      <trkpt lat="42.84152" lon="-0.17954">
        <ele>2052.0712890625</ele>
        <time>2015-07-26T10:18:24Z</time>
      </trkpt>
      <trkpt lat="42.84147" lon="-0.17957">
        <ele>2053.0327148438</ele>
        <time>2015-07-26T10:18:42Z</time>
      </trkpt>
      <trkpt lat="42.84144" lon="-0.17967">
        <ele>2054.474609375</ele>
        <time>2015-07-26T10:18:56Z</time>
      </trkpt>
      <trkpt lat="42.84139" lon="-0.17976">
        <ele>2055.9165039062</ele>
        <time>2015-07-26T10:19:09Z</time>
      </trkpt>
      <trkpt lat="42.84136" lon="-0.17984">
        <ele>2058.3198242188</ele>
        <time>2015-07-26T10:19:20Z</time>
      </trkpt>
      <trkpt lat="42.84132" lon="-0.17994">
        <ele>2058.8005371094</ele>
        <time>2015-07-26T10:19:29Z</time>
      </trkpt>
      <trkpt lat="42.8412" lon="-0.18003">
        <ele>2059.28125</ele>
        <time>2015-07-26T10:19:47Z</time>
      </trkpt>
      <trkpt lat="42.84112" lon="-0.17994">
        <ele>2061.2041015625</ele>
        <time>2015-07-26T10:20:02Z</time>
      </trkpt>
      <trkpt lat="42.84106" lon="-0.17996">
        <ele>2061.2041015625</ele>
        <time>2015-07-26T10:20:15Z</time>
      </trkpt>
      <trkpt lat="42.84111" lon="-0.17996">
        <ele>2061.2041015625</ele>
        <time>2015-07-26T10:20:36Z</time>
      </trkpt>
      <trkpt lat="42.84118" lon="-0.18001">
        <ele>2060.7233886719</ele>
        <time>2015-07-26T10:20:49Z</time>
      </trkpt>
      <trkpt lat="42.84118" lon="-0.18002">
        <ele>2060.2426757812</ele>
        <time>2015-07-26T10:20:50Z</time>
      </trkpt>
      <trkpt lat="42.84119" lon="-0.18011">
        <ele>2060.7233886719</ele>
        <time>2015-07-26T10:21:06Z</time>
      </trkpt>
      <trkpt lat="42.84119" lon="-0.18015">
        <ele>2060.7233886719</ele>
        <time>2015-07-26T10:21:10Z</time>
      </trkpt>
      <trkpt lat="42.84122" lon="-0.18036">
        <ele>2060.7233886719</ele>
        <time>2015-07-26T10:21:26Z</time>
      </trkpt>
      <trkpt lat="42.84122" lon="-0.18039">
        <ele>2060.2426757812</ele>
        <time>2015-07-26T10:21:28Z</time>
      </trkpt>
      <trkpt lat="42.8412" lon="-0.18044">
        <ele>2060.7233886719</ele>
        <time>2015-07-26T10:21:33Z</time>
      </trkpt>
      <trkpt lat="42.84113" lon="-0.18048">
        <ele>2061.6848144531</ele>
        <time>2015-07-26T10:21:44Z</time>
      </trkpt>
      <trkpt lat="42.84103" lon="-0.1806">
        <ele>2061.6848144531</ele>
        <time>2015-07-26T10:22:00Z</time>
      </trkpt>
      <trkpt lat="42.84097" lon="-0.18076">
        <ele>2062.6459960938</ele>
        <time>2015-07-26T10:22:15Z</time>
      </trkpt>
      <trkpt lat="42.84094" lon="-0.18081">
        <ele>2063.1267089844</ele>
        <time>2015-07-26T10:22:21Z</time>
      </trkpt>
      <trkpt lat="42.84095" lon="-0.18086">
        <ele>2063.1267089844</ele>
        <time>2015-07-26T10:22:26Z</time>
      </trkpt>
      <trkpt lat="42.84092" lon="-0.18094">
        <ele>2064.087890625</ele>
        <time>2015-07-26T10:22:41Z</time>
      </trkpt>
      <trkpt lat="42.84091" lon="-0.18106">
        <ele>2063.6071777344</ele>
        <time>2015-07-26T10:22:56Z</time>
      </trkpt>
      <trkpt lat="42.84092" lon="-0.18118">
        <ele>2063.6071777344</ele>
        <time>2015-07-26T10:23:11Z</time>
      </trkpt>
      <trkpt lat="42.84093" lon="-0.18132">
        <ele>2064.087890625</ele>
        <time>2015-07-26T10:23:25Z</time>
      </trkpt>
      <trkpt lat="42.84095" lon="-0.18152">
        <ele>2064.5686035156</ele>
        <time>2015-07-26T10:23:41Z</time>
      </trkpt>
      <trkpt lat="42.84095" lon="-0.18169">
        <ele>2065.0493164062</ele>
        <time>2015-07-26T10:23:55Z</time>
      </trkpt>
      <trkpt lat="42.84096" lon="-0.1817">
        <ele>2066.4912109375</ele>
        <time>2015-07-26T10:23:58Z</time>
      </trkpt>
      <trkpt lat="42.84096" lon="-0.18181">
        <ele>2068.89453125</ele>
        <time>2015-07-26T10:24:14Z</time>
      </trkpt>
      <trkpt lat="42.84096" lon="-0.18191">
        <ele>2071.2976074219</ele>
        <time>2015-07-26T10:24:32Z</time>
      </trkpt>
      <trkpt lat="42.841" lon="-0.18205">
        <ele>2072.2590332031</ele>
        <time>2015-07-26T10:24:48Z</time>
      </trkpt>
      <trkpt lat="42.84101" lon="-0.18221">
        <ele>2071.2976074219</ele>
        <time>2015-07-26T10:25:03Z</time>
      </trkpt>
      <trkpt lat="42.84103" lon="-0.18245">
        <ele>2072.2590332031</ele>
        <time>2015-07-26T10:25:21Z</time>
      </trkpt>
      <trkpt lat="42.84103" lon="-0.18267">
        <ele>2072.2590332031</ele>
        <time>2015-07-26T10:25:39Z</time>
      </trkpt>
      <trkpt lat="42.84099" lon="-0.18288">
        <ele>2073.2204589844</ele>
        <time>2015-07-26T10:25:56Z</time>
      </trkpt>
      <trkpt lat="42.84092" lon="-0.18303">
        <ele>2073.7009277344</ele>
        <time>2015-07-26T10:26:13Z</time>
      </trkpt>
      <trkpt lat="42.84091" lon="-0.18304">
        <ele>2073.2204589844</ele>
        <time>2015-07-26T10:26:27Z</time>
      </trkpt>
      <trkpt lat="42.84095" lon="-0.18306">
        <ele>2073.2204589844</ele>
        <time>2015-07-26T10:26:32Z</time>
      </trkpt>
      <trkpt lat="42.84099" lon="-0.18322">
        <ele>2073.7009277344</ele>
        <time>2015-07-26T10:26:48Z</time>
      </trkpt>
      <trkpt lat="42.84101" lon="-0.1833">
        <ele>2073.7009277344</ele>
        <time>2015-07-26T10:27:05Z</time>
      </trkpt>
      <trkpt lat="42.84102" lon="-0.18333">
        <ele>2073.2204589844</ele>
        <time>2015-07-26T10:27:20Z</time>
      </trkpt>
      <trkpt lat="42.84104" lon="-0.18334">
        <ele>2072.2590332031</ele>
        <time>2015-07-26T10:27:42Z</time>
      </trkpt>
      <trkpt lat="42.84104" lon="-0.18334">
        <ele>2071.7783203125</ele>
        <time>2015-07-26T10:27:43Z</time>
      </trkpt>
      <trkpt lat="42.84103" lon="-0.18336">
        <ele>2075.1428222656</ele>
        <time>2015-07-26T10:28:41Z</time>
      </trkpt>
      <trkpt lat="42.84103" lon="-0.18336">
        <ele>2071.2976074219</ele>
        <time>2015-07-26T10:28:42Z</time>
      </trkpt>
      <trkpt lat="42.84103" lon="-0.18335">
        <ele>2075.1428222656</ele>
        <time>2015-07-26T10:28:46Z</time>
      </trkpt>
      <trkpt lat="42.84103" lon="-0.18335">
        <ele>2072.2590332031</ele>
        <time>2015-07-26T10:28:47Z</time>
      </trkpt>
      <trkpt lat="42.84103" lon="-0.18336">
        <ele>2073.7009277344</ele>
        <time>2015-07-26T10:28:51Z</time>
      </trkpt>
      <trkpt lat="42.84103" lon="-0.18336">
        <ele>2070.3364257812</ele>
        <time>2015-07-26T10:28:52Z</time>
      </trkpt>
      <trkpt lat="42.84103" lon="-0.18336">
        <ele>2071.7783203125</ele>
        <time>2015-07-26T10:28:53Z</time>
      </trkpt>
      <trkpt lat="42.84103" lon="-0.18342">
        <ele>2075.1428222656</ele>
        <time>2015-07-26T10:29:23Z</time>
      </trkpt>
      <trkpt lat="42.84103" lon="-0.1834">
        <ele>2072.2590332031</ele>
        <time>2015-07-26T10:29:24Z</time>
      </trkpt>
      <trkpt lat="42.84104" lon="-0.18333">
        <ele>2076.1044921875</ele>
        <time>2015-07-26T10:29:45Z</time>
      </trkpt>
      <trkpt lat="42.84104" lon="-0.18332">
        <ele>2073.2204589844</ele>
        <time>2015-07-26T10:30:01Z</time>
      </trkpt>
      <trkpt lat="42.84102" lon="-0.1833">
        <ele>2074.181640625</ele>
        <time>2015-07-26T10:31:52Z</time>
      </trkpt>
      <trkpt lat="42.84102" lon="-0.18332">
        <ele>2076.5852050781</ele>
        <time>2015-07-26T10:34:15Z</time>
      </trkpt>
      <trkpt lat="42.84102" lon="-0.18335">
        <ele>2077.0659179688</ele>
        <time>2015-07-26T10:35:14Z</time>
      </trkpt>
      <trkpt lat="42.84102" lon="-0.18334">
        <ele>2065.5300292969</ele>
        <time>2015-07-26T10:35:17Z</time>
      </trkpt>
      <trkpt lat="42.84102" lon="-0.18335">
        <ele>2075.1428222656</ele>
        <time>2015-07-26T10:35:18Z</time>
      </trkpt>
      <trkpt lat="42.84102" lon="-0.18335">
        <ele>2076.1044921875</ele>
        <time>2015-07-26T10:35:20Z</time>
      </trkpt>
      <trkpt lat="42.84102" lon="-0.18336">
        <ele>2081.8723144531</ele>
        <time>2015-07-26T10:35:26Z</time>
      </trkpt>
      <trkpt lat="42.84103" lon="-0.18336">
        <ele>2079.4689941406</ele>
        <time>2015-07-26T10:35:27Z</time>
      </trkpt>
      <trkpt lat="42.84102" lon="-0.18337">
        <ele>2076.1044921875</ele>
        <time>2015-07-26T10:35:30Z</time>
      </trkpt>
      <trkpt lat="42.84102" lon="-0.18337">
        <ele>2076.1044921875</ele>
        <time>2015-07-26T10:35:31Z</time>
      </trkpt>
      <trkpt lat="42.84103" lon="-0.18331">
        <ele>2076.5852050781</ele>
        <time>2015-07-26T10:37:49Z</time>
      </trkpt>
      <trkpt lat="42.84104" lon="-0.18328">
        <ele>2078.0270996094</ele>
        <time>2015-07-26T10:44:06Z</time>
      </trkpt>
      <trkpt lat="42.84103" lon="-0.18334">
        <ele>2081.3916015625</ele>
        <time>2015-07-26T10:46:32Z</time>
      </trkpt>
      <trkpt lat="42.84104" lon="-0.18325">
        <ele>2081.3916015625</ele>
        <time>2015-07-26T10:47:06Z</time>
      </trkpt>
      <trkpt lat="42.84102" lon="-0.18333">
        <ele>2080.4304199219</ele>
        <time>2015-07-26T10:47:58Z</time>
      </trkpt>
      <trkpt lat="42.84103" lon="-0.18331">
        <ele>2080.4304199219</ele>
        <time>2015-07-26T10:48:32Z</time>
      </trkpt>
      <trkpt lat="42.84103" lon="-0.18335">
        <ele>2079.9497070312</ele>
        <time>2015-07-26T10:49:15Z</time>
      </trkpt>
      <trkpt lat="42.84102" lon="-0.18338">
        <ele>2080.9111328125</ele>
        <time>2015-07-26T10:49:53Z</time>
      </trkpt>
      <trkpt lat="42.84103" lon="-0.18338">
        <ele>2081.3916015625</ele>
        <time>2015-07-26T10:50:22Z</time>
      </trkpt>
      <trkpt lat="42.84103" lon="-0.18335">
        <ele>2080.9111328125</ele>
        <time>2015-07-26T10:50:57Z</time>
      </trkpt>
      <trkpt lat="42.84102" lon="-0.18337">
        <ele>2080.4304199219</ele>
        <time>2015-07-26T10:51:32Z</time>
      </trkpt>
      <trkpt lat="42.84103" lon="-0.18333">
        <ele>2080.9111328125</ele>
        <time>2015-07-26T10:52:29Z</time>
      </trkpt>
      <trkpt lat="42.84102" lon="-0.18333">
        <ele>2081.8723144531</ele>
        <time>2015-07-26T10:54:01Z</time>
      </trkpt>
      <trkpt lat="42.84107" lon="-0.18335">
        <ele>2081.8723144531</ele>
        <time>2015-07-26T10:54:36Z</time>
      </trkpt>
      <trkpt lat="42.84103" lon="-0.18335">
        <ele>2082.8334960938</ele>
        <time>2015-07-26T10:55:05Z</time>
      </trkpt>
      <trkpt lat="42.84105" lon="-0.18332">
        <ele>2082.8334960938</ele>
        <time>2015-07-26T10:55:24Z</time>
      </trkpt>
      <trkpt lat="42.841" lon="-0.18325">
        <ele>2082.8334960938</ele>
        <time>2015-07-26T10:55:40Z</time>
      </trkpt>
      <trkpt lat="42.84097" lon="-0.18327">
        <ele>2082.8334960938</ele>
        <time>2015-07-26T10:55:55Z</time>
      </trkpt>
      <trkpt lat="42.84111" lon="-0.18327">
        <ele>2083.3142089844</ele>
        <time>2015-07-26T10:56:45Z</time>
      </trkpt>
      <trkpt lat="42.84112" lon="-0.18335">
        <ele>2083.3142089844</ele>
        <time>2015-07-26T10:57:13Z</time>
      </trkpt>
      <trkpt lat="42.8411" lon="-0.18331">
        <ele>2083.794921875</ele>
        <time>2015-07-26T10:57:29Z</time>
      </trkpt>
      <trkpt lat="42.84111" lon="-0.18328">
        <ele>2083.794921875</ele>
        <time>2015-07-26T10:57:33Z</time>
      </trkpt>
      <trkpt lat="42.84114" lon="-0.18328">
        <ele>2083.3142089844</ele>
        <time>2015-07-26T10:57:47Z</time>
      </trkpt>
      <trkpt lat="42.84116" lon="-0.1833">
        <ele>2083.3142089844</ele>
        <time>2015-07-26T10:58:03Z</time>
      </trkpt>
      <trkpt lat="42.84108" lon="-0.18329">
        <ele>2083.794921875</ele>
        <time>2015-07-26T10:58:16Z</time>
      </trkpt>
      <trkpt lat="42.84115" lon="-0.18328">
        <ele>2083.3142089844</ele>
        <time>2015-07-26T10:58:33Z</time>
      </trkpt>
      <trkpt lat="42.84101" lon="-0.18323">
        <ele>2083.794921875</ele>
        <time>2015-07-26T10:58:58Z</time>
      </trkpt>
      <trkpt lat="42.84098" lon="-0.18322">
        <ele>2083.794921875</ele>
        <time>2015-07-26T10:59:15Z</time>
      </trkpt>
      <trkpt lat="42.84112" lon="-0.18329">
        <ele>2083.3142089844</ele>
        <time>2015-07-26T10:59:55Z</time>
      </trkpt>
      <trkpt lat="42.8412" lon="-0.18325">
        <ele>2083.794921875</ele>
        <time>2015-07-26T11:00:36Z</time>
      </trkpt>
      <trkpt lat="42.84108" lon="-0.18331">
        <ele>2083.3142089844</ele>
        <time>2015-07-26T11:01:06Z</time>
      </trkpt>
      <trkpt lat="42.84096" lon="-0.18323">
        <ele>2083.794921875</ele>
        <time>2015-07-26T11:01:37Z</time>
      </trkpt>
      <trkpt lat="42.84095" lon="-0.18331">
        <ele>2083.3142089844</ele>
        <time>2015-07-26T11:01:58Z</time>
      </trkpt>
      <trkpt lat="42.84106" lon="-0.18328">
        <ele>2082.3530273438</ele>
        <time>2015-07-26T11:02:54Z</time>
      </trkpt>
      <trkpt lat="42.84102" lon="-0.1833">
        <ele>2083.3142089844</ele>
        <time>2015-07-26T11:03:19Z</time>
      </trkpt>
      <trkpt lat="42.84103" lon="-0.18326">
        <ele>2083.794921875</ele>
        <time>2015-07-26T11:03:48Z</time>
      </trkpt>
      <trkpt lat="42.84105" lon="-0.18328">
        <ele>2083.794921875</ele>
        <time>2015-07-26T11:04:09Z</time>
      </trkpt>
      <trkpt lat="42.84103" lon="-0.18326">
        <ele>2082.8334960938</ele>
        <time>2015-07-26T11:04:28Z</time>
      </trkpt>
      <trkpt lat="42.84105" lon="-0.18321">
        <ele>2082.3530273438</ele>
        <time>2015-07-26T11:04:50Z</time>
      </trkpt>
      <trkpt lat="42.84102" lon="-0.18331">
        <ele>2083.3142089844</ele>
        <time>2015-07-26T11:05:15Z</time>
      </trkpt>
      <trkpt lat="42.84104" lon="-0.18321">
        <ele>2082.8334960938</ele>
        <time>2015-07-26T11:05:40Z</time>
      </trkpt>
      <trkpt lat="42.84099" lon="-0.18326">
        <ele>2083.3142089844</ele>
        <time>2015-07-26T11:06:00Z</time>
      </trkpt>
      <trkpt lat="42.84101" lon="-0.18327">
        <ele>2082.8334960938</ele>
        <time>2015-07-26T11:06:22Z</time>
      </trkpt>
      <trkpt lat="42.841" lon="-0.18329">
        <ele>2083.3142089844</ele>
        <time>2015-07-26T11:06:40Z</time>
      </trkpt>
      <trkpt lat="42.841" lon="-0.18329">
        <ele>2083.794921875</ele>
        <time>2015-07-26T11:07:06Z</time>
      </trkpt>
      <trkpt lat="42.84103" lon="-0.18322">
        <ele>2083.794921875</ele>
        <time>2015-07-26T11:07:26Z</time>
      </trkpt>
      <trkpt lat="42.84104" lon="-0.18326">
        <ele>2083.794921875</ele>
        <time>2015-07-26T11:07:43Z</time>
      </trkpt>
      <trkpt lat="42.84106" lon="-0.18331">
        <ele>2084.2756347656</ele>
        <time>2015-07-26T11:08:06Z</time>
      </trkpt>
      <trkpt lat="42.84105" lon="-0.18327">
        <ele>2085.2368164062</ele>
        <time>2015-07-26T11:08:33Z</time>
      </trkpt>
      <trkpt lat="42.84105" lon="-0.18327">
        <ele>2084.7563476562</ele>
        <time>2015-07-26T11:08:58Z</time>
      </trkpt>
      <trkpt lat="42.84104" lon="-0.1833">
        <ele>2084.7563476562</ele>
        <time>2015-07-26T11:09:28Z</time>
      </trkpt>
      <trkpt lat="42.84109" lon="-0.18325">
        <ele>2084.7563476562</ele>
        <time>2015-07-26T11:09:51Z</time>
      </trkpt>
      <trkpt lat="42.84107" lon="-0.18324">
        <ele>2084.7563476562</ele>
        <time>2015-07-26T11:10:15Z</time>
      </trkpt>
      <trkpt lat="42.84111" lon="-0.18326">
        <ele>2083.794921875</ele>
        <time>2015-07-26T11:10:36Z</time>
      </trkpt>
      <trkpt lat="42.84104" lon="-0.18333">
        <ele>2084.2756347656</ele>
        <time>2015-07-26T11:11:01Z</time>
      </trkpt>
      <trkpt lat="42.84099" lon="-0.1833">
        <ele>2084.2756347656</ele>
        <time>2015-07-26T11:11:25Z</time>
      </trkpt>
      <trkpt lat="42.84103" lon="-0.18325">
        <ele>2083.794921875</ele>
        <time>2015-07-26T11:11:48Z</time>
      </trkpt>
      <trkpt lat="42.84107" lon="-0.18321">
        <ele>2083.794921875</ele>
        <time>2015-07-26T11:12:16Z</time>
      </trkpt>
      <trkpt lat="42.84105" lon="-0.18328">
        <ele>2084.2756347656</ele>
        <time>2015-07-26T11:12:35Z</time>
      </trkpt>
      <trkpt lat="42.84107" lon="-0.18331">
        <ele>2084.2756347656</ele>
        <time>2015-07-26T11:13:04Z</time>
      </trkpt>
      <trkpt lat="42.84106" lon="-0.1833">
        <ele>2084.2756347656</ele>
        <time>2015-07-26T11:13:05Z</time>
      </trkpt>
      <trkpt lat="42.84108" lon="-0.18325">
        <ele>2083.3142089844</ele>
        <time>2015-07-26T11:13:57Z</time>
      </trkpt>
      <trkpt lat="42.84105" lon="-0.1833">
        <ele>2083.794921875</ele>
        <time>2015-07-26T11:15:34Z</time>
      </trkpt>
      <trkpt lat="42.8411" lon="-0.18321">
        <ele>2083.794921875</ele>
        <time>2015-07-26T11:16:22Z</time>
      </trkpt>
      <trkpt lat="42.84111" lon="-0.18319">
        <ele>2084.2756347656</ele>
        <time>2015-07-26T11:17:31Z</time>
      </trkpt>
      <trkpt lat="42.84104" lon="-0.18328">
        <ele>2083.794921875</ele>
        <time>2015-07-26T11:26:07Z</time>
      </trkpt>
      <trkpt lat="42.84106" lon="-0.18324">
        <ele>2083.3142089844</ele>
        <time>2015-07-26T11:31:04Z</time>
      </trkpt>
      <trkpt lat="42.84105" lon="-0.18329">
        <ele>2084.7563476562</ele>
        <time>2015-07-26T11:32:57Z</time>
      </trkpt>
      <trkpt lat="42.84106" lon="-0.1833">
        <ele>2084.2756347656</ele>
        <time>2015-07-26T11:33:21Z</time>
      </trkpt>
      <trkpt lat="42.84107" lon="-0.18324">
        <ele>2084.7563476562</ele>
        <time>2015-07-26T11:33:42Z</time>
      </trkpt>
      <trkpt lat="42.84103" lon="-0.18318">
        <ele>2085.7175292969</ele>
        <time>2015-07-26T11:34:07Z</time>
      </trkpt>
      <trkpt lat="42.84105" lon="-0.18329">
        <ele>2085.2368164062</ele>
        <time>2015-07-26T11:34:53Z</time>
      </trkpt>
      <trkpt lat="42.84108" lon="-0.18328">
        <ele>2086.1982421875</ele>
        <time>2015-07-26T11:35:04Z</time>
      </trkpt>
      <trkpt lat="42.84111" lon="-0.1833">
        <ele>2086.1982421875</ele>
        <time>2015-07-26T11:35:23Z</time>
      </trkpt>
      <trkpt lat="42.84115" lon="-0.18333">
        <ele>2085.2368164062</ele>
        <time>2015-07-26T11:35:28Z</time>
      </trkpt>
      <trkpt lat="42.84124" lon="-0.18345">
        <ele>2084.7563476562</ele>
        <time>2015-07-26T11:35:42Z</time>
      </trkpt>
      <trkpt lat="42.84125" lon="-0.18348">
        <ele>2085.7175292969</ele>
        <time>2015-07-26T11:35:44Z</time>
      </trkpt>
      <trkpt lat="42.8413" lon="-0.18362">
        <ele>2087.6401367188</ele>
        <time>2015-07-26T11:35:59Z</time>
      </trkpt>
      <trkpt lat="42.84143" lon="-0.18372">
        <ele>2088.6015625</ele>
        <time>2015-07-26T11:36:17Z</time>
      </trkpt>
      <trkpt lat="42.84145" lon="-0.18375">
        <ele>2089.08203125</ele>
        <time>2015-07-26T11:36:20Z</time>
      </trkpt>
      <trkpt lat="42.84155" lon="-0.18391">
        <ele>2089.5627441406</ele>
        <time>2015-07-26T11:36:39Z</time>
      </trkpt>
      <trkpt lat="42.84164" lon="-0.18405">
        <ele>2089.08203125</ele>
        <time>2015-07-26T11:36:55Z</time>
      </trkpt>
      <trkpt lat="42.84167" lon="-0.18408">
        <ele>2091.0046386719</ele>
        <time>2015-07-26T11:37:01Z</time>
      </trkpt>
      <trkpt lat="42.84171" lon="-0.18419">
        <ele>2091.4853515625</ele>
        <time>2015-07-26T11:37:12Z</time>
      </trkpt>
      <trkpt lat="42.84176" lon="-0.18435">
        <ele>2092.4470214844</ele>
        <time>2015-07-26T11:37:27Z</time>
      </trkpt>
      <trkpt lat="42.84186" lon="-0.1845">
        <ele>2094.3693847656</ele>
        <time>2015-07-26T11:37:45Z</time>
      </trkpt>
      <trkpt lat="42.84192" lon="-0.1846">
        <ele>2095.3308105469</ele>
        <time>2015-07-26T11:38:00Z</time>
      </trkpt>
      <trkpt lat="42.84195" lon="-0.18469">
        <ele>2097.7341308594</ele>
        <time>2015-07-26T11:38:11Z</time>
      </trkpt>
      <trkpt lat="42.842" lon="-0.18483">
        <ele>2099.6567382812</ele>
        <time>2015-07-26T11:38:29Z</time>
      </trkpt>
      <trkpt lat="42.84202" lon="-0.1849">
        <ele>2100.6179199219</ele>
        <time>2015-07-26T11:38:43Z</time>
      </trkpt>
      <trkpt lat="42.84206" lon="-0.18503">
        <ele>2102.5405273438</ele>
        <time>2015-07-26T11:38:57Z</time>
      </trkpt>
      <trkpt lat="42.84207" lon="-0.18516">
        <ele>2104.4631347656</ele>
        <time>2015-07-26T11:39:11Z</time>
      </trkpt>
      <trkpt lat="42.84208" lon="-0.18529">
        <ele>2106.8664550781</ele>
        <time>2015-07-26T11:39:26Z</time>
      </trkpt>
      <trkpt lat="42.84214" lon="-0.18544">
        <ele>2107.8278808594</ele>
        <time>2015-07-26T11:39:43Z</time>
      </trkpt>
      <trkpt lat="42.8422" lon="-0.18556">
        <ele>2109.7504882812</ele>
        <time>2015-07-26T11:40:00Z</time>
      </trkpt>
      <trkpt lat="42.84223" lon="-0.1857">
        <ele>2111.6733398438</ele>
        <time>2015-07-26T11:40:16Z</time>
      </trkpt>
      <trkpt lat="42.84226" lon="-0.18587">
        <ele>2113.595703125</ele>
        <time>2015-07-26T11:40:31Z</time>
      </trkpt>
      <trkpt lat="42.84228" lon="-0.18599">
        <ele>2115.0378417969</ele>
        <time>2015-07-26T11:40:44Z</time>
      </trkpt>
      <trkpt lat="42.84228" lon="-0.18607">
        <ele>2115.5185546875</ele>
        <time>2015-07-26T11:40:52Z</time>
      </trkpt>
      <trkpt lat="42.84229" lon="-0.18616">
        <ele>2116.9604492188</ele>
        <time>2015-07-26T11:41:06Z</time>
      </trkpt>
      <trkpt lat="42.84231" lon="-0.18624">
        <ele>2120.3249511719</ele>
        <time>2015-07-26T11:41:37Z</time>
      </trkpt>
      <trkpt lat="42.84232" lon="-0.18633">
        <ele>2121.7668457031</ele>
        <time>2015-07-26T11:41:48Z</time>
      </trkpt>
      <trkpt lat="42.84234" lon="-0.18644">
        <ele>2124.6511230469</ele>
        <time>2015-07-26T11:42:04Z</time>
      </trkpt>
      <trkpt lat="42.84238" lon="-0.18652">
        <ele>2127.0544433594</ele>
        <time>2015-07-26T11:42:18Z</time>
      </trkpt>
      <trkpt lat="42.84238" lon="-0.18656">
        <ele>2128.015625</ele>
        <time>2015-07-26T11:42:22Z</time>
      </trkpt>
      <trkpt lat="42.84241" lon="-0.18662">
        <ele>2129.4575195312</ele>
        <time>2015-07-26T11:42:33Z</time>
      </trkpt>
      <trkpt lat="42.84243" lon="-0.1867">
        <ele>2132.3415527344</ele>
        <time>2015-07-26T11:42:46Z</time>
      </trkpt>
      <trkpt lat="42.84247" lon="-0.18677">
        <ele>2134.7448730469</ele>
        <time>2015-07-26T11:43:03Z</time>
      </trkpt>
      <trkpt lat="42.84252" lon="-0.18685">
        <ele>2135.7060546875</ele>
        <time>2015-07-26T11:43:16Z</time>
      </trkpt>
      <trkpt lat="42.84252" lon="-0.18686">
        <ele>2136.6672363281</ele>
        <time>2015-07-26T11:43:18Z</time>
      </trkpt>
      <trkpt lat="42.84257" lon="-0.18693">
        <ele>2138.109375</ele>
        <time>2015-07-26T11:43:30Z</time>
      </trkpt>
      <trkpt lat="42.84259" lon="-0.187">
        <ele>2139.5512695312</ele>
        <time>2015-07-26T11:43:43Z</time>
      </trkpt>
      <trkpt lat="42.84257" lon="-0.1871">
        <ele>2140.9934082031</ele>
        <time>2015-07-26T11:43:55Z</time>
      </trkpt>
      <trkpt lat="42.84256" lon="-0.18723">
        <ele>2143.8774414062</ele>
        <time>2015-07-26T11:44:09Z</time>
      </trkpt>
      <trkpt lat="42.84257" lon="-0.18727">
        <ele>2145.3193359375</ele>
        <time>2015-07-26T11:44:14Z</time>
      </trkpt>
      <trkpt lat="42.8426" lon="-0.18734">
        <ele>2146.7612304688</ele>
        <time>2015-07-26T11:44:27Z</time>
      </trkpt>
      <trkpt lat="42.84259" lon="-0.18741">
        <ele>2147.2419433594</ele>
        <time>2015-07-26T11:44:40Z</time>
      </trkpt>
      <trkpt lat="42.84258" lon="-0.1874">
        <ele>2145.3193359375</ele>
        <time>2015-07-26T11:45:05Z</time>
      </trkpt>
      <trkpt lat="42.84262" lon="-0.18738">
        <ele>2147.2419433594</ele>
        <time>2015-07-26T11:45:22Z</time>
      </trkpt>
      <trkpt lat="42.84268" lon="-0.1875">
        <ele>2148.203125</ele>
        <time>2015-07-26T11:45:35Z</time>
      </trkpt>
      <trkpt lat="42.84271" lon="-0.18759">
        <ele>2148.6838378906</ele>
        <time>2015-07-26T11:45:45Z</time>
      </trkpt>
      <trkpt lat="42.84279" lon="-0.1877">
        <ele>2148.6838378906</ele>
        <time>2015-07-26T11:46:00Z</time>
      </trkpt>
      <trkpt lat="42.84287" lon="-0.18785">
        <ele>2150.1259765625</ele>
        <time>2015-07-26T11:46:17Z</time>
      </trkpt>
      <trkpt lat="42.84297" lon="-0.18799">
        <ele>2150.6064453125</ele>
        <time>2015-07-26T11:46:33Z</time>
      </trkpt>
      <trkpt lat="42.84304" lon="-0.18809">
        <ele>2151.5678710938</ele>
        <time>2015-07-26T11:46:46Z</time>
      </trkpt>
      <trkpt lat="42.84308" lon="-0.18817">
        <ele>2152.0483398438</ele>
        <time>2015-07-26T11:46:57Z</time>
      </trkpt>
      <trkpt lat="42.84313" lon="-0.18828">
        <ele>2153.009765625</ele>
        <time>2015-07-26T11:47:10Z</time>
      </trkpt>
      <trkpt lat="42.84317" lon="-0.18842">
        <ele>2154.4516601562</ele>
        <time>2015-07-26T11:47:27Z</time>
      </trkpt>
      <trkpt lat="42.84321" lon="-0.18859">
        <ele>2156.8552246094</ele>
        <time>2015-07-26T11:47:46Z</time>
      </trkpt>
      <trkpt lat="42.84322" lon="-0.18867">
        <ele>2159.2585449219</ele>
        <time>2015-07-26T11:47:57Z</time>
      </trkpt>
      <trkpt lat="42.84324" lon="-0.1888">
        <ele>2161.6618652344</ele>
        <time>2015-07-26T11:48:11Z</time>
      </trkpt>
      <trkpt lat="42.84325" lon="-0.1889">
        <ele>2163.1037597656</ele>
        <time>2015-07-26T11:48:23Z</time>
      </trkpt>
      <trkpt lat="42.84326" lon="-0.18901">
        <ele>2164.5456542969</ele>
        <time>2015-07-26T11:48:36Z</time>
      </trkpt>
      <trkpt lat="42.84328" lon="-0.18914">
        <ele>2167.91015625</ele>
        <time>2015-07-26T11:48:51Z</time>
      </trkpt>
      <trkpt lat="42.84328" lon="-0.18915">
        <ele>2167.91015625</ele>
        <time>2015-07-26T11:48:52Z</time>
      </trkpt>
      <trkpt lat="42.84329" lon="-0.18924">
        <ele>2168.8715820312</ele>
        <time>2015-07-26T11:49:03Z</time>
      </trkpt>
      <trkpt lat="42.84333" lon="-0.18936">
        <ele>2170.3134765625</ele>
        <time>2015-07-26T11:49:16Z</time>
      </trkpt>
      <trkpt lat="42.84338" lon="-0.18946">
        <ele>2172.7170410156</ele>
        <time>2015-07-26T11:49:30Z</time>
      </trkpt>
      <trkpt lat="42.84341" lon="-0.18962">
        <ele>2174.1589355469</ele>
        <time>2015-07-26T11:49:46Z</time>
      </trkpt>
      <trkpt lat="42.84346" lon="-0.1898">
        <ele>2177.04296875</ele>
        <time>2015-07-26T11:50:03Z</time>
      </trkpt>
      <trkpt lat="42.84348" lon="-0.1899">
        <ele>2178.4848632812</ele>
        <time>2015-07-26T11:50:14Z</time>
      </trkpt>
      <trkpt lat="42.8435" lon="-0.19001">
        <ele>2179.4460449219</ele>
        <time>2015-07-26T11:50:26Z</time>
      </trkpt>
      <trkpt lat="42.84351" lon="-0.1901">
        <ele>2182.330078125</ele>
        <time>2015-07-26T11:50:39Z</time>
      </trkpt>
      <trkpt lat="42.84352" lon="-0.19021">
        <ele>2182.810546875</ele>
        <time>2015-07-26T11:50:54Z</time>
      </trkpt>
      <trkpt lat="42.84352" lon="-0.19034">
        <ele>2183.7719726562</ele>
        <time>2015-07-26T11:51:09Z</time>
      </trkpt>
      <trkpt lat="42.84352" lon="-0.19047">
        <ele>2186.6557617188</ele>
        <time>2015-07-26T11:51:24Z</time>
      </trkpt>
      <trkpt lat="42.84352" lon="-0.19058">
        <ele>2187.1364746094</ele>
        <time>2015-07-26T11:51:36Z</time>
      </trkpt>
      <trkpt lat="42.84353" lon="-0.1907">
        <ele>2188.5788574219</ele>
        <time>2015-07-26T11:51:52Z</time>
      </trkpt>
      <trkpt lat="42.84355" lon="-0.1907">
        <ele>2189.0593261719</ele>
        <time>2015-07-26T11:52:17Z</time>
      </trkpt>
      <trkpt lat="42.84355" lon="-0.1907">
        <ele>2189.5400390625</ele>
        <time>2015-07-26T11:52:51Z</time>
      </trkpt>
      <trkpt lat="42.84351" lon="-0.19082">
        <ele>2190.0207519531</ele>
        <time>2015-07-26T11:53:25Z</time>
      </trkpt>
      <trkpt lat="42.84348" lon="-0.19096">
        <ele>2191.4626464844</ele>
        <time>2015-07-26T11:53:38Z</time>
      </trkpt>
      <trkpt lat="42.84346" lon="-0.19111">
        <ele>2195.3078613281</ele>
        <time>2015-07-26T11:53:53Z</time>
      </trkpt>
      <trkpt lat="42.84346" lon="-0.19112">
        <ele>2195.3078613281</ele>
        <time>2015-07-26T11:53:54Z</time>
      </trkpt>
      <trkpt lat="42.84344" lon="-0.19123">
        <ele>2196.7497558594</ele>
        <time>2015-07-26T11:54:06Z</time>
      </trkpt>
      <trkpt lat="42.84351" lon="-0.19116">
        <ele>2200.1145019531</ele>
        <time>2015-07-26T11:54:18Z</time>
      </trkpt>
      <trkpt lat="42.84355" lon="-0.19112">
        <ele>2201.5563964844</ele>
        <time>2015-07-26T11:54:25Z</time>
      </trkpt>
      <trkpt lat="42.84364" lon="-0.19103">
        <ele>2202.9982910156</ele>
        <time>2015-07-26T11:54:40Z</time>
      </trkpt>
      <trkpt lat="42.84368" lon="-0.19098">
        <ele>2203.4790039062</ele>
        <time>2015-07-26T11:54:46Z</time>
      </trkpt>
      <trkpt lat="42.84378" lon="-0.19087">
        <ele>2205.4018554688</ele>
        <time>2015-07-26T11:55:02Z</time>
      </trkpt>
      <trkpt lat="42.84381" lon="-0.19086">
        <ele>2206.84375</ele>
        <time>2015-07-26T11:55:07Z</time>
      </trkpt>
      <trkpt lat="42.84389" lon="-0.19079">
        <ele>2209.2470703125</ele>
        <time>2015-07-26T11:55:20Z</time>
      </trkpt>
      <trkpt lat="42.84394" lon="-0.19077">
        <ele>2211.1696777344</ele>
        <time>2015-07-26T11:55:32Z</time>
      </trkpt>
      <trkpt lat="42.84404" lon="-0.19072">
        <ele>2212.130859375</ele>
        <time>2015-07-26T11:56:00Z</time>
      </trkpt>
      <trkpt lat="42.84405" lon="-0.19075">
        <ele>2212.6115722656</ele>
        <time>2015-07-26T11:56:16Z</time>
      </trkpt>
      <trkpt lat="42.84404" lon="-0.1908">
        <ele>2213.5727539062</ele>
        <time>2015-07-26T11:56:36Z</time>
      </trkpt>
      <trkpt lat="42.844" lon="-0.19085">
        <ele>2215.0148925781</ele>
        <time>2015-07-26T11:56:56Z</time>
      </trkpt>
      <trkpt lat="42.84399" lon="-0.19093">
        <ele>2216.4567871094</ele>
        <time>2015-07-26T11:57:08Z</time>
      </trkpt>
      <trkpt lat="42.84397" lon="-0.191">
        <ele>2217.41796875</ele>
        <time>2015-07-26T11:57:16Z</time>
      </trkpt>
      <trkpt lat="42.84396" lon="-0.19103">
        <ele>2218.8601074219</ele>
        <time>2015-07-26T11:57:19Z</time>
      </trkpt>
      <trkpt lat="42.84393" lon="-0.19119">
        <ele>2221.744140625</ele>
        <time>2015-07-26T11:57:34Z</time>
      </trkpt>
      <trkpt lat="42.8439" lon="-0.19136">
        <ele>2222.7055664062</ele>
        <time>2015-07-26T11:57:50Z</time>
      </trkpt>
      <trkpt lat="42.84387" lon="-0.19147">
        <ele>2226.55078125</ele>
        <time>2015-07-26T11:58:04Z</time>
      </trkpt>
      <trkpt lat="42.84386" lon="-0.19156">
        <ele>2227.9926757812</ele>
        <time>2015-07-26T11:58:17Z</time>
      </trkpt>
      <trkpt lat="42.84384" lon="-0.19164">
        <ele>2229.9152832031</ele>
        <time>2015-07-26T11:58:32Z</time>
      </trkpt>
      <trkpt lat="42.84384" lon="-0.19172">
        <ele>2231.837890625</ele>
        <time>2015-07-26T11:58:43Z</time>
      </trkpt>
      <trkpt lat="42.84383" lon="-0.19184">
        <ele>2233.2797851562</ele>
        <time>2015-07-26T11:58:58Z</time>
      </trkpt>
      <trkpt lat="42.8438" lon="-0.19198">
        <ele>2235.6831054688</ele>
        <time>2015-07-26T11:59:14Z</time>
      </trkpt>
      <trkpt lat="42.84376" lon="-0.19212">
        <ele>2238.0866699219</ele>
        <time>2015-07-26T11:59:30Z</time>
      </trkpt>
      <trkpt lat="42.84375" lon="-0.19222">
        <ele>2238.5673828125</ele>
        <time>2015-07-26T11:59:44Z</time>
      </trkpt>
      <trkpt lat="42.84373" lon="-0.19235">
        <ele>2241.451171875</ele>
        <time>2015-07-26T12:00:01Z</time>
      </trkpt>
      <trkpt lat="42.84371" lon="-0.19248">
        <ele>2244.3349609375</ele>
        <time>2015-07-26T12:00:18Z</time>
      </trkpt>
      <trkpt lat="42.84359" lon="-0.19257">
        <ele>2244.8156738281</ele>
        <time>2015-07-26T12:00:35Z</time>
      </trkpt>
      <trkpt lat="42.8435" lon="-0.19259">
        <ele>2246.73828125</ele>
        <time>2015-07-26T12:00:52Z</time>
      </trkpt>
      <trkpt lat="42.84343" lon="-0.19266">
        <ele>2248.6608886719</ele>
        <time>2015-07-26T12:01:09Z</time>
      </trkpt>
      <trkpt lat="42.84338" lon="-0.19275">
        <ele>2249.1416015625</ele>
        <time>2015-07-26T12:01:22Z</time>
      </trkpt>
      <trkpt lat="42.84335" lon="-0.19286">
        <ele>2250.5834960938</ele>
        <time>2015-07-26T12:01:36Z</time>
      </trkpt>
      <trkpt lat="42.84336" lon="-0.19298">
        <ele>2250.1030273438</ele>
        <time>2015-07-26T12:01:50Z</time>
      </trkpt>
      <trkpt lat="42.84335" lon="-0.19311">
        <ele>2249.6223144531</ele>
        <time>2015-07-26T12:02:03Z</time>
      </trkpt>
      <trkpt lat="42.84329" lon="-0.19327">
        <ele>2250.1030273438</ele>
        <time>2015-07-26T12:02:20Z</time>
      </trkpt>
      <trkpt lat="42.84328" lon="-0.19342">
        <ele>2251.544921875</ele>
        <time>2015-07-26T12:02:36Z</time>
      </trkpt>
      <trkpt lat="42.84326" lon="-0.19361">
        <ele>2253.4677734375</ele>
        <time>2015-07-26T12:02:54Z</time>
      </trkpt>
      <trkpt lat="42.84324" lon="-0.19375">
        <ele>2255.3903808594</ele>
        <time>2015-07-26T12:03:07Z</time>
      </trkpt>
      <trkpt lat="42.84325" lon="-0.19387">
        <ele>2257.3129882812</ele>
        <time>2015-07-26T12:03:25Z</time>
      </trkpt>
      <trkpt lat="42.84324" lon="-0.19397">
        <ele>2259.2355957031</ele>
        <time>2015-07-26T12:03:39Z</time>
      </trkpt>
      <trkpt lat="42.84322" lon="-0.19407">
        <ele>2261.6389160156</ele>
        <time>2015-07-26T12:03:53Z</time>
      </trkpt>
      <trkpt lat="42.8432" lon="-0.19418">
        <ele>2262.1193847656</ele>
        <time>2015-07-26T12:04:07Z</time>
      </trkpt>
      <trkpt lat="42.84324" lon="-0.19414">
        <ele>2264.0419921875</ele>
        <time>2015-07-26T12:04:20Z</time>
      </trkpt>
      <trkpt lat="42.84325" lon="-0.19421">
        <ele>2265.9645996094</ele>
        <time>2015-07-26T12:04:33Z</time>
      </trkpt>
      <trkpt lat="42.84327" lon="-0.19427">
        <ele>2267.4064941406</ele>
        <time>2015-07-26T12:04:48Z</time>
      </trkpt>
      <trkpt lat="42.84326" lon="-0.19433">
        <ele>2269.3295898438</ele>
        <time>2015-07-26T12:04:58Z</time>
      </trkpt>
      <trkpt lat="42.84327" lon="-0.19444">
        <ele>2271.7326660156</ele>
        <time>2015-07-26T12:05:11Z</time>
      </trkpt>
      <trkpt lat="42.84328" lon="-0.19455">
        <ele>2272.6940917969</ele>
        <time>2015-07-26T12:05:26Z</time>
      </trkpt>
      <trkpt lat="42.84327" lon="-0.1947">
        <ele>2275.5778808594</ele>
        <time>2015-07-26T12:05:43Z</time>
      </trkpt>
      <trkpt lat="42.84331" lon="-0.19477">
        <ele>2276.5393066406</ele>
        <time>2015-07-26T12:05:55Z</time>
      </trkpt>
      <trkpt lat="42.84332" lon="-0.19489">
        <ele>2278.4619140625</ele>
        <time>2015-07-26T12:06:09Z</time>
      </trkpt>
      <trkpt lat="42.84338" lon="-0.19503">
        <ele>2279.9038085938</ele>
        <time>2015-07-26T12:06:26Z</time>
      </trkpt>
      <trkpt lat="42.84342" lon="-0.19512">
        <ele>2280.865234375</ele>
        <time>2015-07-26T12:06:39Z</time>
      </trkpt>
      <trkpt lat="42.84344" lon="-0.19518">
        <ele>2280.865234375</ele>
        <time>2015-07-26T12:06:47Z</time>
      </trkpt>
      <trkpt lat="42.84345" lon="-0.19532">
        <ele>2282.3071289062</ele>
        <time>2015-07-26T12:07:02Z</time>
      </trkpt>
      <trkpt lat="42.84346" lon="-0.19542">
        <ele>2285.1911621094</ele>
        <time>2015-07-26T12:07:18Z</time>
      </trkpt>
      <trkpt lat="42.84346" lon="-0.19551">
        <ele>2288.5559082031</ele>
        <time>2015-07-26T12:07:33Z</time>
      </trkpt>
      <trkpt lat="42.84345" lon="-0.19559">
        <ele>2290.4782714844</ele>
        <time>2015-07-26T12:07:48Z</time>
      </trkpt>
      <trkpt lat="42.84343" lon="-0.19571">
        <ele>2291.4396972656</ele>
        <time>2015-07-26T12:08:02Z</time>
      </trkpt>
      <trkpt lat="42.84343" lon="-0.19586">
        <ele>2293.8430175781</ele>
        <time>2015-07-26T12:08:19Z</time>
      </trkpt>
      <trkpt lat="42.84342" lon="-0.19594">
        <ele>2294.8041992188</ele>
        <time>2015-07-26T12:08:28Z</time>
      </trkpt>
      <trkpt lat="42.84344" lon="-0.19601">
        <ele>2295.2849121094</ele>
        <time>2015-07-26T12:08:40Z</time>
      </trkpt>
      <trkpt lat="42.84344" lon="-0.1961">
        <ele>2295.2849121094</ele>
        <time>2015-07-26T12:08:52Z</time>
      </trkpt>
      <trkpt lat="42.84343" lon="-0.19619">
        <ele>2296.7268066406</ele>
        <time>2015-07-26T12:09:03Z</time>
      </trkpt>
      <trkpt lat="42.84342" lon="-0.19629">
        <ele>2298.6494140625</ele>
        <time>2015-07-26T12:09:19Z</time>
      </trkpt>
      <trkpt lat="42.84343" lon="-0.1964">
        <ele>2300.572265625</ele>
        <time>2015-07-26T12:09:34Z</time>
      </trkpt>
      <trkpt lat="42.84343" lon="-0.19644">
        <ele>2302.4948730469</ele>
        <time>2015-07-26T12:09:39Z</time>
      </trkpt>
      <trkpt lat="42.84343" lon="-0.19656">
        <ele>2303.9370117188</ele>
        <time>2015-07-26T12:09:58Z</time>
      </trkpt>
      <trkpt lat="42.84339" lon="-0.19667">
        <ele>2306.3400878906</ele>
        <time>2015-07-26T12:10:10Z</time>
      </trkpt>
      <trkpt lat="42.84339" lon="-0.19669">
        <ele>2307.3015136719</ele>
        <time>2015-07-26T12:10:14Z</time>
      </trkpt>
      <trkpt lat="42.8434" lon="-0.19677">
        <ele>2307.3015136719</ele>
        <time>2015-07-26T12:10:29Z</time>
      </trkpt>
      <trkpt lat="42.84346" lon="-0.19682">
        <ele>2308.7434082031</ele>
        <time>2015-07-26T12:10:44Z</time>
      </trkpt>
      <trkpt lat="42.84349" lon="-0.19698">
        <ele>2308.7434082031</ele>
        <time>2015-07-26T12:10:59Z</time>
      </trkpt>
      <trkpt lat="42.84351" lon="-0.19707">
        <ele>2309.2241210938</ele>
        <time>2015-07-26T12:11:13Z</time>
      </trkpt>
      <trkpt lat="42.84353" lon="-0.19709">
        <ele>2308.2626953125</ele>
        <time>2015-07-26T12:11:17Z</time>
      </trkpt>
      <trkpt lat="42.84352" lon="-0.1971">
        <ele>2308.2626953125</ele>
        <time>2015-07-26T12:11:22Z</time>
      </trkpt>
      <trkpt lat="42.84353" lon="-0.1972">
        <ele>2308.7434082031</ele>
        <time>2015-07-26T12:11:36Z</time>
      </trkpt>
      <trkpt lat="42.84359" lon="-0.19726">
        <ele>2309.2241210938</ele>
        <time>2015-07-26T12:11:48Z</time>
      </trkpt>
      <trkpt lat="42.84357" lon="-0.19739">
        <ele>2309.2241210938</ele>
        <time>2015-07-26T12:12:03Z</time>
      </trkpt>
      <trkpt lat="42.84357" lon="-0.19745">
        <ele>2310.1853027344</ele>
        <time>2015-07-26T12:12:12Z</time>
      </trkpt>
      <trkpt lat="42.84358" lon="-0.19755">
        <ele>2310.666015625</ele>
        <time>2015-07-26T12:12:25Z</time>
      </trkpt>
      <trkpt lat="42.84361" lon="-0.19766">
        <ele>2310.666015625</ele>
        <time>2015-07-26T12:12:40Z</time>
      </trkpt>
      <trkpt lat="42.84362" lon="-0.19774">
        <ele>2311.1467285156</ele>
        <time>2015-07-26T12:12:53Z</time>
      </trkpt>
      <trkpt lat="42.84364" lon="-0.19781">
        <ele>2311.6274414062</ele>
        <time>2015-07-26T12:13:06Z</time>
      </trkpt>
      <trkpt lat="42.84364" lon="-0.19795">
        <ele>2310.666015625</ele>
        <time>2015-07-26T12:13:19Z</time>
      </trkpt>
      <trkpt lat="42.84368" lon="-0.19805">
        <ele>2310.1853027344</ele>
        <time>2015-07-26T12:13:33Z</time>
      </trkpt>
      <trkpt lat="42.84371" lon="-0.19811">
        <ele>2310.666015625</ele>
        <time>2015-07-26T12:13:47Z</time>
      </trkpt>
      <trkpt lat="42.84369" lon="-0.19828">
        <ele>2310.666015625</ele>
        <time>2015-07-26T12:14:02Z</time>
      </trkpt>
      <trkpt lat="42.84367" lon="-0.19844">
        <ele>2310.666015625</ele>
        <time>2015-07-26T12:14:16Z</time>
      </trkpt>
      <trkpt lat="42.8437" lon="-0.19851">
        <ele>2312.5886230469</ele>
        <time>2015-07-26T12:14:29Z</time>
      </trkpt>
      <trkpt lat="42.84372" lon="-0.19863">
        <ele>2312.1079101562</ele>
        <time>2015-07-26T12:14:45Z</time>
      </trkpt>
      <trkpt lat="42.84374" lon="-0.1987">
        <ele>2313.0693359375</ele>
        <time>2015-07-26T12:14:57Z</time>
      </trkpt>
      <trkpt lat="42.84378" lon="-0.19881">
        <ele>2314.0305175781</ele>
        <time>2015-07-26T12:15:11Z</time>
      </trkpt>
      <trkpt lat="42.84381" lon="-0.19882">
        <ele>2315.47265625</ele>
        <time>2015-07-26T12:15:22Z</time>
      </trkpt>
      <trkpt lat="42.84382" lon="-0.19891">
        <ele>2316.4340820312</ele>
        <time>2015-07-26T12:15:36Z</time>
      </trkpt>
      <trkpt lat="42.84382" lon="-0.19893">
        <ele>2317.3952636719</ele>
        <time>2015-07-26T12:15:38Z</time>
      </trkpt>
      <trkpt lat="42.84382" lon="-0.19903">
        <ele>2320.279296875</ele>
        <time>2015-07-26T12:15:52Z</time>
      </trkpt>
      <trkpt lat="42.84383" lon="-0.19913">
        <ele>2321.2404785156</ele>
        <time>2015-07-26T12:16:08Z</time>
      </trkpt>
      <trkpt lat="42.84386" lon="-0.19918">
        <ele>2322.6826171875</ele>
        <time>2015-07-26T12:16:24Z</time>
      </trkpt>
      <trkpt lat="42.84388" lon="-0.19926">
        <ele>2324.6052246094</ele>
        <time>2015-07-26T12:16:38Z</time>
      </trkpt>
      <trkpt lat="42.84388" lon="-0.1994">
        <ele>2326.5278320312</ele>
        <time>2015-07-26T12:16:53Z</time>
      </trkpt>
      <trkpt lat="42.84387" lon="-0.19949">
        <ele>2326.5278320312</ele>
        <time>2015-07-26T12:17:08Z</time>
      </trkpt>
      <trkpt lat="42.84384" lon="-0.1996">
        <ele>2327.0085449219</ele>
        <time>2015-07-26T12:17:24Z</time>
      </trkpt>
      <trkpt lat="42.84386" lon="-0.19961">
        <ele>2329.4116210938</ele>
        <time>2015-07-26T12:17:37Z</time>
      </trkpt>
      <trkpt lat="42.84391" lon="-0.19957">
        <ele>2329.8923339844</ele>
        <time>2015-07-26T12:17:49Z</time>
      </trkpt>
      <trkpt lat="42.84396" lon="-0.19949">
        <ele>2330.8537597656</ele>
        <time>2015-07-26T12:18:02Z</time>
      </trkpt>
      <trkpt lat="42.84398" lon="-0.19948">
        <ele>2332.2958984375</ele>
        <time>2015-07-26T12:18:05Z</time>
      </trkpt>
      <trkpt lat="42.844" lon="-0.19943">
        <ele>2333.2570800781</ele>
        <time>2015-07-26T12:18:17Z</time>
      </trkpt>
      <trkpt lat="42.844" lon="-0.19956">
        <ele>2335.1796875</ele>
        <time>2015-07-26T12:18:43Z</time>
      </trkpt>
      <trkpt lat="42.84398" lon="-0.19966">
        <ele>2337.5830078125</ele>
        <time>2015-07-26T12:18:57Z</time>
      </trkpt>
      <trkpt lat="42.84395" lon="-0.19975">
        <ele>2338.5444335938</ele>
        <time>2015-07-26T12:19:10Z</time>
      </trkpt>
      <trkpt lat="42.84394" lon="-0.19983">
        <ele>2340.9475097656</ele>
        <time>2015-07-26T12:19:24Z</time>
      </trkpt>
      <trkpt lat="42.84394" lon="-0.19992">
        <ele>2343.8315429688</ele>
        <time>2015-07-26T12:19:38Z</time>
      </trkpt>
      <trkpt lat="42.84395" lon="-0.20006">
        <ele>2346.2348632812</ele>
        <time>2015-07-26T12:19:55Z</time>
      </trkpt>
      <trkpt lat="42.84391" lon="-0.20021">
        <ele>2348.6381835938</ele>
        <time>2015-07-26T12:20:10Z</time>
      </trkpt>
      <trkpt lat="42.84395" lon="-0.20025">
        <ele>2351.5222167969</ele>
        <time>2015-07-26T12:20:24Z</time>
      </trkpt>
      <trkpt lat="42.84402" lon="-0.20019">
        <ele>2352.0026855469</ele>
        <time>2015-07-26T12:20:34Z</time>
      </trkpt>
      <trkpt lat="42.84409" lon="-0.20014">
        <ele>2354.4060058594</ele>
        <time>2015-07-26T12:20:48Z</time>
      </trkpt>
      <trkpt lat="42.84411" lon="-0.20009">
        <ele>2355.3674316406</ele>
        <time>2015-07-26T12:20:56Z</time>
      </trkpt>
      <trkpt lat="42.84417" lon="-0.2">
        <ele>2357.2900390625</ele>
        <time>2015-07-26T12:21:11Z</time>
      </trkpt>
      <trkpt lat="42.84423" lon="-0.19996">
        <ele>2359.2126464844</ele>
        <time>2015-07-26T12:21:22Z</time>
      </trkpt>
      <trkpt lat="42.84424" lon="-0.19998">
        <ele>2360.6545410156</ele>
        <time>2015-07-26T12:21:44Z</time>
      </trkpt>
      <trkpt lat="42.8442" lon="-0.20011">
        <ele>2362.5771484375</ele>
        <time>2015-07-26T12:22:03Z</time>
      </trkpt>
      <trkpt lat="42.84418" lon="-0.20024">
        <ele>2364.9807128906</ele>
        <time>2015-07-26T12:22:20Z</time>
      </trkpt>
      <trkpt lat="42.84415" lon="-0.20035">
        <ele>2365.4614257812</ele>
        <time>2015-07-26T12:22:37Z</time>
      </trkpt>
      <trkpt lat="42.84411" lon="-0.20049">
        <ele>2366.9033203125</ele>
        <time>2015-07-26T12:22:53Z</time>
      </trkpt>
      <trkpt lat="42.84408" lon="-0.2006">
        <ele>2368.8259277344</ele>
        <time>2015-07-26T12:23:09Z</time>
      </trkpt>
      <trkpt lat="42.84407" lon="-0.20062">
        <ele>2370.7485351562</ele>
        <time>2015-07-26T12:23:12Z</time>
      </trkpt>
      <trkpt lat="42.84404" lon="-0.20069">
        <ele>2372.1904296875</ele>
        <time>2015-07-26T12:23:24Z</time>
      </trkpt>
      <trkpt lat="42.844" lon="-0.20075">
        <ele>2374.1130371094</ele>
        <time>2015-07-26T12:23:41Z</time>
      </trkpt>
      <trkpt lat="42.84394" lon="-0.20082">
        <ele>2376.5163574219</ele>
        <time>2015-07-26T12:23:57Z</time>
      </trkpt>
      <trkpt lat="42.84387" lon="-0.20094">
        <ele>2379.4001464844</ele>
        <time>2015-07-26T12:24:15Z</time>
      </trkpt>
      <trkpt lat="42.84382" lon="-0.20101">
        <ele>2381.3229980469</ele>
        <time>2015-07-26T12:24:29Z</time>
      </trkpt>
      <trkpt lat="42.84376" lon="-0.20104">
        <ele>2383.2456054688</ele>
        <time>2015-07-26T12:24:41Z</time>
      </trkpt>
      <trkpt lat="42.84371" lon="-0.20108">
        <ele>2386.1296386719</ele>
        <time>2015-07-26T12:24:56Z</time>
      </trkpt>
      <trkpt lat="42.84365" lon="-0.20111">
        <ele>2388.5329589844</ele>
        <time>2015-07-26T12:25:09Z</time>
      </trkpt>
      <trkpt lat="42.84359" lon="-0.20116">
        <ele>2389.494140625</ele>
        <time>2015-07-26T12:25:22Z</time>
      </trkpt>
      <trkpt lat="42.8435" lon="-0.20124">
        <ele>2391.4167480469</ele>
        <time>2015-07-26T12:25:37Z</time>
      </trkpt>
      <trkpt lat="42.84342" lon="-0.20121">
        <ele>2393.3393554688</ele>
        <time>2015-07-26T12:25:52Z</time>
      </trkpt>
      <trkpt lat="42.84336" lon="-0.20119">
        <ele>2394.78125</ele>
        <time>2015-07-26T12:26:05Z</time>
      </trkpt>
      <trkpt lat="42.84332" lon="-0.20118">
        <ele>2396.7041015625</ele>
        <time>2015-07-26T12:26:18Z</time>
      </trkpt>
      <trkpt lat="42.84324" lon="-0.20118">
        <ele>2398.1459960938</ele>
        <time>2015-07-26T12:26:46Z</time>
      </trkpt>
      <trkpt lat="42.84315" lon="-0.20119">
        <ele>2400.5493164062</ele>
        <time>2015-07-26T12:27:02Z</time>
      </trkpt>
      <trkpt lat="42.84319" lon="-0.20129">
        <ele>2401.9912109375</ele>
        <time>2015-07-26T12:27:15Z</time>
      </trkpt>
      <trkpt lat="42.84316" lon="-0.20133">
        <ele>2405.3559570312</ele>
        <time>2015-07-26T12:27:28Z</time>
      </trkpt>
      <trkpt lat="42.84309" lon="-0.20133">
        <ele>2407.2785644531</ele>
        <time>2015-07-26T12:27:39Z</time>
      </trkpt>
      <trkpt lat="42.84306" lon="-0.20138">
        <ele>2408.2397460938</ele>
        <time>2015-07-26T12:27:53Z</time>
      </trkpt>
      <trkpt lat="42.84308" lon="-0.20138">
        <ele>2409.681640625</ele>
        <time>2015-07-26T12:28:20Z</time>
      </trkpt>
      <trkpt lat="42.84312" lon="-0.20144">
        <ele>2412.5659179688</ele>
        <time>2015-07-26T12:29:09Z</time>
      </trkpt>
      <trkpt lat="42.84307" lon="-0.20151">
        <ele>2414.4885253906</ele>
        <time>2015-07-26T12:29:23Z</time>
      </trkpt>
      <trkpt lat="42.84303" lon="-0.20164">
        <ele>2414.9692382812</ele>
        <time>2015-07-26T12:29:41Z</time>
      </trkpt>
      <trkpt lat="42.84301" lon="-0.20172">
        <ele>2414.4885253906</ele>
        <time>2015-07-26T12:29:57Z</time>
      </trkpt>
      <trkpt lat="42.84299" lon="-0.20176">
        <ele>2414.9692382812</ele>
        <time>2015-07-26T12:30:14Z</time>
      </trkpt>
      <trkpt lat="42.84299" lon="-0.20176">
        <ele>2414.9692382812</ele>
        <time>2015-07-26T12:30:19Z</time>
      </trkpt>
      <trkpt lat="42.84303" lon="-0.20169">
        <ele>2415.9304199219</ele>
        <time>2015-07-26T12:30:37Z</time>
      </trkpt>
      <trkpt lat="42.84298" lon="-0.20165">
        <ele>2417.3723144531</ele>
        <time>2015-07-26T12:30:50Z</time>
      </trkpt>
      <trkpt lat="42.84294" lon="-0.20165">
        <ele>2418.3337402344</ele>
        <time>2015-07-26T12:31:05Z</time>
      </trkpt>
      <trkpt lat="42.84294" lon="-0.20163">
        <ele>2418.814453125</ele>
        <time>2015-07-26T12:31:20Z</time>
      </trkpt>
      <trkpt lat="42.84293" lon="-0.20166">
        <ele>2418.3337402344</ele>
        <time>2015-07-26T12:33:15Z</time>
      </trkpt>
      <trkpt lat="42.84291" lon="-0.20167">
        <ele>2418.814453125</ele>
        <time>2015-07-26T12:36:03Z</time>
      </trkpt>
      <trkpt lat="42.84292" lon="-0.20167">
        <ele>2421.6982421875</ele>
        <time>2015-07-26T12:39:35Z</time>
      </trkpt>
      <trkpt lat="42.84293" lon="-0.20166">
        <ele>2421.6982421875</ele>
        <time>2015-07-26T12:40:37Z</time>
      </trkpt>
      <trkpt lat="42.8429" lon="-0.20169">
        <ele>2422.6596679688</ele>
        <time>2015-07-26T12:40:54Z</time>
      </trkpt>
      <trkpt lat="42.84289" lon="-0.20171">
        <ele>2422.1789550781</ele>
        <time>2015-07-26T12:40:59Z</time>
      </trkpt>
      <trkpt lat="42.84287" lon="-0.20171">
        <ele>2423.6208496094</ele>
        <time>2015-07-26T12:41:24Z</time>
      </trkpt>
      <trkpt lat="42.84281" lon="-0.20179">
        <ele>2426.0241699219</ele>
        <time>2015-07-26T12:41:41Z</time>
      </trkpt>
      <trkpt lat="42.84279" lon="-0.20182">
        <ele>2424.5822753906</ele>
        <time>2015-07-26T12:41:55Z</time>
      </trkpt>
      <trkpt lat="42.84273" lon="-0.2019">
        <ele>2425.0627441406</ele>
        <time>2015-07-26T12:42:11Z</time>
      </trkpt>
      <trkpt lat="42.8427" lon="-0.20193">
        <ele>2425.5434570312</ele>
        <time>2015-07-26T12:42:28Z</time>
      </trkpt>
      <trkpt lat="42.84278" lon="-0.20195">
        <ele>2425.0627441406</ele>
        <time>2015-07-26T12:42:47Z</time>
      </trkpt>
      <trkpt lat="42.84278" lon="-0.20187">
        <ele>2426.0241699219</ele>
        <time>2015-07-26T12:43:06Z</time>
      </trkpt>
      <trkpt lat="42.84273" lon="-0.20188">
        <ele>2426.9855957031</ele>
        <time>2015-07-26T12:43:14Z</time>
      </trkpt>
      <trkpt lat="42.84267" lon="-0.20188">
        <ele>2427.4660644531</ele>
        <time>2015-07-26T12:43:26Z</time>
      </trkpt>
      <trkpt lat="42.84255" lon="-0.20188">
        <ele>2425.0627441406</ele>
        <time>2015-07-26T12:43:48Z</time>
      </trkpt>
      <trkpt lat="42.84244" lon="-0.20183">
        <ele>2427.9467773438</ele>
        <time>2015-07-26T12:44:02Z</time>
      </trkpt>
      <trkpt lat="42.84236" lon="-0.20179">
        <ele>2427.4660644531</ele>
        <time>2015-07-26T12:44:18Z</time>
      </trkpt>
      <trkpt lat="42.8422" lon="-0.20173">
        <ele>2426.5048828125</ele>
        <time>2015-07-26T12:44:36Z</time>
      </trkpt>
      <trkpt lat="42.84217" lon="-0.20171">
        <ele>2426.5048828125</ele>
        <time>2015-07-26T12:44:50Z</time>
      </trkpt>
      <trkpt lat="42.84205" lon="-0.20167">
        <ele>2427.4660644531</ele>
        <time>2015-07-26T12:45:44Z</time>
      </trkpt>
      <trkpt lat="42.84201" lon="-0.20163">
        <ele>2426.0241699219</ele>
        <time>2015-07-26T12:45:50Z</time>
      </trkpt>
      <trkpt lat="42.84199" lon="-0.20162">
        <ele>2426.5048828125</ele>
        <time>2015-07-26T12:45:52Z</time>
      </trkpt>
      <trkpt lat="42.84189" lon="-0.20151">
        <ele>2426.0241699219</ele>
        <time>2015-07-26T12:46:10Z</time>
      </trkpt>
      <trkpt lat="42.84175" lon="-0.20137">
        <ele>2426.5048828125</ele>
        <time>2015-07-26T12:46:26Z</time>
      </trkpt>
      <trkpt lat="42.84161" lon="-0.20131">
        <ele>2426.5048828125</ele>
        <time>2015-07-26T12:46:43Z</time>
      </trkpt>
      <trkpt lat="42.84155" lon="-0.20124">
        <ele>2426.0241699219</ele>
        <time>2015-07-26T12:46:54Z</time>
      </trkpt>
      <trkpt lat="42.84145" lon="-0.20114">
        <ele>2426.5048828125</ele>
        <time>2015-07-26T12:47:10Z</time>
      </trkpt>
      <trkpt lat="42.84137" lon="-0.2011">
        <ele>2426.9855957031</ele>
        <time>2015-07-26T12:47:25Z</time>
      </trkpt>
      <trkpt lat="42.84133" lon="-0.20104">
        <ele>2426.9855957031</ele>
        <time>2015-07-26T12:47:43Z</time>
      </trkpt>
      <trkpt lat="42.84131" lon="-0.201">
        <ele>2426.0241699219</ele>
        <time>2015-07-26T12:48:13Z</time>
      </trkpt>
      <trkpt lat="42.8413" lon="-0.20093">
        <ele>2422.6596679688</ele>
        <time>2015-07-26T12:48:28Z</time>
      </trkpt>
      <trkpt lat="42.84128" lon="-0.20079">
        <ele>2421.6982421875</ele>
        <time>2015-07-26T12:48:44Z</time>
      </trkpt>
      <trkpt lat="42.84123" lon="-0.20079">
        <ele>2421.2175292969</ele>
        <time>2015-07-26T12:48:57Z</time>
      </trkpt>
      <trkpt lat="42.84115" lon="-0.20077">
        <ele>2418.3337402344</ele>
        <time>2015-07-26T12:49:12Z</time>
      </trkpt>
      <trkpt lat="42.84105" lon="-0.20074">
        <ele>2417.3723144531</ele>
        <time>2015-07-26T12:49:28Z</time>
      </trkpt>
      <trkpt lat="42.84098" lon="-0.20071">
        <ele>2415.9304199219</ele>
        <time>2015-07-26T12:49:43Z</time>
      </trkpt>
      <trkpt lat="42.84088" lon="-0.20065">
        <ele>2414.9692382812</ele>
        <time>2015-07-26T12:49:59Z</time>
      </trkpt>
      <trkpt lat="42.84077" lon="-0.20057">
        <ele>2414.0078125</ele>
        <time>2015-07-26T12:50:16Z</time>
      </trkpt>
      <trkpt lat="42.84066" lon="-0.20052">
        <ele>2412.5659179688</ele>
        <time>2015-07-26T12:50:30Z</time>
      </trkpt>
      <trkpt lat="42.84057" lon="-0.20049">
        <ele>2412.0852050781</ele>
        <time>2015-07-26T12:50:43Z</time>
      </trkpt>
      <trkpt lat="42.84052" lon="-0.20046">
        <ele>2408.7204589844</ele>
        <time>2015-07-26T12:50:50Z</time>
      </trkpt>
      <trkpt lat="42.84041" lon="-0.2004">
        <ele>2408.7204589844</ele>
        <time>2015-07-26T12:51:07Z</time>
      </trkpt>
      <trkpt lat="42.84029" lon="-0.20034">
        <ele>2408.2397460938</ele>
        <time>2015-07-26T12:51:24Z</time>
      </trkpt>
      <trkpt lat="42.8402" lon="-0.20034">
        <ele>2407.7592773438</ele>
        <time>2015-07-26T12:51:37Z</time>
      </trkpt>
      <trkpt lat="42.8401" lon="-0.2003">
        <ele>2405.8364257812</ele>
        <time>2015-07-26T12:51:49Z</time>
      </trkpt>
      <trkpt lat="42.83998" lon="-0.2003">
        <ele>2404.8752441406</ele>
        <time>2015-07-26T12:52:07Z</time>
      </trkpt>
      <trkpt lat="42.8399" lon="-0.20031">
        <ele>2402.9526367188</ele>
        <time>2015-07-26T12:52:19Z</time>
      </trkpt>
      <trkpt lat="42.83988" lon="-0.20032">
        <ele>2402.4719238281</ele>
        <time>2015-07-26T12:52:22Z</time>
      </trkpt>
      <trkpt lat="42.83976" lon="-0.20034">
        <ele>2402.4719238281</ele>
        <time>2015-07-26T12:52:39Z</time>
      </trkpt>
      <trkpt lat="42.83965" lon="-0.2003">
        <ele>2401.5107421875</ele>
        <time>2015-07-26T12:52:55Z</time>
      </trkpt>
      <trkpt lat="42.83956" lon="-0.20036">
        <ele>2401.5107421875</ele>
        <time>2015-07-26T12:53:12Z</time>
      </trkpt>
      <trkpt lat="42.83952" lon="-0.20034">
        <ele>2400.0688476562</ele>
        <time>2015-07-26T12:53:24Z</time>
      </trkpt>
      <trkpt lat="42.83944" lon="-0.20037">
        <ele>2399.5881347656</ele>
        <time>2015-07-26T12:53:42Z</time>
      </trkpt>
      <trkpt lat="42.8393" lon="-0.20042">
        <ele>2398.6267089844</ele>
        <time>2015-07-26T12:54:02Z</time>
      </trkpt>
      <trkpt lat="42.8392" lon="-0.20041">
        <ele>2396.7041015625</ele>
        <time>2015-07-26T12:54:13Z</time>
      </trkpt>
      <trkpt lat="42.83909" lon="-0.20045">
        <ele>2396.2236328125</ele>
        <time>2015-07-26T12:54:26Z</time>
      </trkpt>
      <trkpt lat="42.83904" lon="-0.20043">
        <ele>2395.2619628906</ele>
        <time>2015-07-26T12:54:30Z</time>
      </trkpt>
      <trkpt lat="42.83899" lon="-0.20044">
        <ele>2396.2236328125</ele>
        <time>2015-07-26T12:54:35Z</time>
      </trkpt>
      <trkpt lat="42.83886" lon="-0.20042">
        <ele>2396.7041015625</ele>
        <time>2015-07-26T12:54:50Z</time>
      </trkpt>
      <trkpt lat="42.83882" lon="-0.20039">
        <ele>2397.1848144531</ele>
        <time>2015-07-26T12:54:55Z</time>
      </trkpt>
      <trkpt lat="42.83871" lon="-0.2004">
        <ele>2396.2236328125</ele>
        <time>2015-07-26T12:55:13Z</time>
      </trkpt>
      <trkpt lat="42.8387" lon="-0.20041">
        <ele>2396.2236328125</ele>
        <time>2015-07-26T12:55:14Z</time>
      </trkpt>
      <trkpt lat="42.83858" lon="-0.20049">
        <ele>2395.7426757812</ele>
        <time>2015-07-26T12:55:32Z</time>
      </trkpt>
      <trkpt lat="42.83854" lon="-0.20052">
        <ele>2394.78125</ele>
        <time>2015-07-26T12:55:46Z</time>
      </trkpt>
      <trkpt lat="42.8385" lon="-0.20051">
        <ele>2393.8200683594</ele>
        <time>2015-07-26T12:55:54Z</time>
      </trkpt>
      <trkpt lat="42.83842" lon="-0.20051">
        <ele>2392.8586425781</ele>
        <time>2015-07-26T12:56:08Z</time>
      </trkpt>
      <trkpt lat="42.83832" lon="-0.20049">
        <ele>2390.9360351562</ele>
        <time>2015-07-26T12:56:23Z</time>
      </trkpt>
      <trkpt lat="42.83829" lon="-0.20058">
        <ele>2389.494140625</ele>
        <time>2015-07-26T12:56:40Z</time>
      </trkpt>
      <trkpt lat="42.83823" lon="-0.20057">
        <ele>2388.0522460938</ele>
        <time>2015-07-26T12:57:19Z</time>
      </trkpt>
      <trkpt lat="42.83818" lon="-0.20061">
        <ele>2385.6489257812</ele>
        <time>2015-07-26T12:57:36Z</time>
      </trkpt>
      <trkpt lat="42.83812" lon="-0.20063">
        <ele>2384.6877441406</ele>
        <time>2015-07-26T12:57:47Z</time>
      </trkpt>
      <trkpt lat="42.83813" lon="-0.20083">
        <ele>2384.20703125</ele>
        <time>2015-07-26T12:58:04Z</time>
      </trkpt>
      <trkpt lat="42.83809" lon="-0.20085">
        <ele>2383.7263183594</ele>
        <time>2015-07-26T12:58:19Z</time>
      </trkpt>
      <trkpt lat="42.83804" lon="-0.20081">
        <ele>2381.3229980469</ele>
        <time>2015-07-26T12:58:34Z</time>
      </trkpt>
      <trkpt lat="42.83793" lon="-0.20082">
        <ele>2380.8425292969</ele>
        <time>2015-07-26T12:58:49Z</time>
      </trkpt>
      <trkpt lat="42.83789" lon="-0.20087">
        <ele>2378.9194335938</ele>
        <time>2015-07-26T12:59:03Z</time>
      </trkpt>
      <trkpt lat="42.83788" lon="-0.20096">
        <ele>2378.9194335938</ele>
        <time>2015-07-26T12:59:19Z</time>
      </trkpt>
      <trkpt lat="42.83785" lon="-0.20097">
        <ele>2378.9194335938</ele>
        <time>2015-07-26T12:59:49Z</time>
      </trkpt>
      <trkpt lat="42.83779" lon="-0.20105">
        <ele>2378.4389648438</ele>
        <time>2015-07-26T13:00:05Z</time>
      </trkpt>
      <trkpt lat="42.8378" lon="-0.20115">
        <ele>2377.4775390625</ele>
        <time>2015-07-26T13:00:23Z</time>
      </trkpt>
      <trkpt lat="42.83779" lon="-0.20127">
        <ele>2376.9970703125</ele>
        <time>2015-07-26T13:00:39Z</time>
      </trkpt>
      <trkpt lat="42.83776" lon="-0.20133">
        <ele>2376.0356445312</ele>
        <time>2015-07-26T13:00:52Z</time>
      </trkpt>
      <trkpt lat="42.83777" lon="-0.20145">
        <ele>2373.6323242188</ele>
        <time>2015-07-26T13:01:06Z</time>
      </trkpt>
      <trkpt lat="42.83776" lon="-0.20157">
        <ele>2372.6711425781</ele>
        <time>2015-07-26T13:01:22Z</time>
      </trkpt>
      <trkpt lat="42.8377" lon="-0.20153">
        <ele>2372.1904296875</ele>
        <time>2015-07-26T13:01:38Z</time>
      </trkpt>
      <trkpt lat="42.83767" lon="-0.20155">
        <ele>2368.8259277344</ele>
        <time>2015-07-26T13:01:50Z</time>
      </trkpt>
      <trkpt lat="42.83767" lon="-0.20156">
        <ele>2369.306640625</ele>
        <time>2015-07-26T13:01:51Z</time>
      </trkpt>
      <trkpt lat="42.83769" lon="-0.20172">
        <ele>2368.3452148438</ele>
        <time>2015-07-26T13:02:07Z</time>
      </trkpt>
      <trkpt lat="42.83769" lon="-0.20184">
        <ele>2366.4226074219</ele>
        <time>2015-07-26T13:02:25Z</time>
      </trkpt>
      <trkpt lat="42.83767" lon="-0.2019">
        <ele>2365.9418945312</ele>
        <time>2015-07-26T13:02:40Z</time>
      </trkpt>
      <trkpt lat="42.83767" lon="-0.20185">
        <ele>2364.0192871094</ele>
        <time>2015-07-26T13:02:53Z</time>
      </trkpt>
      <trkpt lat="42.83767" lon="-0.20184">
        <ele>2363.0578613281</ele>
        <time>2015-07-26T13:02:55Z</time>
      </trkpt>
      <trkpt lat="42.8376" lon="-0.2017">
        <ele>2362.0964355469</ele>
        <time>2015-07-26T13:03:11Z</time>
      </trkpt>
      <trkpt lat="42.83752" lon="-0.20162">
        <ele>2360.173828125</ele>
        <time>2015-07-26T13:03:28Z</time>
      </trkpt>
      <trkpt lat="42.83746" lon="-0.20153">
        <ele>2359.6931152344</ele>
        <time>2015-07-26T13:03:44Z</time>
      </trkpt>
      <trkpt lat="42.83737" lon="-0.20146">
        <ele>2356.8093261719</ele>
        <time>2015-07-26T13:03:59Z</time>
      </trkpt>
      <trkpt lat="42.83727" lon="-0.2014">
        <ele>2355.3674316406</ele>
        <time>2015-07-26T13:04:13Z</time>
      </trkpt>
      <trkpt lat="42.8372" lon="-0.20134">
        <ele>2353.9255371094</ele>
        <time>2015-07-26T13:04:27Z</time>
      </trkpt>
      <trkpt lat="42.83713" lon="-0.20129">
        <ele>2352.9641113281</ele>
        <time>2015-07-26T13:04:43Z</time>
      </trkpt>
      <trkpt lat="42.8371" lon="-0.20136">
        <ele>2352.0026855469</ele>
        <time>2015-07-26T13:05:04Z</time>
      </trkpt>
      <trkpt lat="42.83713" lon="-0.20145">
        <ele>2350.5607910156</ele>
        <time>2015-07-26T13:05:20Z</time>
      </trkpt>
      <trkpt lat="42.83708" lon="-0.20143">
        <ele>2349.599609375</ele>
        <time>2015-07-26T13:05:34Z</time>
      </trkpt>
      <trkpt lat="42.83704" lon="-0.20141">
        <ele>2347.6767578125</ele>
        <time>2015-07-26T13:05:47Z</time>
      </trkpt>
      <trkpt lat="42.83698" lon="-0.20144">
        <ele>2345.7541503906</ele>
        <time>2015-07-26T13:06:00Z</time>
      </trkpt>
      <trkpt lat="42.83691" lon="-0.20144">
        <ele>2342.3896484375</ele>
        <time>2015-07-26T13:06:12Z</time>
      </trkpt>
      <trkpt lat="42.83686" lon="-0.20142">
        <ele>2341.9089355469</ele>
        <time>2015-07-26T13:06:18Z</time>
      </trkpt>
      <trkpt lat="42.83675" lon="-0.20138">
        <ele>2339.986328125</ele>
        <time>2015-07-26T13:06:30Z</time>
      </trkpt>
      <trkpt lat="42.8367" lon="-0.20137">
        <ele>2339.5056152344</ele>
        <time>2015-07-26T13:06:35Z</time>
      </trkpt>
      <trkpt lat="42.83657" lon="-0.20138">
        <ele>2340.9475097656</ele>
        <time>2015-07-26T13:06:58Z</time>
      </trkpt>
      <trkpt lat="42.83647" lon="-0.20136">
        <ele>2342.3896484375</ele>
        <time>2015-07-26T13:07:10Z</time>
      </trkpt>
      <trkpt lat="42.83633" lon="-0.20143">
        <ele>2341.9089355469</ele>
        <time>2015-07-26T13:07:30Z</time>
      </trkpt>
      <trkpt lat="42.83624" lon="-0.20146">
        <ele>2341.9089355469</ele>
        <time>2015-07-26T13:07:43Z</time>
      </trkpt>
      <trkpt lat="42.83613" lon="-0.20149">
        <ele>2339.0249023438</ele>
        <time>2015-07-26T13:08:13Z</time>
      </trkpt>
      <trkpt lat="42.83598" lon="-0.20153">
        <ele>2340.466796875</ele>
        <time>2015-07-26T13:08:37Z</time>
      </trkpt>
      <trkpt lat="42.83588" lon="-0.20156">
        <ele>2341.4282226562</ele>
        <time>2015-07-26T13:08:49Z</time>
      </trkpt>
      <trkpt lat="42.83582" lon="-0.20159">
        <ele>2341.4282226562</ele>
        <time>2015-07-26T13:09:03Z</time>
      </trkpt>
      <trkpt lat="42.83572" lon="-0.20163">
        <ele>2340.466796875</ele>
        <time>2015-07-26T13:09:20Z</time>
      </trkpt>
      <trkpt lat="42.83566" lon="-0.20164">
        <ele>2340.466796875</ele>
        <time>2015-07-26T13:09:33Z</time>
      </trkpt>
      <trkpt lat="42.83559" lon="-0.20165">
        <ele>2339.986328125</ele>
        <time>2015-07-26T13:09:45Z</time>
      </trkpt>
      <trkpt lat="42.83555" lon="-0.20167">
        <ele>2337.5830078125</ele>
        <time>2015-07-26T13:10:00Z</time>
      </trkpt>
      <trkpt lat="42.83547" lon="-0.20173">
        <ele>2334.2185058594</ele>
        <time>2015-07-26T13:10:43Z</time>
      </trkpt>
      <trkpt lat="42.83541" lon="-0.20169">
        <ele>2335.1796875</ele>
        <time>2015-07-26T13:10:53Z</time>
      </trkpt>
      <trkpt lat="42.83536" lon="-0.20167">
        <ele>2332.2958984375</ele>
        <time>2015-07-26T13:11:07Z</time>
      </trkpt>
      <trkpt lat="42.83525" lon="-0.20175">
        <ele>2329.4116210938</ele>
        <time>2015-07-26T13:11:31Z</time>
      </trkpt>
      <trkpt lat="42.83518" lon="-0.20175">
        <ele>2328.4504394531</ele>
        <time>2015-07-26T13:11:42Z</time>
      </trkpt>
      <trkpt lat="42.83505" lon="-0.20178">
        <ele>2327.9697265625</ele>
        <time>2015-07-26T13:11:54Z</time>
      </trkpt>
      <trkpt lat="42.83498" lon="-0.20176">
        <ele>2328.4504394531</ele>
        <time>2015-07-26T13:12:01Z</time>
      </trkpt>
      <trkpt lat="42.83486" lon="-0.20175">
        <ele>2328.4504394531</ele>
        <time>2015-07-26T13:12:15Z</time>
      </trkpt>
      <trkpt lat="42.83474" lon="-0.2017">
        <ele>2327.9697265625</ele>
        <time>2015-07-26T13:12:34Z</time>
      </trkpt>
      <trkpt lat="42.83465" lon="-0.20173">
        <ele>2328.4504394531</ele>
        <time>2015-07-26T13:12:48Z</time>
      </trkpt>
      <trkpt lat="42.83462" lon="-0.20173">
        <ele>2329.8923339844</ele>
        <time>2015-07-26T13:12:54Z</time>
      </trkpt>
      <trkpt lat="42.83455" lon="-0.20178">
        <ele>2331.8149414062</ele>
        <time>2015-07-26T13:13:08Z</time>
      </trkpt>
      <trkpt lat="42.83452" lon="-0.20182">
        <ele>2331.8149414062</ele>
        <time>2015-07-26T13:13:22Z</time>
      </trkpt>
      <trkpt lat="42.8345" lon="-0.20184">
        <ele>2331.8149414062</ele>
        <time>2015-07-26T13:13:26Z</time>
      </trkpt>
      <trkpt lat="42.83437" lon="-0.2019">
        <ele>2332.2958984375</ele>
        <time>2015-07-26T13:13:45Z</time>
      </trkpt>
      <trkpt lat="42.83434" lon="-0.2019">
        <ele>2330.8537597656</ele>
        <time>2015-07-26T13:13:49Z</time>
      </trkpt>
      <trkpt lat="42.83425" lon="-0.20192">
        <ele>2329.4116210938</ele>
        <time>2015-07-26T13:14:07Z</time>
      </trkpt>
      <trkpt lat="42.83421" lon="-0.20203">
        <ele>2329.8923339844</ele>
        <time>2015-07-26T13:14:23Z</time>
      </trkpt>
      <trkpt lat="42.83415" lon="-0.20213">
        <ele>2330.373046875</ele>
        <time>2015-07-26T13:14:34Z</time>
      </trkpt>
      <trkpt lat="42.8341" lon="-0.20232">
        <ele>2330.8537597656</ele>
        <time>2015-07-26T13:14:52Z</time>
      </trkpt>
      <trkpt lat="42.83397" lon="-0.20242">
        <ele>2330.8537597656</ele>
        <time>2015-07-26T13:15:08Z</time>
      </trkpt>
      <trkpt lat="42.83386" lon="-0.20254">
        <ele>2330.8537597656</ele>
        <time>2015-07-26T13:15:24Z</time>
      </trkpt>
      <trkpt lat="42.83384" lon="-0.20257">
        <ele>2330.8537597656</ele>
        <time>2015-07-26T13:15:27Z</time>
      </trkpt>
      <trkpt lat="42.83376" lon="-0.20265">
        <ele>2331.3342285156</ele>
        <time>2015-07-26T13:15:45Z</time>
      </trkpt>
      <trkpt lat="42.83375" lon="-0.20265">
        <ele>2330.8537597656</ele>
        <time>2015-07-26T13:16:06Z</time>
      </trkpt>
      <trkpt lat="42.83367" lon="-0.20272">
        <ele>2329.4116210938</ele>
        <time>2015-07-26T13:16:35Z</time>
      </trkpt>
      <trkpt lat="42.83355" lon="-0.20278">
        <ele>2327.0085449219</ele>
        <time>2015-07-26T13:16:52Z</time>
      </trkpt>
      <trkpt lat="42.83351" lon="-0.20281">
        <ele>2327.0085449219</ele>
        <time>2015-07-26T13:16:58Z</time>
      </trkpt>
      <trkpt lat="42.83349" lon="-0.20285">
        <ele>2327.0085449219</ele>
        <time>2015-07-26T13:17:30Z</time>
      </trkpt>
      <trkpt lat="42.83346" lon="-0.20292">
        <ele>2327.9697265625</ele>
        <time>2015-07-26T13:17:41Z</time>
      </trkpt>
      <trkpt lat="42.8334" lon="-0.20307">
        <ele>2326.0471191406</ele>
        <time>2015-07-26T13:18:00Z</time>
      </trkpt>
      <trkpt lat="42.83331" lon="-0.20313">
        <ele>2323.1633300781</ele>
        <time>2015-07-26T13:18:18Z</time>
      </trkpt>
      <trkpt lat="42.83324" lon="-0.20313">
        <ele>2322.2019042969</ele>
        <time>2015-07-26T13:18:32Z</time>
      </trkpt>
      <trkpt lat="42.83322" lon="-0.20327">
        <ele>2319.7985839844</ele>
        <time>2015-07-26T13:18:47Z</time>
      </trkpt>
      <trkpt lat="42.83324" lon="-0.20333">
        <ele>2319.3181152344</ele>
        <time>2015-07-26T13:19:04Z</time>
      </trkpt>
      <trkpt lat="42.83327" lon="-0.20336">
        <ele>2316.9147949219</ele>
        <time>2015-07-26T13:19:13Z</time>
      </trkpt>
      <trkpt lat="42.8333" lon="-0.2034">
        <ele>2316.9147949219</ele>
        <time>2015-07-26T13:19:20Z</time>
      </trkpt>
      <trkpt lat="42.83324" lon="-0.20354">
        <ele>2314.9919433594</ele>
        <time>2015-07-26T13:19:38Z</time>
      </trkpt>
      <trkpt lat="42.83318" lon="-0.2036">
        <ele>2313.0693359375</ele>
        <time>2015-07-26T13:19:52Z</time>
      </trkpt>
      <trkpt lat="42.83311" lon="-0.20364">
        <ele>2310.666015625</ele>
        <time>2015-07-26T13:20:06Z</time>
      </trkpt>
      <trkpt lat="42.83305" lon="-0.2037">
        <ele>2308.2626953125</ele>
        <time>2015-07-26T13:20:20Z</time>
      </trkpt>
      <trkpt lat="42.83305" lon="-0.20372">
        <ele>2309.7045898438</ele>
        <time>2015-07-26T13:20:22Z</time>
      </trkpt>
      <trkpt lat="42.83303" lon="-0.20375">
        <ele>2308.2626953125</ele>
        <time>2015-07-26T13:20:26Z</time>
      </trkpt>
      <trkpt lat="42.83299" lon="-0.20382">
        <ele>2305.859375</ele>
        <time>2015-07-26T13:20:41Z</time>
      </trkpt>
      <trkpt lat="42.83294" lon="-0.20377">
        <ele>2302.9755859375</ele>
        <time>2015-07-26T13:20:58Z</time>
      </trkpt>
      <trkpt lat="42.83294" lon="-0.20363">
        <ele>2300.572265625</ele>
        <time>2015-07-26T13:21:14Z</time>
      </trkpt>
      <trkpt lat="42.83293" lon="-0.20357">
        <ele>2297.2075195312</ele>
        <time>2015-07-26T13:21:25Z</time>
      </trkpt>
      <trkpt lat="42.83288" lon="-0.2036">
        <ele>2294.3234863281</ele>
        <time>2015-07-26T13:21:41Z</time>
      </trkpt>
      <trkpt lat="42.83287" lon="-0.20361">
        <ele>2293.3623046875</ele>
        <time>2015-07-26T13:21:43Z</time>
      </trkpt>
      <trkpt lat="42.8328" lon="-0.20371">
        <ele>2291.4396972656</ele>
        <time>2015-07-26T13:22:00Z</time>
      </trkpt>
      <trkpt lat="42.83279" lon="-0.20373">
        <ele>2289.5170898438</ele>
        <time>2015-07-26T13:22:09Z</time>
      </trkpt>
      <trkpt lat="42.83279" lon="-0.20375">
        <ele>2287.5944824219</ele>
        <time>2015-07-26T13:22:12Z</time>
      </trkpt>
      <trkpt lat="42.83276" lon="-0.20386">
        <ele>2287.1137695312</ele>
        <time>2015-07-26T13:22:24Z</time>
      </trkpt>
      <trkpt lat="42.83272" lon="-0.20397">
        <ele>2285.1911621094</ele>
        <time>2015-07-26T13:22:39Z</time>
      </trkpt>
      <trkpt lat="42.83273" lon="-0.20382">
        <ele>2283.7490234375</ele>
        <time>2015-07-26T13:22:54Z</time>
      </trkpt>
      <trkpt lat="42.83271" lon="-0.20371">
        <ele>2280.865234375</ele>
        <time>2015-07-26T13:23:12Z</time>
      </trkpt>
      <trkpt lat="42.83267" lon="-0.20378">
        <ele>2279.9038085938</ele>
        <time>2015-07-26T13:23:26Z</time>
      </trkpt>
      <trkpt lat="42.83265" lon="-0.20387">
        <ele>2278.4619140625</ele>
        <time>2015-07-26T13:23:46Z</time>
      </trkpt>
      <trkpt lat="42.83259" lon="-0.20403">
        <ele>2277.0200195312</ele>
        <time>2015-07-26T13:24:04Z</time>
      </trkpt>
      <trkpt lat="42.83257" lon="-0.20396">
        <ele>2275.5778808594</ele>
        <time>2015-07-26T13:24:16Z</time>
      </trkpt>
      <trkpt lat="42.83254" lon="-0.2038">
        <ele>2272.6940917969</ele>
        <time>2015-07-26T13:24:31Z</time>
      </trkpt>
      <trkpt lat="42.83251" lon="-0.20372">
        <ele>2270.771484375</ele>
        <time>2015-07-26T13:24:42Z</time>
      </trkpt>
      <trkpt lat="42.83248" lon="-0.20368">
        <ele>2269.3295898438</ele>
        <time>2015-07-26T13:24:57Z</time>
      </trkpt>
      <trkpt lat="42.83239" lon="-0.20364">
        <ele>2268.8488769531</ele>
        <time>2015-07-26T13:25:16Z</time>
      </trkpt>
      <trkpt lat="42.83233" lon="-0.20361">
        <ele>2265.9645996094</ele>
        <time>2015-07-26T13:25:25Z</time>
      </trkpt>
      <trkpt lat="42.83223" lon="-0.20358">
        <ele>2264.0419921875</ele>
        <time>2015-07-26T13:25:39Z</time>
      </trkpt>
      <trkpt lat="42.83213" lon="-0.20354">
        <ele>2263.0808105469</ele>
        <time>2015-07-26T13:25:54Z</time>
      </trkpt>
      <trkpt lat="42.83209" lon="-0.20343">
        <ele>2261.158203125</ele>
        <time>2015-07-26T13:26:06Z</time>
      </trkpt>
      <trkpt lat="42.83206" lon="-0.2033">
        <ele>2259.2355957031</ele>
        <time>2015-07-26T13:26:20Z</time>
      </trkpt>
      <trkpt lat="42.83207" lon="-0.20326">
        <ele>2259.2355957031</ele>
        <time>2015-07-26T13:26:24Z</time>
      </trkpt>
      <trkpt lat="42.83214" lon="-0.2031">
        <ele>2257.7937011719</ele>
        <time>2015-07-26T13:26:43Z</time>
      </trkpt>
      <trkpt lat="42.83226" lon="-0.20304">
        <ele>2256.3515625</ele>
        <time>2015-07-26T13:26:59Z</time>
      </trkpt>
      <trkpt lat="42.83232" lon="-0.203">
        <ele>2254.4289550781</ele>
        <time>2015-07-26T13:27:16Z</time>
      </trkpt>
      <trkpt lat="42.83239" lon="-0.20291">
        <ele>2252.5063476562</ele>
        <time>2015-07-26T13:27:36Z</time>
      </trkpt>
      <trkpt lat="42.83241" lon="-0.20283">
        <ele>2250.1030273438</ele>
        <time>2015-07-26T13:27:51Z</time>
      </trkpt>
      <trkpt lat="42.83232" lon="-0.20286">
        <ele>2248.1801757812</ele>
        <time>2015-07-26T13:28:09Z</time>
      </trkpt>
      <trkpt lat="42.83222" lon="-0.20284">
        <ele>2245.2963867188</ele>
        <time>2015-07-26T13:28:24Z</time>
      </trkpt>
      <trkpt lat="42.83221" lon="-0.20284">
        <ele>2245.2963867188</ele>
        <time>2015-07-26T13:28:25Z</time>
      </trkpt>
      <trkpt lat="42.83224" lon="-0.20273">
        <ele>2242.4125976562</ele>
        <time>2015-07-26T13:28:40Z</time>
      </trkpt>
      <trkpt lat="42.83224" lon="-0.20262">
        <ele>2241.451171875</ele>
        <time>2015-07-26T13:28:54Z</time>
      </trkpt>
      <trkpt lat="42.83224" lon="-0.20249">
        <ele>2239.0478515625</ele>
        <time>2015-07-26T13:29:09Z</time>
      </trkpt>
      <trkpt lat="42.83223" lon="-0.20243">
        <ele>2236.64453125</ele>
        <time>2015-07-26T13:29:17Z</time>
      </trkpt>
      <trkpt lat="42.83218" lon="-0.20238">
        <ele>2232.7990722656</ele>
        <time>2015-07-26T13:29:29Z</time>
      </trkpt>
      <trkpt lat="42.8321" lon="-0.20248">
        <ele>2232.3186035156</ele>
        <time>2015-07-26T13:29:44Z</time>
      </trkpt>
      <trkpt lat="42.832" lon="-0.20248">
        <ele>2231.837890625</ele>
        <time>2015-07-26T13:30:01Z</time>
      </trkpt>
      <trkpt lat="42.832" lon="-0.20235">
        <ele>2229.9152832031</ele>
        <time>2015-07-26T13:30:16Z</time>
      </trkpt>
      <trkpt lat="42.83193" lon="-0.20231">
        <ele>2227.0314941406</ele>
        <time>2015-07-26T13:30:29Z</time>
      </trkpt>
      <trkpt lat="42.83192" lon="-0.20229">
        <ele>2226.55078125</ele>
        <time>2015-07-26T13:30:31Z</time>
      </trkpt>
      <trkpt lat="42.83183" lon="-0.20216">
        <ele>2224.1474609375</ele>
        <time>2015-07-26T13:30:50Z</time>
      </trkpt>
      <trkpt lat="42.83181" lon="-0.20207">
        <ele>2224.1474609375</ele>
        <time>2015-07-26T13:30:58Z</time>
      </trkpt>
      <trkpt lat="42.83181" lon="-0.20189">
        <ele>2222.7055664062</ele>
        <time>2015-07-26T13:31:16Z</time>
      </trkpt>
      <trkpt lat="42.83182" lon="-0.20176">
        <ele>2221.2634277344</ele>
        <time>2015-07-26T13:31:32Z</time>
      </trkpt>
      <trkpt lat="42.83185" lon="-0.20172">
        <ele>2219.8212890625</ele>
        <time>2015-07-26T13:31:39Z</time>
      </trkpt>
      <trkpt lat="42.8319" lon="-0.20159">
        <ele>2216.9375</ele>
        <time>2015-07-26T13:31:54Z</time>
      </trkpt>
      <trkpt lat="42.83195" lon="-0.20147">
        <ele>2214.5341796875</ele>
        <time>2015-07-26T13:32:12Z</time>
      </trkpt>
      <trkpt lat="42.83202" lon="-0.20146">
        <ele>2214.0534667969</ele>
        <time>2015-07-26T13:32:33Z</time>
      </trkpt>
      <trkpt lat="42.83206" lon="-0.2014">
        <ele>2212.6115722656</ele>
        <time>2015-07-26T13:32:47Z</time>
      </trkpt>
      <trkpt lat="42.83202" lon="-0.20129">
        <ele>2209.2470703125</ele>
        <time>2015-07-26T13:33:00Z</time>
      </trkpt>
      <trkpt lat="42.83193" lon="-0.20122">
        <ele>2208.2856445312</ele>
        <time>2015-07-26T13:33:15Z</time>
      </trkpt>
      <trkpt lat="42.83192" lon="-0.20122">
        <ele>2208.7663574219</ele>
        <time>2015-07-26T13:33:16Z</time>
      </trkpt>
      <trkpt lat="42.83187" lon="-0.20118">
        <ele>2207.8051757812</ele>
        <time>2015-07-26T13:33:23Z</time>
      </trkpt>
      <trkpt lat="42.8318" lon="-0.20107">
        <ele>2205.8823242188</ele>
        <time>2015-07-26T13:33:39Z</time>
      </trkpt>
      <trkpt lat="42.83168" lon="-0.20092">
        <ele>2203.4790039062</ele>
        <time>2015-07-26T13:33:57Z</time>
      </trkpt>
      <trkpt lat="42.83161" lon="-0.20084">
        <ele>2201.0756835938</ele>
        <time>2015-07-26T13:34:10Z</time>
      </trkpt>
      <trkpt lat="42.83157" lon="-0.20075">
        <ele>2199.6337890625</ele>
        <time>2015-07-26T13:34:19Z</time>
      </trkpt>
      <trkpt lat="42.83144" lon="-0.20074">
        <ele>2197.7111816406</ele>
        <time>2015-07-26T13:34:36Z</time>
      </trkpt>
      <trkpt lat="42.83129" lon="-0.20078">
        <ele>2197.23046875</ele>
        <time>2015-07-26T13:34:54Z</time>
      </trkpt>
      <trkpt lat="42.83114" lon="-0.20078">
        <ele>2195.3078613281</ele>
        <time>2015-07-26T13:35:10Z</time>
      </trkpt>
      <trkpt lat="42.83096" lon="-0.20084">
        <ele>2194.3464355469</ele>
        <time>2015-07-26T13:35:29Z</time>
      </trkpt>
      <trkpt lat="42.83085" lon="-0.20088">
        <ele>2194.3464355469</ele>
        <time>2015-07-26T13:35:45Z</time>
      </trkpt>
      <trkpt lat="42.83072" lon="-0.20093">
        <ele>2193.8659667969</ele>
        <time>2015-07-26T13:36:02Z</time>
      </trkpt>
      <trkpt lat="42.83057" lon="-0.20096">
        <ele>2192.4240722656</ele>
        <time>2015-07-26T13:36:20Z</time>
      </trkpt>
      <trkpt lat="42.83043" lon="-0.20098">
        <ele>2190.9819335938</ele>
        <time>2015-07-26T13:36:34Z</time>
      </trkpt>
      <trkpt lat="42.83028" lon="-0.20103">
        <ele>2189.0593261719</ele>
        <time>2015-07-26T13:36:52Z</time>
      </trkpt>
      <trkpt lat="42.83016" lon="-0.20107">
        <ele>2187.1364746094</ele>
        <time>2015-07-26T13:37:07Z</time>
      </trkpt>
      <trkpt lat="42.83" lon="-0.20108">
        <ele>2186.1752929688</ele>
        <time>2015-07-26T13:37:23Z</time>
      </trkpt>
      <trkpt lat="42.82997" lon="-0.20107">
        <ele>2189.0593261719</ele>
        <time>2015-07-26T13:37:28Z</time>
      </trkpt>
      <trkpt lat="42.82994" lon="-0.20108">
        <ele>2186.6557617188</ele>
        <time>2015-07-26T13:37:32Z</time>
      </trkpt>
      <trkpt lat="42.82986" lon="-0.20104">
        <ele>2186.6557617188</ele>
        <time>2015-07-26T13:37:48Z</time>
      </trkpt>
      <trkpt lat="42.82985" lon="-0.201">
        <ele>2183.7719726562</ele>
        <time>2015-07-26T13:37:53Z</time>
      </trkpt>
      <trkpt lat="42.82983" lon="-0.20097">
        <ele>2181.8493652344</ele>
        <time>2015-07-26T13:38:06Z</time>
      </trkpt>
      <trkpt lat="42.82972" lon="-0.20091">
        <ele>2179.9267578125</ele>
        <time>2015-07-26T13:38:25Z</time>
      </trkpt>
      <trkpt lat="42.82959" lon="-0.20089">
        <ele>2178.9653320312</ele>
        <time>2015-07-26T13:38:41Z</time>
      </trkpt>
      <trkpt lat="42.82955" lon="-0.20074">
        <ele>2177.04296875</ele>
        <time>2015-07-26T13:38:57Z</time>
      </trkpt>
      <trkpt lat="42.82956" lon="-0.20069">
        <ele>2175.1201171875</ele>
        <time>2015-07-26T13:39:01Z</time>
      </trkpt>
      <trkpt lat="42.82956" lon="-0.20053">
        <ele>2172.7170410156</ele>
        <time>2015-07-26T13:39:16Z</time>
      </trkpt>
      <trkpt lat="42.8295" lon="-0.20042">
        <ele>2169.8327636719</ele>
        <time>2015-07-26T13:39:30Z</time>
      </trkpt>
      <trkpt lat="42.82944" lon="-0.20033">
        <ele>2168.3908691406</ele>
        <time>2015-07-26T13:39:42Z</time>
      </trkpt>
      <trkpt lat="42.82931" lon="-0.20028">
        <ele>2165.0263671875</ele>
        <time>2015-07-26T13:40:00Z</time>
      </trkpt>
      <trkpt lat="42.82919" lon="-0.20025">
        <ele>2164.0649414062</ele>
        <time>2015-07-26T13:40:18Z</time>
      </trkpt>
      <trkpt lat="42.82912" lon="-0.20025">
        <ele>2163.5842285156</ele>
        <time>2015-07-26T13:40:34Z</time>
      </trkpt>
      <trkpt lat="42.82905" lon="-0.20025">
        <ele>2162.1423339844</ele>
        <time>2015-07-26T13:40:46Z</time>
      </trkpt>
      <trkpt lat="42.82896" lon="-0.20025">
        <ele>2159.2585449219</ele>
        <time>2015-07-26T13:40:59Z</time>
      </trkpt>
      <trkpt lat="42.82896" lon="-0.20033">
        <ele>2156.8552246094</ele>
        <time>2015-07-26T13:41:11Z</time>
      </trkpt>
      <trkpt lat="42.82902" lon="-0.20042">
        <ele>2154.9323730469</ele>
        <time>2015-07-26T13:41:26Z</time>
      </trkpt>
      <trkpt lat="42.82902" lon="-0.20049">
        <ele>2153.9711914062</ele>
        <time>2015-07-26T13:41:41Z</time>
      </trkpt>
      <trkpt lat="42.82893" lon="-0.20046">
        <ele>2153.009765625</ele>
        <time>2015-07-26T13:41:57Z</time>
      </trkpt>
      <trkpt lat="42.82881" lon="-0.20043">
        <ele>2149.6452636719</ele>
        <time>2015-07-26T13:42:13Z</time>
      </trkpt>
      <trkpt lat="42.8287" lon="-0.20043">
        <ele>2148.203125</ele>
        <time>2015-07-26T13:42:25Z</time>
      </trkpt>
      <trkpt lat="42.82852" lon="-0.20045">
        <ele>2145.8000488281</ele>
        <time>2015-07-26T13:42:47Z</time>
      </trkpt>
      <trkpt lat="42.82843" lon="-0.20044">
        <ele>2143.8774414062</ele>
        <time>2015-07-26T13:43:05Z</time>
      </trkpt>
      <trkpt lat="42.82832" lon="-0.20039">
        <ele>2141.9548339844</ele>
        <time>2015-07-26T13:43:22Z</time>
      </trkpt>
      <trkpt lat="42.82828" lon="-0.20039">
        <ele>2140.5126953125</ele>
        <time>2015-07-26T13:43:28Z</time>
      </trkpt>
      <trkpt lat="42.82817" lon="-0.20031">
        <ele>2138.109375</ele>
        <time>2015-07-26T13:43:45Z</time>
      </trkpt>
      <trkpt lat="42.8281" lon="-0.20021">
        <ele>2135.7060546875</ele>
        <time>2015-07-26T13:44:01Z</time>
      </trkpt>
      <trkpt lat="42.82803" lon="-0.20015">
        <ele>2133.7834472656</ele>
        <time>2015-07-26T13:44:16Z</time>
      </trkpt>
      <trkpt lat="42.82791" lon="-0.20015">
        <ele>2132.3415527344</ele>
        <time>2015-07-26T13:44:32Z</time>
      </trkpt>
      <trkpt lat="42.82777" lon="-0.20013">
        <ele>2129.9382324219</ele>
        <time>2015-07-26T13:44:50Z</time>
      </trkpt>
      <trkpt lat="42.82767" lon="-0.20007">
        <ele>2128.015625</ele>
        <time>2015-07-26T13:45:07Z</time>
      </trkpt>
      <trkpt lat="42.82758" lon="-0.19999">
        <ele>2126.0930175781</ele>
        <time>2015-07-26T13:45:25Z</time>
      </trkpt>
      <trkpt lat="42.82766" lon="-0.20017">
        <ele>2124.1704101562</ele>
        <time>2015-07-26T13:45:43Z</time>
      </trkpt>
      <trkpt lat="42.82771" lon="-0.20024">
        <ele>2123.689453125</ele>
        <time>2015-07-26T13:45:58Z</time>
      </trkpt>
      <trkpt lat="42.82765" lon="-0.20025">
        <ele>2121.2861328125</ele>
        <time>2015-07-26T13:46:13Z</time>
      </trkpt>
      <trkpt lat="42.82756" lon="-0.2002">
        <ele>2119.8442382812</ele>
        <time>2015-07-26T13:46:28Z</time>
      </trkpt>
      <trkpt lat="42.82751" lon="-0.20017">
        <ele>2116.9604492188</ele>
        <time>2015-07-26T13:46:36Z</time>
      </trkpt>
      <trkpt lat="42.82746" lon="-0.20012">
        <ele>2116.4797363281</ele>
        <time>2015-07-26T13:46:53Z</time>
      </trkpt>
      <trkpt lat="42.8274" lon="-0.20006">
        <ele>2113.115234375</ele>
        <time>2015-07-26T13:47:04Z</time>
      </trkpt>
      <trkpt lat="42.82735" lon="-0.20003">
        <ele>2110.7119140625</ele>
        <time>2015-07-26T13:47:18Z</time>
      </trkpt>
      <trkpt lat="42.82733" lon="-0.20006">
        <ele>2108.7893066406</ele>
        <time>2015-07-26T13:47:32Z</time>
      </trkpt>
      <trkpt lat="42.82737" lon="-0.20018">
        <ele>2106.3857421875</ele>
        <time>2015-07-26T13:47:47Z</time>
      </trkpt>
      <trkpt lat="42.82741" lon="-0.20027">
        <ele>2105.4245605469</ele>
        <time>2015-07-26T13:47:58Z</time>
      </trkpt>
      <trkpt lat="42.82743" lon="-0.20037">
        <ele>2103.9826660156</ele>
        <time>2015-07-26T13:48:12Z</time>
      </trkpt>
      <trkpt lat="42.82744" lon="-0.20044">
        <ele>2104.9438476562</ele>
        <time>2015-07-26T13:48:31Z</time>
      </trkpt>
      <trkpt lat="42.82741" lon="-0.20044">
        <ele>2102.5405273438</ele>
        <time>2015-07-26T13:48:46Z</time>
      </trkpt>
      <trkpt lat="42.82736" lon="-0.20038">
        <ele>2099.1760253906</ele>
        <time>2015-07-26T13:49:00Z</time>
      </trkpt>
      <trkpt lat="42.82729" lon="-0.20031">
        <ele>2098.2145996094</ele>
        <time>2015-07-26T13:49:16Z</time>
      </trkpt>
      <trkpt lat="42.82719" lon="-0.20022">
        <ele>2095.3308105469</ele>
        <time>2015-07-26T13:49:32Z</time>
      </trkpt>
      <trkpt lat="42.8271" lon="-0.20013">
        <ele>2092.9274902344</ele>
        <time>2015-07-26T13:49:47Z</time>
      </trkpt>
      <trkpt lat="42.82706" lon="-0.2001">
        <ele>2092.4470214844</ele>
        <time>2015-07-26T13:49:59Z</time>
      </trkpt>
      <trkpt lat="42.82706" lon="-0.20009">
        <ele>2092.9274902344</ele>
        <time>2015-07-26T13:50:00Z</time>
      </trkpt>
      <trkpt lat="42.82693" lon="-0.20002">
        <ele>2089.5627441406</ele>
        <time>2015-07-26T13:50:17Z</time>
      </trkpt>
      <trkpt lat="42.82686" lon="-0.19994">
        <ele>2087.1594238281</ele>
        <time>2015-07-26T13:50:30Z</time>
      </trkpt>
      <trkpt lat="42.82677" lon="-0.19986">
        <ele>2084.2756347656</ele>
        <time>2015-07-26T13:50:46Z</time>
      </trkpt>
      <trkpt lat="42.82663" lon="-0.19977">
        <ele>2083.3142089844</ele>
        <time>2015-07-26T13:51:03Z</time>
      </trkpt>
      <trkpt lat="42.82657" lon="-0.19978">
        <ele>2081.8723144531</ele>
        <time>2015-07-26T13:51:17Z</time>
      </trkpt>
      <trkpt lat="42.82657" lon="-0.19987">
        <ele>2079.4689941406</ele>
        <time>2015-07-26T13:51:26Z</time>
      </trkpt>
      <trkpt lat="42.82655" lon="-0.20001">
        <ele>2078.5078125</ele>
        <time>2015-07-26T13:51:41Z</time>
      </trkpt>
      <trkpt lat="42.82658" lon="-0.20022">
        <ele>2077.0659179688</ele>
        <time>2015-07-26T13:51:56Z</time>
      </trkpt>
      <trkpt lat="42.82657" lon="-0.2004">
        <ele>2073.2204589844</ele>
        <time>2015-07-26T13:52:12Z</time>
      </trkpt>
      <trkpt lat="42.82657" lon="-0.20043">
        <ele>2072.7397460938</ele>
        <time>2015-07-26T13:52:15Z</time>
      </trkpt>
      <trkpt lat="42.8265" lon="-0.20064">
        <ele>2071.2976074219</ele>
        <time>2015-07-26T13:52:34Z</time>
      </trkpt>
      <trkpt lat="42.82641" lon="-0.20085">
        <ele>2069.3752441406</ele>
        <time>2015-07-26T13:52:50Z</time>
      </trkpt>
      <trkpt lat="42.82638" lon="-0.2011">
        <ele>2067.9331054688</ele>
        <time>2015-07-26T13:53:07Z</time>
      </trkpt>
      <trkpt lat="42.82639" lon="-0.20112">
        <ele>2067.9331054688</ele>
        <time>2015-07-26T13:53:09Z</time>
      </trkpt>
      <trkpt lat="42.82636" lon="-0.20129">
        <ele>2066.4912109375</ele>
        <time>2015-07-26T13:53:25Z</time>
      </trkpt>
      <trkpt lat="42.82628" lon="-0.20141">
        <ele>2064.087890625</ele>
        <time>2015-07-26T13:53:41Z</time>
      </trkpt>
      <trkpt lat="42.82623" lon="-0.20146">
        <ele>2061.2041015625</ele>
        <time>2015-07-26T13:53:48Z</time>
      </trkpt>
      <trkpt lat="42.82614" lon="-0.20145">
        <ele>2060.7233886719</ele>
        <time>2015-07-26T13:53:58Z</time>
      </trkpt>
      <trkpt lat="42.82606" lon="-0.20137">
        <ele>2059.28125</ele>
        <time>2015-07-26T13:54:13Z</time>
      </trkpt>
      <trkpt lat="42.82606" lon="-0.20136">
        <ele>2059.28125</ele>
        <time>2015-07-26T13:54:16Z</time>
      </trkpt>
      <trkpt lat="42.82592" lon="-0.20121">
        <ele>2058.8005371094</ele>
        <time>2015-07-26T13:54:35Z</time>
      </trkpt>
      <trkpt lat="42.82587" lon="-0.20111">
        <ele>2057.8393554688</ele>
        <time>2015-07-26T13:54:43Z</time>
      </trkpt>
      <trkpt lat="42.82582" lon="-0.20098">
        <ele>2054.9553222656</ele>
        <time>2015-07-26T13:54:56Z</time>
      </trkpt>
      <trkpt lat="42.82581" lon="-0.20086">
        <ele>2053.0327148438</ele>
        <time>2015-07-26T13:55:10Z</time>
      </trkpt>
      <trkpt lat="42.82579" lon="-0.20074">
        <ele>2052.0712890625</ele>
        <time>2015-07-26T13:55:24Z</time>
      </trkpt>
      <trkpt lat="42.82574" lon="-0.20053">
        <ele>2050.1489257812</ele>
        <time>2015-07-26T13:55:41Z</time>
      </trkpt>
      <trkpt lat="42.82568" lon="-0.2004">
        <ele>2048.2260742188</ele>
        <time>2015-07-26T13:56:00Z</time>
      </trkpt>
      <trkpt lat="42.82554" lon="-0.20034">
        <ele>2046.7841796875</ele>
        <time>2015-07-26T13:56:17Z</time>
      </trkpt>
      <trkpt lat="42.82547" lon="-0.20035">
        <ele>2043.9001464844</ele>
        <time>2015-07-26T13:56:29Z</time>
      </trkpt>
      <trkpt lat="42.82546" lon="-0.20034">
        <ele>2043.4194335938</ele>
        <time>2015-07-26T13:56:31Z</time>
      </trkpt>
      <trkpt lat="42.82536" lon="-0.20024">
        <ele>2041.0161132812</ele>
        <time>2015-07-26T13:56:46Z</time>
      </trkpt>
      <trkpt lat="42.82524" lon="-0.20015">
        <ele>2038.1323242188</ele>
        <time>2015-07-26T13:57:01Z</time>
      </trkpt>
      <trkpt lat="42.82517" lon="-0.20007">
        <ele>2037.6516113281</ele>
        <time>2015-07-26T13:57:14Z</time>
      </trkpt>
      <trkpt lat="42.82511" lon="-0.2">
        <ele>2036.6901855469</ele>
        <time>2015-07-26T13:57:22Z</time>
      </trkpt>
      <trkpt lat="42.82502" lon="-0.19978">
        <ele>2033.8063964844</ele>
        <time>2015-07-26T13:57:42Z</time>
      </trkpt>
      <trkpt lat="42.82498" lon="-0.1997">
        <ele>2033.3256835938</ele>
        <time>2015-07-26T13:57:55Z</time>
      </trkpt>
      <trkpt lat="42.82491" lon="-0.19969">
        <ele>2032.8449707031</ele>
        <time>2015-07-26T13:58:08Z</time>
      </trkpt>
      <trkpt lat="42.82483" lon="-0.19961">
        <ele>2030.9226074219</ele>
        <time>2015-07-26T13:58:25Z</time>
      </trkpt>
      <trkpt lat="42.82474" lon="-0.19958">
        <ele>2028.5192871094</ele>
        <time>2015-07-26T13:58:39Z</time>
      </trkpt>
      <trkpt lat="42.82465" lon="-0.1995">
        <ele>2027.0771484375</ele>
        <time>2015-07-26T13:58:53Z</time>
      </trkpt>
      <trkpt lat="42.82464" lon="-0.19949">
        <ele>2027.0771484375</ele>
        <time>2015-07-26T13:58:54Z</time>
      </trkpt>
      <trkpt lat="42.82455" lon="-0.19942">
        <ele>2025.154296875</ele>
        <time>2015-07-26T13:59:09Z</time>
      </trkpt>
      <trkpt lat="42.82447" lon="-0.19936">
        <ele>2023.2319335938</ele>
        <time>2015-07-26T13:59:20Z</time>
      </trkpt>
      <trkpt lat="42.82434" lon="-0.19921">
        <ele>2019.8671875</ele>
        <time>2015-07-26T13:59:41Z</time>
      </trkpt>
      <trkpt lat="42.82432" lon="-0.1992">
        <ele>2018.9060058594</ele>
        <time>2015-07-26T13:59:43Z</time>
      </trkpt>
      <trkpt lat="42.8243" lon="-0.19918">
        <ele>2019.8671875</ele>
        <time>2015-07-26T13:59:45Z</time>
      </trkpt>
      <trkpt lat="42.82428" lon="-0.19916">
        <ele>2017.9445800781</ele>
        <time>2015-07-26T13:59:48Z</time>
      </trkpt>
      <trkpt lat="42.82416" lon="-0.1991">
        <ele>2016.0219726562</ele>
        <time>2015-07-26T14:00:01Z</time>
      </trkpt>
      <trkpt lat="42.82406" lon="-0.19909">
        <ele>2014.0993652344</ele>
        <time>2015-07-26T14:00:14Z</time>
      </trkpt>
      <trkpt lat="42.82402" lon="-0.19906">
        <ele>2011.2153320312</ele>
        <time>2015-07-26T14:00:24Z</time>
      </trkpt>
      <trkpt lat="42.82395" lon="-0.19907">
        <ele>2009.7731933594</ele>
        <time>2015-07-26T14:00:39Z</time>
      </trkpt>
      <trkpt lat="42.82394" lon="-0.19907">
        <ele>2008.3312988281</ele>
        <time>2015-07-26T14:00:42Z</time>
      </trkpt>
      <trkpt lat="42.82385" lon="-0.19903">
        <ele>2004.966796875</ele>
        <time>2015-07-26T14:00:53Z</time>
      </trkpt>
      <trkpt lat="42.82375" lon="-0.19904">
        <ele>2001.6022949219</ele>
        <time>2015-07-26T14:01:06Z</time>
      </trkpt>
      <trkpt lat="42.82374" lon="-0.19903">
        <ele>2001.6022949219</ele>
        <time>2015-07-26T14:01:07Z</time>
      </trkpt>
      <trkpt lat="42.82372" lon="-0.19912">
        <ele>1999.6796875</ele>
        <time>2015-07-26T14:01:20Z</time>
      </trkpt>
      <trkpt lat="42.82364" lon="-0.19917">
        <ele>1996.7956542969</ele>
        <time>2015-07-26T14:01:36Z</time>
      </trkpt>
      <trkpt lat="42.82361" lon="-0.19914">
        <ele>1996.7956542969</ele>
        <time>2015-07-26T14:01:53Z</time>
      </trkpt>
      <trkpt lat="42.82353" lon="-0.19916">
        <ele>1993.9116210938</ele>
        <time>2015-07-26T14:02:05Z</time>
      </trkpt>
      <trkpt lat="42.8235" lon="-0.19917">
        <ele>1992.4697265625</ele>
        <time>2015-07-26T14:02:10Z</time>
      </trkpt>
      <trkpt lat="42.82342" lon="-0.19915">
        <ele>1991.0275878906</ele>
        <time>2015-07-26T14:02:22Z</time>
      </trkpt>
      <trkpt lat="42.82334" lon="-0.19915">
        <ele>1989.1049804688</ele>
        <time>2015-07-26T14:02:39Z</time>
      </trkpt>
      <trkpt lat="42.82333" lon="-0.19915">
        <ele>1987.6630859375</ele>
        <time>2015-07-26T14:02:41Z</time>
      </trkpt>
      <trkpt lat="42.82324" lon="-0.19918">
        <ele>1984.2985839844</ele>
        <time>2015-07-26T14:02:54Z</time>
      </trkpt>
      <trkpt lat="42.82323" lon="-0.19918">
        <ele>1983.8178710938</ele>
        <time>2015-07-26T14:02:55Z</time>
      </trkpt>
      <trkpt lat="42.82321" lon="-0.19921">
        <ele>1982.8564453125</ele>
        <time>2015-07-26T14:02:59Z</time>
      </trkpt>
      <trkpt lat="42.82317" lon="-0.19923">
        <ele>1981.4145507812</ele>
        <time>2015-07-26T14:03:21Z</time>
      </trkpt>
      <trkpt lat="42.82305" lon="-0.19926">
        <ele>1978.0498046875</ele>
        <time>2015-07-26T14:03:43Z</time>
      </trkpt>
      <trkpt lat="42.823" lon="-0.19921">
        <ele>1977.5690917969</ele>
        <time>2015-07-26T14:03:57Z</time>
      </trkpt>
      <trkpt lat="42.82298" lon="-0.1991">
        <ele>1974.6853027344</ele>
        <time>2015-07-26T14:04:11Z</time>
      </trkpt>
      <trkpt lat="42.82294" lon="-0.19895">
        <ele>1972.2819824219</ele>
        <time>2015-07-26T14:04:28Z</time>
      </trkpt>
      <trkpt lat="42.82285" lon="-0.19882">
        <ele>1970.359375</ele>
        <time>2015-07-26T14:04:46Z</time>
      </trkpt>
      <trkpt lat="42.82277" lon="-0.19876">
        <ele>1967.4753417969</ele>
        <time>2015-07-26T14:05:00Z</time>
      </trkpt>
      <trkpt lat="42.82272" lon="-0.19869">
        <ele>1966.5141601562</ele>
        <time>2015-07-26T14:05:08Z</time>
      </trkpt>
      <trkpt lat="42.82262" lon="-0.19858">
        <ele>1964.5915527344</ele>
        <time>2015-07-26T14:05:24Z</time>
      </trkpt>
      <trkpt lat="42.82256" lon="-0.19853">
        <ele>1963.6298828125</ele>
        <time>2015-07-26T14:05:41Z</time>
      </trkpt>
      <trkpt lat="42.82254" lon="-0.1985">
        <ele>1964.1108398438</ele>
        <time>2015-07-26T14:05:59Z</time>
      </trkpt>
      <trkpt lat="42.82258" lon="-0.19846">
        <ele>1964.5915527344</ele>
        <time>2015-07-26T14:06:32Z</time>
      </trkpt>
      <trkpt lat="42.82256" lon="-0.19842">
        <ele>1962.1879882812</ele>
        <time>2015-07-26T14:06:46Z</time>
      </trkpt>
      <trkpt lat="42.82252" lon="-0.19831">
        <ele>1960.2653808594</ele>
        <time>2015-07-26T14:07:03Z</time>
      </trkpt>
      <trkpt lat="42.82248" lon="-0.1982">
        <ele>1958.3427734375</ele>
        <time>2015-07-26T14:07:18Z</time>
      </trkpt>
      <trkpt lat="42.82243" lon="-0.19814">
        <ele>1956.9008789062</ele>
        <time>2015-07-26T14:07:30Z</time>
      </trkpt>
      <trkpt lat="42.82239" lon="-0.19805">
        <ele>1956.4201660156</ele>
        <time>2015-07-26T14:07:40Z</time>
      </trkpt>
      <trkpt lat="42.82236" lon="-0.19801">
        <ele>1955.939453125</ele>
        <time>2015-07-26T14:07:56Z</time>
      </trkpt>
      <trkpt lat="42.8223" lon="-0.1979">
        <ele>1954.4975585938</ele>
        <time>2015-07-26T14:08:09Z</time>
      </trkpt>
      <trkpt lat="42.82227" lon="-0.19775">
        <ele>1953.0556640625</ele>
        <time>2015-07-26T14:08:24Z</time>
      </trkpt>
      <trkpt lat="42.82225" lon="-0.19764">
        <ele>1950.171875</ele>
        <time>2015-07-26T14:08:39Z</time>
      </trkpt>
      <trkpt lat="42.82217" lon="-0.19754">
        <ele>1948.2490234375</ele>
        <time>2015-07-26T14:08:51Z</time>
      </trkpt>
      <trkpt lat="42.82209" lon="-0.19744">
        <ele>1945.845703125</ele>
        <time>2015-07-26T14:09:06Z</time>
      </trkpt>
      <trkpt lat="42.82203" lon="-0.19743">
        <ele>1943.9230957031</ele>
        <time>2015-07-26T14:09:20Z</time>
      </trkpt>
      <trkpt lat="42.82197" lon="-0.19729">
        <ele>1943.4423828125</ele>
        <time>2015-07-26T14:09:33Z</time>
      </trkpt>
      <trkpt lat="42.8219" lon="-0.19718">
        <ele>1942.4812011719</ele>
        <time>2015-07-26T14:09:46Z</time>
      </trkpt>
      <trkpt lat="42.82182" lon="-0.19707">
        <ele>1941.0390625</ele>
        <time>2015-07-26T14:10:02Z</time>
      </trkpt>
      <trkpt lat="42.82178" lon="-0.197">
        <ele>1939.1164550781</ele>
        <time>2015-07-26T14:10:11Z</time>
      </trkpt>
      <trkpt lat="42.82176" lon="-0.19696">
        <ele>1938.1552734375</ele>
        <time>2015-07-26T14:10:16Z</time>
      </trkpt>
      <trkpt lat="42.82171" lon="-0.19687">
        <ele>1937.1938476562</ele>
        <time>2015-07-26T14:10:30Z</time>
      </trkpt>
      <trkpt lat="42.82169" lon="-0.19684">
        <ele>1936.2326660156</ele>
        <time>2015-07-26T14:10:35Z</time>
      </trkpt>
      <trkpt lat="42.82167" lon="-0.19678">
        <ele>1934.7907714844</ele>
        <time>2015-07-26T14:10:43Z</time>
      </trkpt>
      <trkpt lat="42.82164" lon="-0.19662">
        <ele>1933.8293457031</ele>
        <time>2015-07-26T14:10:58Z</time>
      </trkpt>
      <trkpt lat="42.8216" lon="-0.19645">
        <ele>1932.8679199219</ele>
        <time>2015-07-26T14:11:13Z</time>
      </trkpt>
      <trkpt lat="42.82152" lon="-0.19629">
        <ele>1931.42578125</ele>
        <time>2015-07-26T14:11:29Z</time>
      </trkpt>
      <trkpt lat="42.82146" lon="-0.1962">
        <ele>1929.9838867188</ele>
        <time>2015-07-26T14:11:42Z</time>
      </trkpt>
      <trkpt lat="42.82145" lon="-0.19631">
        <ele>1927.5805664062</ele>
        <time>2015-07-26T14:11:56Z</time>
      </trkpt>
      <trkpt lat="42.82144" lon="-0.19635">
        <ele>1928.0612792969</ele>
        <time>2015-07-26T14:12:03Z</time>
      </trkpt>
      <trkpt lat="42.82138" lon="-0.19644">
        <ele>1925.1772460938</ele>
        <time>2015-07-26T14:12:23Z</time>
      </trkpt>
      <trkpt lat="42.82139" lon="-0.19652">
        <ele>1924.6967773438</ele>
        <time>2015-07-26T14:12:39Z</time>
      </trkpt>
      <trkpt lat="42.82128" lon="-0.19653">
        <ele>1921.33203125</ele>
        <time>2015-07-26T14:13:06Z</time>
      </trkpt>
      <trkpt lat="42.82119" lon="-0.1965">
        <ele>1918.4482421875</ele>
        <time>2015-07-26T14:13:21Z</time>
      </trkpt>
      <trkpt lat="42.82113" lon="-0.19654">
        <ele>1915.5642089844</ele>
        <time>2015-07-26T14:13:34Z</time>
      </trkpt>
      <trkpt lat="42.82115" lon="-0.19657">
        <ele>1915.0834960938</ele>
        <time>2015-07-26T14:13:51Z</time>
      </trkpt>
      <trkpt lat="42.82112" lon="-0.19649">
        <ele>1914.6027832031</ele>
        <time>2015-07-26T14:14:06Z</time>
      </trkpt>
      <trkpt lat="42.82109" lon="-0.19645">
        <ele>1912.1994628906</ele>
        <time>2015-07-26T14:14:19Z</time>
      </trkpt>
      <trkpt lat="42.82099" lon="-0.19636">
        <ele>1909.7961425781</ele>
        <time>2015-07-26T14:14:34Z</time>
      </trkpt>
      <trkpt lat="42.8209" lon="-0.19625">
        <ele>1907.8737792969</ele>
        <time>2015-07-26T14:14:50Z</time>
      </trkpt>
      <trkpt lat="42.82086" lon="-0.19614">
        <ele>1905.9509277344</ele>
        <time>2015-07-26T14:15:04Z</time>
      </trkpt>
      <trkpt lat="42.82083" lon="-0.19603">
        <ele>1903.5478515625</ele>
        <time>2015-07-26T14:15:18Z</time>
      </trkpt>
      <trkpt lat="42.82081" lon="-0.19594">
        <ele>1901.14453125</ele>
        <time>2015-07-26T14:15:33Z</time>
      </trkpt>
      <trkpt lat="42.82076" lon="-0.19585">
        <ele>1900.1833496094</ele>
        <time>2015-07-26T14:15:47Z</time>
      </trkpt>
      <trkpt lat="42.82072" lon="-0.19581">
        <ele>1898.2602539062</ele>
        <time>2015-07-26T14:15:53Z</time>
      </trkpt>
      <trkpt lat="42.82061" lon="-0.19573">
        <ele>1894.4150390625</ele>
        <time>2015-07-26T14:16:09Z</time>
      </trkpt>
      <trkpt lat="42.8205" lon="-0.19563">
        <ele>1892.0119628906</ele>
        <time>2015-07-26T14:16:23Z</time>
      </trkpt>
      <trkpt lat="42.82046" lon="-0.19563">
        <ele>1891.0505371094</ele>
        <time>2015-07-26T14:16:27Z</time>
      </trkpt>
      <trkpt lat="42.82042" lon="-0.19562">
        <ele>1890.0893554688</ele>
        <time>2015-07-26T14:16:31Z</time>
      </trkpt>
      <trkpt lat="42.82039" lon="-0.19564">
        <ele>1889.6086425781</ele>
        <time>2015-07-26T14:16:35Z</time>
      </trkpt>
      <trkpt lat="42.82036" lon="-0.19564">
        <ele>1889.1279296875</ele>
        <time>2015-07-26T14:16:38Z</time>
      </trkpt>
      <trkpt lat="42.82023" lon="-0.19573">
        <ele>1887.2053222656</ele>
        <time>2015-07-26T14:16:56Z</time>
      </trkpt>
      <trkpt lat="42.82017" lon="-0.19575">
        <ele>1885.7634277344</ele>
        <time>2015-07-26T14:17:13Z</time>
      </trkpt>
      <trkpt lat="42.82015" lon="-0.19578">
        <ele>1884.8022460938</ele>
        <time>2015-07-26T14:17:26Z</time>
      </trkpt>
      <trkpt lat="42.82016" lon="-0.19576">
        <ele>1884.8022460938</ele>
        <time>2015-07-26T14:17:47Z</time>
      </trkpt>
      <trkpt lat="42.82016" lon="-0.19573">
        <ele>1884.3215332031</ele>
        <time>2015-07-26T14:19:00Z</time>
      </trkpt>
      <trkpt lat="42.82015" lon="-0.19572">
        <ele>1882.3986816406</ele>
        <time>2015-07-26T14:19:13Z</time>
      </trkpt>
      <trkpt lat="42.82015" lon="-0.19573">
        <ele>1882.8791503906</ele>
        <time>2015-07-26T14:19:52Z</time>
      </trkpt>
      <trkpt lat="42.82016" lon="-0.19572">
        <ele>1883.8405761719</ele>
        <time>2015-07-26T14:20:50Z</time>
      </trkpt>
      <trkpt lat="42.82017" lon="-0.19572">
        <ele>1880.4760742188</ele>
        <time>2015-07-26T14:26:34Z</time>
      </trkpt>
      <trkpt lat="42.82017" lon="-0.19573">
        <ele>1880.9567871094</ele>
        <time>2015-07-26T14:28:29Z</time>
      </trkpt>
      <trkpt lat="42.82013" lon="-0.19575">
        <ele>1879.9953613281</ele>
        <time>2015-07-26T14:33:29Z</time>
      </trkpt>
      <trkpt lat="42.82016" lon="-0.19572">
        <ele>1880.9567871094</ele>
        <time>2015-07-26T14:34:22Z</time>
      </trkpt>
      <trkpt lat="42.82017" lon="-0.19567">
        <ele>1880.4760742188</ele>
        <time>2015-07-26T14:36:26Z</time>
      </trkpt>
      <trkpt lat="42.82014" lon="-0.19569">
        <ele>1880.9567871094</ele>
        <time>2015-07-26T14:36:45Z</time>
      </trkpt>
      <trkpt lat="42.82015" lon="-0.19579">
        <ele>1880.4760742188</ele>
        <time>2015-07-26T14:37:15Z</time>
      </trkpt>
      <trkpt lat="42.82026" lon="-0.19576">
        <ele>1881.4372558594</ele>
        <time>2015-07-26T14:37:29Z</time>
      </trkpt>
      <trkpt lat="42.82038" lon="-0.19567">
        <ele>1882.8791503906</ele>
        <time>2015-07-26T14:37:43Z</time>
      </trkpt>
      <trkpt lat="42.82034" lon="-0.19548">
        <ele>1883.3598632812</ele>
        <time>2015-07-26T14:38:02Z</time>
      </trkpt>
      <trkpt lat="42.82029" lon="-0.19537">
        <ele>1881.4372558594</ele>
        <time>2015-07-26T14:38:16Z</time>
      </trkpt>
      <trkpt lat="42.82021" lon="-0.19528">
        <ele>1880.4760742188</ele>
        <time>2015-07-26T14:38:30Z</time>
      </trkpt>
      <trkpt lat="42.82013" lon="-0.19518">
        <ele>1880.4760742188</ele>
        <time>2015-07-26T14:38:43Z</time>
      </trkpt>
      <trkpt lat="42.82012" lon="-0.19512">
        <ele>1880.4760742188</ele>
        <time>2015-07-26T14:38:47Z</time>
      </trkpt>
      <trkpt lat="42.82007" lon="-0.19491">
        <ele>1880.9567871094</ele>
        <time>2015-07-26T14:39:05Z</time>
      </trkpt>
      <trkpt lat="42.82006" lon="-0.19479">
        <ele>1880.9567871094</ele>
        <time>2015-07-26T14:39:16Z</time>
      </trkpt>
      <trkpt lat="42.82002" lon="-0.19473">
        <ele>1880.9567871094</ele>
        <time>2015-07-26T14:39:36Z</time>
      </trkpt>
      <trkpt lat="42.81999" lon="-0.19465">
        <ele>1880.4760742188</ele>
        <time>2015-07-26T14:39:53Z</time>
      </trkpt>
      <trkpt lat="42.82" lon="-0.19462">
        <ele>1879.5146484375</ele>
        <time>2015-07-26T14:40:41Z</time>
      </trkpt>
      <trkpt lat="42.81996" lon="-0.1946">
        <ele>1876.1501464844</ele>
        <time>2015-07-26T14:40:59Z</time>
      </trkpt>
    </trkseg>
  </trk>
  <trk>
    <name><![CDATA[ACTIVE LOG 003]]></name>
    <trkseg>
      <trkpt lat="42.81996" lon="-0.19464">
        <ele>1728.1071777344</ele>
        <time>2015-07-26T15:17:37Z</time>
      </trkpt>
      <trkpt lat="42.81996" lon="-0.19464">
        <ele>1717.5324707031</ele>
        <time>2015-07-26T15:17:38Z</time>
      </trkpt>
    </trkseg>
  </trk>
  <trk>
    <name><![CDATA[ACTIVE LOG 004]]></name>
    <trkseg>
      <trkpt lat="42.82851" lon="-0.1787">
        <ele>1717.0520019531</ele>
        <time>2015-07-26T15:17:51Z</time>
      </trkpt>
      <trkpt lat="42.82857" lon="-0.17867">
        <ele>1714.16796875</ele>
        <time>2015-07-26T15:18:00Z</time>
      </trkpt>
      <trkpt lat="42.82858" lon="-0.17866">
        <ele>1717.5324707031</ele>
        <time>2015-07-26T15:18:03Z</time>
      </trkpt>
      <trkpt lat="42.82859" lon="-0.17863">
        <ele>1720.4165039062</ele>
        <time>2015-07-26T15:18:06Z</time>
      </trkpt>
      <trkpt lat="42.8286" lon="-0.1786">
        <ele>1724.7426757812</ele>
        <time>2015-07-26T15:18:10Z</time>
      </trkpt>
      <trkpt lat="42.82858" lon="-0.17858">
        <ele>1728.1071777344</ele>
        <time>2015-07-26T15:18:14Z</time>
      </trkpt>
      <trkpt lat="42.82854" lon="-0.17855">
        <ele>1731.4716796875</ele>
        <time>2015-07-26T15:18:19Z</time>
      </trkpt>
      <trkpt lat="42.82849" lon="-0.17855">
        <ele>1734.8364257812</ele>
        <time>2015-07-26T15:18:24Z</time>
      </trkpt>
      <trkpt lat="42.82848" lon="-0.17854">
        <ele>1734.8364257812</ele>
        <time>2015-07-26T15:18:25Z</time>
      </trkpt>
      <trkpt lat="42.82844" lon="-0.17856">
        <ele>1738.2009277344</ele>
        <time>2015-07-26T15:18:31Z</time>
      </trkpt>
      <trkpt lat="42.82844" lon="-0.17857">
        <ele>1738.681640625</ele>
        <time>2015-07-26T15:18:32Z</time>
      </trkpt>
      <trkpt lat="42.8283" lon="-0.17858">
        <ele>1741.0849609375</ele>
        <time>2015-07-26T15:18:47Z</time>
      </trkpt>
      <trkpt lat="42.8282" lon="-0.17857">
        <ele>1742.5270996094</ele>
        <time>2015-07-26T15:18:59Z</time>
      </trkpt>
      <trkpt lat="42.82817" lon="-0.17859">
        <ele>1742.0463867188</ele>
        <time>2015-07-26T15:19:02Z</time>
      </trkpt>
      <trkpt lat="42.82804" lon="-0.17859">
        <ele>1741.0849609375</ele>
        <time>2015-07-26T15:19:16Z</time>
      </trkpt>
      <trkpt lat="42.82803" lon="-0.17849">
        <ele>1739.6428222656</ele>
        <time>2015-07-26T15:19:29Z</time>
      </trkpt>
      <trkpt lat="42.82809" lon="-0.17844">
        <ele>1736.7587890625</ele>
        <time>2015-07-26T15:19:38Z</time>
      </trkpt>
      <trkpt lat="42.82815" lon="-0.1784">
        <ele>1735.3168945312</ele>
        <time>2015-07-26T15:19:47Z</time>
      </trkpt>
      <trkpt lat="42.82821" lon="-0.17835">
        <ele>1734.8364257812</ele>
        <time>2015-07-26T15:19:52Z</time>
      </trkpt>
      <trkpt lat="42.82838" lon="-0.17807">
        <ele>1732.4331054688</ele>
        <time>2015-07-26T15:20:09Z</time>
      </trkpt>
      <trkpt lat="42.82856" lon="-0.17787">
        <ele>1730.9912109375</ele>
        <time>2015-07-26T15:20:26Z</time>
      </trkpt>
      <trkpt lat="42.82877" lon="-0.17766">
        <ele>1731.4716796875</ele>
        <time>2015-07-26T15:20:43Z</time>
      </trkpt>
      <trkpt lat="42.82883" lon="-0.17753">
        <ele>1731.9523925781</ele>
        <time>2015-07-26T15:21:01Z</time>
      </trkpt>
      <trkpt lat="42.82889" lon="-0.17741">
        <ele>1731.4716796875</ele>
        <time>2015-07-26T15:21:12Z</time>
      </trkpt>
      <trkpt lat="42.82892" lon="-0.17735">
        <ele>1731.9523925781</ele>
        <time>2015-07-26T15:21:18Z</time>
      </trkpt>
      <trkpt lat="42.82893" lon="-0.1773">
        <ele>1730.5104980469</ele>
        <time>2015-07-26T15:21:23Z</time>
      </trkpt>
      <trkpt lat="42.82894" lon="-0.17726">
        <ele>1730.9912109375</ele>
        <time>2015-07-26T15:21:26Z</time>
      </trkpt>
      <trkpt lat="42.82917" lon="-0.17695">
        <ele>1731.4716796875</ele>
        <time>2015-07-26T15:21:45Z</time>
      </trkpt>
      <trkpt lat="42.8293" lon="-0.17672">
        <ele>1732.4331054688</ele>
        <time>2015-07-26T15:22:01Z</time>
      </trkpt>
      <trkpt lat="42.82944" lon="-0.17648">
        <ele>1732.4331054688</ele>
        <time>2015-07-26T15:22:19Z</time>
      </trkpt>
      <trkpt lat="42.82967" lon="-0.17618">
        <ele>1730.9912109375</ele>
        <time>2015-07-26T15:22:39Z</time>
      </trkpt>
      <trkpt lat="42.82971" lon="-0.17612">
        <ele>1732.4331054688</ele>
        <time>2015-07-26T15:22:49Z</time>
      </trkpt>
      <trkpt lat="42.82972" lon="-0.17608">
        <ele>1730.9912109375</ele>
        <time>2015-07-26T15:23:00Z</time>
      </trkpt>
      <trkpt lat="42.82983" lon="-0.17599">
        <ele>1731.4716796875</ele>
        <time>2015-07-26T15:23:15Z</time>
      </trkpt>
      <trkpt lat="42.82985" lon="-0.17598">
        <ele>1731.4716796875</ele>
        <time>2015-07-26T15:23:17Z</time>
      </trkpt>
      <trkpt lat="42.82993" lon="-0.17595">
        <ele>1730.9912109375</ele>
        <time>2015-07-26T15:23:24Z</time>
      </trkpt>
      <trkpt lat="42.83003" lon="-0.17587">
        <ele>1731.4716796875</ele>
        <time>2015-07-26T15:23:33Z</time>
      </trkpt>
      <trkpt lat="42.83026" lon="-0.17563">
        <ele>1731.4716796875</ele>
        <time>2015-07-26T15:23:51Z</time>
      </trkpt>
      <trkpt lat="42.8304" lon="-0.17547">
        <ele>1730.0297851562</ele>
        <time>2015-07-26T15:24:07Z</time>
      </trkpt>
      <trkpt lat="42.83052" lon="-0.17534">
        <ele>1730.0297851562</ele>
        <time>2015-07-26T15:24:22Z</time>
      </trkpt>
      <trkpt lat="42.83063" lon="-0.17523">
        <ele>1729.5490722656</ele>
        <time>2015-07-26T15:24:33Z</time>
      </trkpt>
      <trkpt lat="42.83075" lon="-0.17514">
        <ele>1729.5490722656</ele>
        <time>2015-07-26T15:24:46Z</time>
      </trkpt>
      <trkpt lat="42.83084" lon="-0.175">
        <ele>1730.0297851562</ele>
        <time>2015-07-26T15:25:00Z</time>
      </trkpt>
      <trkpt lat="42.83091" lon="-0.17486">
        <ele>1729.5490722656</ele>
        <time>2015-07-26T15:25:13Z</time>
      </trkpt>
      <trkpt lat="42.83097" lon="-0.17472">
        <ele>1729.068359375</ele>
        <time>2015-07-26T15:25:22Z</time>
      </trkpt>
      <trkpt lat="42.83108" lon="-0.17451">
        <ele>1729.068359375</ele>
        <time>2015-07-26T15:25:38Z</time>
      </trkpt>
      <trkpt lat="42.83118" lon="-0.17433">
        <ele>1728.587890625</ele>
        <time>2015-07-26T15:25:53Z</time>
      </trkpt>
      <trkpt lat="42.83128" lon="-0.17417">
        <ele>1727.6264648438</ele>
        <time>2015-07-26T15:26:07Z</time>
      </trkpt>
      <trkpt lat="42.83138" lon="-0.17407">
        <ele>1727.1459960938</ele>
        <time>2015-07-26T15:26:16Z</time>
      </trkpt>
      <trkpt lat="42.8314" lon="-0.17401">
        <ele>1727.1459960938</ele>
        <time>2015-07-26T15:26:21Z</time>
      </trkpt>
      <trkpt lat="42.8314" lon="-0.17376">
        <ele>1727.6264648438</ele>
        <time>2015-07-26T15:26:41Z</time>
      </trkpt>
      <trkpt lat="42.83141" lon="-0.17374">
        <ele>1727.6264648438</ele>
        <time>2015-07-26T15:26:43Z</time>
      </trkpt>
      <trkpt lat="42.83151" lon="-0.17354">
        <ele>1727.6264648438</ele>
        <time>2015-07-26T15:27:00Z</time>
      </trkpt>
      <trkpt lat="42.83156" lon="-0.17345">
        <ele>1726.6652832031</ele>
        <time>2015-07-26T15:27:11Z</time>
      </trkpt>
      <trkpt lat="42.83177" lon="-0.17332">
        <ele>1727.6264648438</ele>
        <time>2015-07-26T15:27:25Z</time>
      </trkpt>
      <trkpt lat="42.83185" lon="-0.17348">
        <ele>1727.1459960938</ele>
        <time>2015-07-26T15:27:37Z</time>
      </trkpt>
      <trkpt lat="42.83192" lon="-0.17353">
        <ele>1726.6652832031</ele>
        <time>2015-07-26T15:27:50Z</time>
      </trkpt>
      <trkpt lat="42.83201" lon="-0.17341">
        <ele>1726.6652832031</ele>
        <time>2015-07-26T15:28:01Z</time>
      </trkpt>
      <trkpt lat="42.83215" lon="-0.17328">
        <ele>1726.6652832031</ele>
        <time>2015-07-26T15:28:13Z</time>
      </trkpt>
      <trkpt lat="42.83216" lon="-0.17327">
        <ele>1727.1459960938</ele>
        <time>2015-07-26T15:28:14Z</time>
      </trkpt>
      <trkpt lat="42.83235" lon="-0.17328">
        <ele>1726.1845703125</ele>
        <time>2015-07-26T15:28:32Z</time>
      </trkpt>
      <trkpt lat="42.83251" lon="-0.17325">
        <ele>1726.6652832031</ele>
        <time>2015-07-26T15:28:45Z</time>
      </trkpt>
      <trkpt lat="42.83263" lon="-0.17314">
        <ele>1727.1459960938</ele>
        <time>2015-07-26T15:28:57Z</time>
      </trkpt>
      <trkpt lat="42.83275" lon="-0.17308">
        <ele>1728.1071777344</ele>
        <time>2015-07-26T15:29:13Z</time>
      </trkpt>
      <trkpt lat="42.83284" lon="-0.17307">
        <ele>1729.068359375</ele>
        <time>2015-07-26T15:29:26Z</time>
      </trkpt>
      <trkpt lat="42.83289" lon="-0.17304">
        <ele>1730.0297851562</ele>
        <time>2015-07-26T15:29:32Z</time>
      </trkpt>
      <trkpt lat="42.83301" lon="-0.17296">
        <ele>1731.4716796875</ele>
        <time>2015-07-26T15:29:45Z</time>
      </trkpt>
      <trkpt lat="42.83312" lon="-0.1729">
        <ele>1734.8364257812</ele>
        <time>2015-07-26T15:29:59Z</time>
      </trkpt>
      <trkpt lat="42.8332" lon="-0.17299">
        <ele>1737.2395019531</ele>
        <time>2015-07-26T15:30:13Z</time>
      </trkpt>
      <trkpt lat="42.83326" lon="-0.17299">
        <ele>1737.7202148438</ele>
        <time>2015-07-26T15:30:24Z</time>
      </trkpt>
      <trkpt lat="42.83341" lon="-0.17303">
        <ele>1736.7587890625</ele>
        <time>2015-07-26T15:30:42Z</time>
      </trkpt>
      <trkpt lat="42.83342" lon="-0.17304">
        <ele>1736.7587890625</ele>
        <time>2015-07-26T15:30:44Z</time>
      </trkpt>
      <trkpt lat="42.83355" lon="-0.17306">
        <ele>1735.7976074219</ele>
        <time>2015-07-26T15:30:59Z</time>
      </trkpt>
      <trkpt lat="42.83363" lon="-0.17305">
        <ele>1734.8364257812</ele>
        <time>2015-07-26T15:31:11Z</time>
      </trkpt>
      <trkpt lat="42.83366" lon="-0.17295">
        <ele>1735.3168945312</ele>
        <time>2015-07-26T15:31:43Z</time>
      </trkpt>
      <trkpt lat="42.83382" lon="-0.17288">
        <ele>1734.8364257812</ele>
        <time>2015-07-26T15:31:59Z</time>
      </trkpt>
      <trkpt lat="42.83396" lon="-0.17286">
        <ele>1734.8364257812</ele>
        <time>2015-07-26T15:32:14Z</time>
      </trkpt>
      <trkpt lat="42.8341" lon="-0.1728">
        <ele>1734.8364257812</ele>
        <time>2015-07-26T15:32:29Z</time>
      </trkpt>
      <trkpt lat="42.83425" lon="-0.17268">
        <ele>1734.8364257812</ele>
        <time>2015-07-26T15:32:43Z</time>
      </trkpt>
      <trkpt lat="42.83436" lon="-0.17259">
        <ele>1734.8364257812</ele>
        <time>2015-07-26T15:32:56Z</time>
      </trkpt>
      <trkpt lat="42.83449" lon="-0.17251">
        <ele>1736.2783203125</ele>
        <time>2015-07-26T15:33:09Z</time>
      </trkpt>
      <trkpt lat="42.83459" lon="-0.1724">
        <ele>1735.7976074219</ele>
        <time>2015-07-26T15:33:22Z</time>
      </trkpt>
      <trkpt lat="42.83476" lon="-0.1723">
        <ele>1734.8364257812</ele>
        <time>2015-07-26T15:33:38Z</time>
      </trkpt>
      <trkpt lat="42.83488" lon="-0.17227">
        <ele>1734.8364257812</ele>
        <time>2015-07-26T15:33:49Z</time>
      </trkpt>
      <trkpt lat="42.83507" lon="-0.17219">
        <ele>1732.9135742188</ele>
        <time>2015-07-26T15:34:05Z</time>
      </trkpt>
      <trkpt lat="42.83517" lon="-0.17214">
        <ele>1732.4331054688</ele>
        <time>2015-07-26T15:34:16Z</time>
      </trkpt>
      <trkpt lat="42.83536" lon="-0.1721">
        <ele>1731.4716796875</ele>
        <time>2015-07-26T15:34:32Z</time>
      </trkpt>
      <trkpt lat="42.83554" lon="-0.17208">
        <ele>1729.5490722656</ele>
        <time>2015-07-26T15:34:48Z</time>
      </trkpt>
      <trkpt lat="42.83562" lon="-0.17201">
        <ele>1727.6264648438</ele>
        <time>2015-07-26T15:34:58Z</time>
      </trkpt>
      <trkpt lat="42.83572" lon="-0.17189">
        <ele>1727.1459960938</ele>
        <time>2015-07-26T15:35:09Z</time>
      </trkpt>
      <trkpt lat="42.83582" lon="-0.17162">
        <ele>1725.7038574219</ele>
        <time>2015-07-26T15:35:26Z</time>
      </trkpt>
      <trkpt lat="42.83583" lon="-0.17132">
        <ele>1725.7038574219</ele>
        <time>2015-07-26T15:35:43Z</time>
      </trkpt>
      <trkpt lat="42.83583" lon="-0.1713">
        <ele>1725.2231445312</ele>
        <time>2015-07-26T15:35:45Z</time>
      </trkpt>
      <trkpt lat="42.83583" lon="-0.17108">
        <ele>1724.7426757812</ele>
        <time>2015-07-26T15:36:00Z</time>
      </trkpt>
      <trkpt lat="42.83581" lon="-0.17081">
        <ele>1726.1845703125</ele>
        <time>2015-07-26T15:36:18Z</time>
      </trkpt>
      <trkpt lat="42.83587" lon="-0.17063">
        <ele>1727.1459960938</ele>
        <time>2015-07-26T15:36:33Z</time>
      </trkpt>
      <trkpt lat="42.83597" lon="-0.17048">
        <ele>1728.587890625</ele>
        <time>2015-07-26T15:36:49Z</time>
      </trkpt>
      <trkpt lat="42.83606" lon="-0.17036">
        <ele>1729.5490722656</ele>
        <time>2015-07-26T15:37:00Z</time>
      </trkpt>
      <trkpt lat="42.83616" lon="-0.17025">
        <ele>1729.5490722656</ele>
        <time>2015-07-26T15:37:10Z</time>
      </trkpt>
      <trkpt lat="42.83618" lon="-0.17022">
        <ele>1730.0297851562</ele>
        <time>2015-07-26T15:37:13Z</time>
      </trkpt>
      <trkpt lat="42.83635" lon="-0.17004">
        <ele>1729.5490722656</ele>
        <time>2015-07-26T15:37:32Z</time>
      </trkpt>
      <trkpt lat="42.83642" lon="-0.16993">
        <ele>1728.1071777344</ele>
        <time>2015-07-26T15:37:42Z</time>
      </trkpt>
      <trkpt lat="42.83648" lon="-0.16974">
        <ele>1725.2231445312</ele>
        <time>2015-07-26T15:37:59Z</time>
      </trkpt>
      <trkpt lat="42.83651" lon="-0.16956">
        <ele>1723.3005371094</ele>
        <time>2015-07-26T15:38:17Z</time>
      </trkpt>
      <trkpt lat="42.83657" lon="-0.16933">
        <ele>1721.8583984375</ele>
        <time>2015-07-26T15:38:33Z</time>
      </trkpt>
      <trkpt lat="42.83666" lon="-0.16913">
        <ele>1721.8583984375</ele>
        <time>2015-07-26T15:38:48Z</time>
      </trkpt>
      <trkpt lat="42.83676" lon="-0.16891">
        <ele>1723.3005371094</ele>
        <time>2015-07-26T15:39:04Z</time>
      </trkpt>
      <trkpt lat="42.83687" lon="-0.16872">
        <ele>1723.7810058594</ele>
        <time>2015-07-26T15:39:19Z</time>
      </trkpt>
      <trkpt lat="42.83695" lon="-0.16856">
        <ele>1724.7426757812</ele>
        <time>2015-07-26T15:39:33Z</time>
      </trkpt>
      <trkpt lat="42.83705" lon="-0.16841">
        <ele>1724.2619628906</ele>
        <time>2015-07-26T15:39:48Z</time>
      </trkpt>
      <trkpt lat="42.83714" lon="-0.16814">
        <ele>1723.3005371094</ele>
        <time>2015-07-26T15:40:07Z</time>
      </trkpt>
      <trkpt lat="42.83713" lon="-0.16813">
        <ele>1722.8198242188</ele>
        <time>2015-07-26T15:40:08Z</time>
      </trkpt>
      <trkpt lat="42.83703" lon="-0.16788">
        <ele>1719.4553222656</ele>
        <time>2015-07-26T15:40:29Z</time>
      </trkpt>
      <trkpt lat="42.83701" lon="-0.16777">
        <ele>1718.4938964844</ele>
        <time>2015-07-26T15:40:38Z</time>
      </trkpt>
      <trkpt lat="42.83704" lon="-0.16756">
        <ele>1715.1293945312</ele>
        <time>2015-07-26T15:40:53Z</time>
      </trkpt>
      <trkpt lat="42.83705" lon="-0.16751">
        <ele>1714.16796875</ele>
        <time>2015-07-26T15:40:57Z</time>
      </trkpt>
      <trkpt lat="42.83716" lon="-0.16737">
        <ele>1713.2067871094</ele>
        <time>2015-07-26T15:41:11Z</time>
      </trkpt>
      <trkpt lat="42.83725" lon="-0.16732">
        <ele>1712.7260742188</ele>
        <time>2015-07-26T15:41:20Z</time>
      </trkpt>
      <trkpt lat="42.83729" lon="-0.16728">
        <ele>1712.7260742188</ele>
        <time>2015-07-26T15:41:24Z</time>
      </trkpt>
      <trkpt lat="42.83729" lon="-0.16705">
        <ele>1709.8420410156</ele>
        <time>2015-07-26T15:41:41Z</time>
      </trkpt>
      <trkpt lat="42.83725" lon="-0.16682">
        <ele>1706.4772949219</ele>
        <time>2015-07-26T15:41:58Z</time>
      </trkpt>
      <trkpt lat="42.83718" lon="-0.16655">
        <ele>1705.5161132812</ele>
        <time>2015-07-26T15:42:17Z</time>
      </trkpt>
      <trkpt lat="42.83722" lon="-0.16649">
        <ele>1705.0354003906</ele>
        <time>2015-07-26T15:42:24Z</time>
      </trkpt>
      <trkpt lat="42.83735" lon="-0.16656">
        <ele>1703.5935058594</ele>
        <time>2015-07-26T15:42:36Z</time>
      </trkpt>
      <trkpt lat="42.8374" lon="-0.16682">
        <ele>1701.6708984375</ele>
        <time>2015-07-26T15:42:49Z</time>
      </trkpt>
      <trkpt lat="42.83753" lon="-0.16693">
        <ele>1701.6708984375</ele>
        <time>2015-07-26T15:43:03Z</time>
      </trkpt>
      <trkpt lat="42.83771" lon="-0.16694">
        <ele>1698.7868652344</ele>
        <time>2015-07-26T15:43:20Z</time>
      </trkpt>
      <trkpt lat="42.83776" lon="-0.16691">
        <ele>1699.7482910156</ele>
        <time>2015-07-26T15:43:25Z</time>
      </trkpt>
      <trkpt lat="42.83786" lon="-0.16676">
        <ele>1697.8256835938</ele>
        <time>2015-07-26T15:43:37Z</time>
      </trkpt>
      <trkpt lat="42.83794" lon="-0.16647">
        <ele>1696.3837890625</ele>
        <time>2015-07-26T15:43:54Z</time>
      </trkpt>
      <trkpt lat="42.83801" lon="-0.16617">
        <ele>1693.4997558594</ele>
        <time>2015-07-26T15:44:14Z</time>
      </trkpt>
      <trkpt lat="42.83802" lon="-0.16612">
        <ele>1693.0190429688</ele>
        <time>2015-07-26T15:44:18Z</time>
      </trkpt>
      <trkpt lat="42.8381" lon="-0.16601">
        <ele>1692.0578613281</ele>
        <time>2015-07-26T15:44:29Z</time>
      </trkpt>
      <trkpt lat="42.83821" lon="-0.16591">
        <ele>1691.0961914062</ele>
        <time>2015-07-26T15:44:40Z</time>
      </trkpt>
      <trkpt lat="42.83827" lon="-0.16587">
        <ele>1689.654296875</ele>
        <time>2015-07-26T15:44:50Z</time>
      </trkpt>
      <trkpt lat="42.83841" lon="-0.16583">
        <ele>1687.7316894531</ele>
        <time>2015-07-26T15:45:02Z</time>
      </trkpt>
      <trkpt lat="42.83847" lon="-0.16582">
        <ele>1686.7702636719</ele>
        <time>2015-07-26T15:45:10Z</time>
      </trkpt>
      <trkpt lat="42.83865" lon="-0.16582">
        <ele>1683.4057617188</ele>
        <time>2015-07-26T15:45:28Z</time>
      </trkpt>
      <trkpt lat="42.83887" lon="-0.16576">
        <ele>1681.9638671875</ele>
        <time>2015-07-26T15:45:44Z</time>
      </trkpt>
      <trkpt lat="42.83904" lon="-0.16574">
        <ele>1681.4831542969</ele>
        <time>2015-07-26T15:45:58Z</time>
      </trkpt>
      <trkpt lat="42.83913" lon="-0.16572">
        <ele>1680.0412597656</ele>
        <time>2015-07-26T15:46:07Z</time>
      </trkpt>
      <trkpt lat="42.83928" lon="-0.16571">
        <ele>1678.5993652344</ele>
        <time>2015-07-26T15:46:18Z</time>
      </trkpt>
      <trkpt lat="42.83933" lon="-0.16574">
        <ele>1677.1574707031</ele>
        <time>2015-07-26T15:46:26Z</time>
      </trkpt>
      <trkpt lat="42.83919" lon="-0.16586">
        <ele>1674.75390625</ele>
        <time>2015-07-26T15:46:43Z</time>
      </trkpt>
      <trkpt lat="42.83908" lon="-0.16598">
        <ele>1673.7924804688</ele>
        <time>2015-07-26T15:46:55Z</time>
      </trkpt>
      <trkpt lat="42.83898" lon="-0.16619">
        <ele>1671.3891601562</ele>
        <time>2015-07-26T15:47:12Z</time>
      </trkpt>
      <trkpt lat="42.83892" lon="-0.1663">
        <ele>1669.466796875</ele>
        <time>2015-07-26T15:47:20Z</time>
      </trkpt>
      <trkpt lat="42.8389" lon="-0.16638">
        <ele>1669.466796875</ele>
        <time>2015-07-26T15:47:25Z</time>
      </trkpt>
      <trkpt lat="42.83881" lon="-0.16664">
        <ele>1667.0634765625</ele>
        <time>2015-07-26T15:47:43Z</time>
      </trkpt>
      <trkpt lat="42.83879" lon="-0.16697">
        <ele>1664.66015625</ele>
        <time>2015-07-26T15:48:00Z</time>
      </trkpt>
      <trkpt lat="42.83881" lon="-0.167">
        <ele>1664.1794433594</ele>
        <time>2015-07-26T15:48:03Z</time>
      </trkpt>
      <trkpt lat="42.83883" lon="-0.16714">
        <ele>1663.2182617188</ele>
        <time>2015-07-26T15:48:10Z</time>
      </trkpt>
      <trkpt lat="42.83887" lon="-0.16729">
        <ele>1661.2956542969</ele>
        <time>2015-07-26T15:48:20Z</time>
      </trkpt>
      <trkpt lat="42.83891" lon="-0.16736">
        <ele>1659.3728027344</ele>
        <time>2015-07-26T15:48:26Z</time>
      </trkpt>
      <trkpt lat="42.83892" lon="-0.1674">
        <ele>1659.3728027344</ele>
        <time>2015-07-26T15:48:29Z</time>
      </trkpt>
      <trkpt lat="42.83897" lon="-0.16765">
        <ele>1656.9694824219</ele>
        <time>2015-07-26T15:48:46Z</time>
      </trkpt>
      <trkpt lat="42.83896" lon="-0.16785">
        <ele>1655.046875</ele>
        <time>2015-07-26T15:48:59Z</time>
      </trkpt>
      <trkpt lat="42.83891" lon="-0.16816">
        <ele>1653.1242675781</ele>
        <time>2015-07-26T15:49:16Z</time>
      </trkpt>
      <trkpt lat="42.83892" lon="-0.16823">
        <ele>1652.6435546875</ele>
        <time>2015-07-26T15:49:22Z</time>
      </trkpt>
      <trkpt lat="42.83895" lon="-0.16842">
        <ele>1649.759765625</ele>
        <time>2015-07-26T15:49:36Z</time>
      </trkpt>
      <trkpt lat="42.83903" lon="-0.16859">
        <ele>1648.7983398438</ele>
        <time>2015-07-26T15:49:49Z</time>
      </trkpt>
      <trkpt lat="42.83906" lon="-0.16862">
        <ele>1648.7983398438</ele>
        <time>2015-07-26T15:49:53Z</time>
      </trkpt>
      <trkpt lat="42.8391" lon="-0.16864">
        <ele>1648.3176269531</ele>
        <time>2015-07-26T15:50:13Z</time>
      </trkpt>
      <trkpt lat="42.83917" lon="-0.16866">
        <ele>1646.8757324219</ele>
        <time>2015-07-26T15:50:24Z</time>
      </trkpt>
      <trkpt lat="42.83925" lon="-0.16869">
        <ele>1645.9145507812</ele>
        <time>2015-07-26T15:50:32Z</time>
      </trkpt>
      <trkpt lat="42.83928" lon="-0.16875">
        <ele>1645.4338378906</ele>
        <time>2015-07-26T15:50:36Z</time>
      </trkpt>
      <trkpt lat="42.83947" lon="-0.16901">
        <ele>1643.9916992188</ele>
        <time>2015-07-26T15:50:59Z</time>
      </trkpt>
      <trkpt lat="42.83971" lon="-0.16901">
        <ele>1643.0302734375</ele>
        <time>2015-07-26T15:51:17Z</time>
      </trkpt>
      <trkpt lat="42.83994" lon="-0.16893">
        <ele>1642.5498046875</ele>
        <time>2015-07-26T15:51:35Z</time>
      </trkpt>
      <trkpt lat="42.84011" lon="-0.16883">
        <ele>1642.5498046875</ele>
        <time>2015-07-26T15:51:51Z</time>
      </trkpt>
      <trkpt lat="42.84031" lon="-0.16875">
        <ele>1641.1076660156</ele>
        <time>2015-07-26T15:52:09Z</time>
      </trkpt>
      <trkpt lat="42.84048" lon="-0.16864">
        <ele>1640.146484375</ele>
        <time>2015-07-26T15:52:24Z</time>
      </trkpt>
      <trkpt lat="42.84062" lon="-0.16837">
        <ele>1640.146484375</ele>
        <time>2015-07-26T15:52:43Z</time>
      </trkpt>
      <trkpt lat="42.84077" lon="-0.16813">
        <ele>1638.7045898438</ele>
        <time>2015-07-26T15:52:59Z</time>
      </trkpt>
      <trkpt lat="42.84091" lon="-0.16785">
        <ele>1638.7045898438</ele>
        <time>2015-07-26T15:53:17Z</time>
      </trkpt>
      <trkpt lat="42.84105" lon="-0.16754">
        <ele>1638.2238769531</ele>
        <time>2015-07-26T15:53:37Z</time>
      </trkpt>
      <trkpt lat="42.84124" lon="-0.16731">
        <ele>1637.2624511719</ele>
        <time>2015-07-26T15:53:56Z</time>
      </trkpt>
      <trkpt lat="42.84137" lon="-0.16715">
        <ele>1637.2624511719</ele>
        <time>2015-07-26T15:54:12Z</time>
      </trkpt>
      <trkpt lat="42.84155" lon="-0.16691">
        <ele>1636.3012695312</ele>
        <time>2015-07-26T15:54:32Z</time>
      </trkpt>
      <trkpt lat="42.84169" lon="-0.16675">
        <ele>1636.7817382812</ele>
        <time>2015-07-26T15:54:49Z</time>
      </trkpt>
      <trkpt lat="42.84173" lon="-0.16674">
        <ele>1636.3012695312</ele>
        <time>2015-07-26T15:54:52Z</time>
      </trkpt>
      <trkpt lat="42.84174" lon="-0.16666">
        <ele>1636.3012695312</ele>
        <time>2015-07-26T15:54:58Z</time>
      </trkpt>
      <trkpt lat="42.84177" lon="-0.16661">
        <ele>1635.8205566406</ele>
        <time>2015-07-26T15:55:02Z</time>
      </trkpt>
      <trkpt lat="42.84196" lon="-0.16634">
        <ele>1636.3012695312</ele>
        <time>2015-07-26T15:55:23Z</time>
      </trkpt>
      <trkpt lat="42.84211" lon="-0.16609">
        <ele>1636.3012695312</ele>
        <time>2015-07-26T15:55:42Z</time>
      </trkpt>
      <trkpt lat="42.84224" lon="-0.16585">
        <ele>1635.8205566406</ele>
        <time>2015-07-26T15:56:01Z</time>
      </trkpt>
      <trkpt lat="42.84243" lon="-0.16575">
        <ele>1634.859375</ele>
        <time>2015-07-26T15:56:18Z</time>
      </trkpt>
      <trkpt lat="42.84269" lon="-0.16564">
        <ele>1635.33984375</ele>
        <time>2015-07-26T15:56:39Z</time>
      </trkpt>
      <trkpt lat="42.84294" lon="-0.16554">
        <ele>1634.859375</ele>
        <time>2015-07-26T15:56:59Z</time>
      </trkpt>
      <trkpt lat="42.84319" lon="-0.16546">
        <ele>1634.3786621094</ele>
        <time>2015-07-26T15:57:19Z</time>
      </trkpt>
      <trkpt lat="42.84349" lon="-0.16536">
        <ele>1634.3786621094</ele>
        <time>2015-07-26T15:57:43Z</time>
      </trkpt>
      <trkpt lat="42.84376" lon="-0.16536">
        <ele>1634.3786621094</ele>
        <time>2015-07-26T15:58:03Z</time>
      </trkpt>
      <trkpt lat="42.84401" lon="-0.16538">
        <ele>1635.33984375</ele>
        <time>2015-07-26T15:58:22Z</time>
      </trkpt>
      <trkpt lat="42.84429" lon="-0.16535">
        <ele>1633.8979492188</ele>
        <time>2015-07-26T15:58:44Z</time>
      </trkpt>
      <trkpt lat="42.84454" lon="-0.16527">
        <ele>1634.3786621094</ele>
        <time>2015-07-26T15:59:03Z</time>
      </trkpt>
      <trkpt lat="42.8448" lon="-0.16519">
        <ele>1633.4172363281</ele>
        <time>2015-07-26T15:59:23Z</time>
      </trkpt>
      <trkpt lat="42.84501" lon="-0.16512">
        <ele>1633.4172363281</ele>
        <time>2015-07-26T15:59:40Z</time>
      </trkpt>
      <trkpt lat="42.84527" lon="-0.16502">
        <ele>1632.4560546875</ele>
        <time>2015-07-26T16:00:00Z</time>
      </trkpt>
      <trkpt lat="42.84555" lon="-0.16488">
        <ele>1632.4560546875</ele>
        <time>2015-07-26T16:00:21Z</time>
      </trkpt>
      <trkpt lat="42.84581" lon="-0.16475">
        <ele>1631.0141601562</ele>
        <time>2015-07-26T16:00:42Z</time>
      </trkpt>
      <trkpt lat="42.8461" lon="-0.1646">
        <ele>1631.0141601562</ele>
        <time>2015-07-26T16:01:05Z</time>
      </trkpt>
      <trkpt lat="42.84634" lon="-0.16454">
        <ele>1631.0141601562</ele>
        <time>2015-07-26T16:01:24Z</time>
      </trkpt>
      <trkpt lat="42.84664" lon="-0.16442">
        <ele>1629.5720214844</ele>
        <time>2015-07-26T16:01:47Z</time>
      </trkpt>
      <trkpt lat="42.84695" lon="-0.16428">
        <ele>1629.5720214844</ele>
        <time>2015-07-26T16:02:10Z</time>
      </trkpt>
      <trkpt lat="42.84729" lon="-0.1641">
        <ele>1628.6108398438</ele>
        <time>2015-07-26T16:02:37Z</time>
      </trkpt>
      <trkpt lat="42.84758" lon="-0.16392">
        <ele>1629.0913085938</ele>
        <time>2015-07-26T16:03:01Z</time>
      </trkpt>
      <trkpt lat="42.84782" lon="-0.16375">
        <ele>1628.6108398438</ele>
        <time>2015-07-26T16:03:22Z</time>
      </trkpt>
      <trkpt lat="42.84811" lon="-0.16356">
        <ele>1628.6108398438</ele>
        <time>2015-07-26T16:03:46Z</time>
      </trkpt>
      <trkpt lat="42.84816" lon="-0.16319">
        <ele>1628.6108398438</ele>
        <time>2015-07-26T16:04:06Z</time>
      </trkpt>
      <trkpt lat="42.84812" lon="-0.16291">
        <ele>1625.7265625</ele>
        <time>2015-07-26T16:04:23Z</time>
      </trkpt>
      <trkpt lat="42.84806" lon="-0.16261">
        <ele>1624.2846679688</ele>
        <time>2015-07-26T16:04:41Z</time>
      </trkpt>
      <trkpt lat="42.84811" lon="-0.16234">
        <ele>1622.8427734375</ele>
        <time>2015-07-26T16:04:58Z</time>
      </trkpt>
      <trkpt lat="42.84819" lon="-0.16217">
        <ele>1621.4006347656</ele>
        <time>2015-07-26T16:05:13Z</time>
      </trkpt>
      <trkpt lat="42.84831" lon="-0.16206">
        <ele>1619.9587402344</ele>
        <time>2015-07-26T16:05:25Z</time>
      </trkpt>
      <trkpt lat="42.84838" lon="-0.16203">
        <ele>1620.9201660156</ele>
        <time>2015-07-26T16:05:30Z</time>
      </trkpt>
      <trkpt lat="42.84853" lon="-0.16191">
        <ele>1619.9587402344</ele>
        <time>2015-07-26T16:05:44Z</time>
      </trkpt>
      <trkpt lat="42.84874" lon="-0.16182">
        <ele>1618.5168457031</ele>
        <time>2015-07-26T16:06:01Z</time>
      </trkpt>
      <trkpt lat="42.84887" lon="-0.1617">
        <ele>1620.9201660156</ele>
        <time>2015-07-26T16:06:18Z</time>
      </trkpt>
      <trkpt lat="42.84899" lon="-0.16158">
        <ele>1622.8427734375</ele>
        <time>2015-07-26T16:06:30Z</time>
      </trkpt>
      <trkpt lat="42.84903" lon="-0.16155">
        <ele>1622.8427734375</ele>
        <time>2015-07-26T16:06:34Z</time>
      </trkpt>
      <trkpt lat="42.8491" lon="-0.1615">
        <ele>1622.8427734375</ele>
        <time>2015-07-26T16:06:40Z</time>
      </trkpt>
      <trkpt lat="42.84918" lon="-0.16147">
        <ele>1623.3234863281</ele>
        <time>2015-07-26T16:06:47Z</time>
      </trkpt>
      <trkpt lat="42.84936" lon="-0.16143">
        <ele>1620.9201660156</ele>
        <time>2015-07-26T16:07:04Z</time>
      </trkpt>
      <trkpt lat="42.84956" lon="-0.16143">
        <ele>1619.9587402344</ele>
        <time>2015-07-26T16:07:23Z</time>
      </trkpt>
      <trkpt lat="42.84976" lon="-0.16153">
        <ele>1618.5168457031</ele>
        <time>2015-07-26T16:07:41Z</time>
      </trkpt>
      <trkpt lat="42.85008" lon="-0.16144">
        <ele>1617.5554199219</ele>
        <time>2015-07-26T16:08:02Z</time>
      </trkpt>
      <trkpt lat="42.85019" lon="-0.16136">
        <ele>1616.1135253906</ele>
        <time>2015-07-26T16:08:11Z</time>
      </trkpt>
      <trkpt lat="42.8503" lon="-0.16104">
        <ele>1616.5942382812</ele>
        <time>2015-07-26T16:08:30Z</time>
      </trkpt>
      <trkpt lat="42.85041" lon="-0.16065">
        <ele>1614.1909179688</ele>
        <time>2015-07-26T16:08:53Z</time>
      </trkpt>
      <trkpt lat="42.85052" lon="-0.16028">
        <ele>1614.6716308594</ele>
        <time>2015-07-26T16:09:15Z</time>
      </trkpt>
      <trkpt lat="42.85068" lon="-0.16019">
        <ele>1614.6716308594</ele>
        <time>2015-07-26T16:09:29Z</time>
      </trkpt>
      <trkpt lat="42.85083" lon="-0.16007">
        <ele>1614.1909179688</ele>
        <time>2015-07-26T16:09:44Z</time>
      </trkpt>
      <trkpt lat="42.85084" lon="-0.16006">
        <ele>1614.6716308594</ele>
        <time>2015-07-26T16:09:45Z</time>
      </trkpt>
      <trkpt lat="42.85088" lon="-0.15998">
        <ele>1615.6330566406</ele>
        <time>2015-07-26T16:09:51Z</time>
      </trkpt>
      <trkpt lat="42.851" lon="-0.15998">
        <ele>1614.6716308594</ele>
        <time>2015-07-26T16:10:01Z</time>
      </trkpt>
      <trkpt lat="42.8511" lon="-0.16028">
        <ele>1613.2297363281</ele>
        <time>2015-07-26T16:10:21Z</time>
      </trkpt>
      <trkpt lat="42.85117" lon="-0.1605">
        <ele>1613.2297363281</ele>
        <time>2015-07-26T16:10:36Z</time>
      </trkpt>
      <trkpt lat="42.85133" lon="-0.16037">
        <ele>1612.7490234375</ele>
        <time>2015-07-26T16:10:51Z</time>
      </trkpt>
      <trkpt lat="42.85137" lon="-0.16035">
        <ele>1612.2683105469</ele>
        <time>2015-07-26T16:10:56Z</time>
      </trkpt>
      <trkpt lat="42.8514" lon="-0.16031">
        <ele>1612.2683105469</ele>
        <time>2015-07-26T16:10:59Z</time>
      </trkpt>
      <trkpt lat="42.85153" lon="-0.16032">
        <ele>1612.2683105469</ele>
        <time>2015-07-26T16:11:14Z</time>
      </trkpt>
      <trkpt lat="42.85156" lon="-0.16029">
        <ele>1612.2683105469</ele>
        <time>2015-07-26T16:11:18Z</time>
      </trkpt>
      <trkpt lat="42.85163" lon="-0.16003">
        <ele>1611.7875976562</ele>
        <time>2015-07-26T16:11:37Z</time>
      </trkpt>
      <trkpt lat="42.85171" lon="-0.15968">
        <ele>1609.8647460938</ele>
        <time>2015-07-26T16:11:58Z</time>
      </trkpt>
      <trkpt lat="42.85173" lon="-0.15938">
        <ele>1610.826171875</ele>
        <time>2015-07-26T16:12:17Z</time>
      </trkpt>
      <trkpt lat="42.85179" lon="-0.15911">
        <ele>1609.8647460938</ele>
        <time>2015-07-26T16:12:36Z</time>
      </trkpt>
      <trkpt lat="42.85193" lon="-0.15887">
        <ele>1606.5002441406</ele>
        <time>2015-07-26T16:12:57Z</time>
      </trkpt>
      <trkpt lat="42.85199" lon="-0.1588">
        <ele>1606.01953125</ele>
        <time>2015-07-26T16:13:05Z</time>
      </trkpt>
      <trkpt lat="42.852" lon="-0.15876">
        <ele>1605.5390625</ele>
        <time>2015-07-26T16:13:08Z</time>
      </trkpt>
      <trkpt lat="42.85212" lon="-0.15858">
        <ele>1601.6938476562</ele>
        <time>2015-07-26T16:13:23Z</time>
      </trkpt>
      <trkpt lat="42.85219" lon="-0.15835">
        <ele>1600.251953125</ele>
        <time>2015-07-26T16:13:38Z</time>
      </trkpt>
      <trkpt lat="42.85213" lon="-0.15801">
        <ele>1600.732421875</ele>
        <time>2015-07-26T16:13:59Z</time>
      </trkpt>
      <trkpt lat="42.85206" lon="-0.15766">
        <ele>1600.732421875</ele>
        <time>2015-07-26T16:14:19Z</time>
      </trkpt>
      <trkpt lat="42.85218" lon="-0.15745">
        <ele>1599.7712402344</ele>
        <time>2015-07-26T16:14:36Z</time>
      </trkpt>
      <trkpt lat="42.85231" lon="-0.15716">
        <ele>1597.3679199219</ele>
        <time>2015-07-26T16:14:56Z</time>
      </trkpt>
      <trkpt lat="42.85232" lon="-0.15684">
        <ele>1596.8872070312</ele>
        <time>2015-07-26T16:15:15Z</time>
      </trkpt>
      <trkpt lat="42.85228" lon="-0.15669">
        <ele>1596.8872070312</ele>
        <time>2015-07-26T16:15:33Z</time>
      </trkpt>
      <trkpt lat="42.85222" lon="-0.15653">
        <ele>1597.3679199219</ele>
        <time>2015-07-26T16:15:50Z</time>
      </trkpt>
      <trkpt lat="42.8521" lon="-0.15626">
        <ele>1595.92578125</ele>
        <time>2015-07-26T16:16:08Z</time>
      </trkpt>
      <trkpt lat="42.85207" lon="-0.156">
        <ele>1593.0417480469</ele>
        <time>2015-07-26T16:16:25Z</time>
      </trkpt>
      <trkpt lat="42.85212" lon="-0.15573">
        <ele>1591.5998535156</ele>
        <time>2015-07-26T16:16:42Z</time>
      </trkpt>
      <trkpt lat="42.85213" lon="-0.15562">
        <ele>1590.6384277344</ele>
        <time>2015-07-26T16:16:50Z</time>
      </trkpt>
      <trkpt lat="42.85213" lon="-0.15559">
        <ele>1589.1965332031</ele>
        <time>2015-07-26T16:16:53Z</time>
      </trkpt>
      <trkpt lat="42.85213" lon="-0.15552">
        <ele>1587.7546386719</ele>
        <time>2015-07-26T16:16:58Z</time>
      </trkpt>
      <trkpt lat="42.85213" lon="-0.1555">
        <ele>1587.7546386719</ele>
        <time>2015-07-26T16:16:59Z</time>
      </trkpt>
      <trkpt lat="42.85211" lon="-0.15514">
        <ele>1587.2739257812</ele>
        <time>2015-07-26T16:17:20Z</time>
      </trkpt>
      <trkpt lat="42.85202" lon="-0.15487">
        <ele>1587.2739257812</ele>
        <time>2015-07-26T16:17:39Z</time>
      </trkpt>
      <trkpt lat="42.852" lon="-0.15462">
        <ele>1586.3127441406</ele>
        <time>2015-07-26T16:17:56Z</time>
      </trkpt>
      <trkpt lat="42.85201" lon="-0.15437">
        <ele>1586.7932128906</ele>
        <time>2015-07-26T16:18:14Z</time>
      </trkpt>
      <trkpt lat="42.85202" lon="-0.15401">
        <ele>1586.3127441406</ele>
        <time>2015-07-26T16:18:36Z</time>
      </trkpt>
      <trkpt lat="42.85204" lon="-0.15369">
        <ele>1586.3127441406</ele>
        <time>2015-07-26T16:18:56Z</time>
      </trkpt>
      <trkpt lat="42.85205" lon="-0.15339">
        <ele>1584.8708496094</ele>
        <time>2015-07-26T16:19:15Z</time>
      </trkpt>
      <trkpt lat="42.85205" lon="-0.15334">
        <ele>1582.9479980469</ele>
        <time>2015-07-26T16:19:19Z</time>
      </trkpt>
      <trkpt lat="42.85204" lon="-0.15313">
        <ele>1580.0642089844</ele>
        <time>2015-07-26T16:19:33Z</time>
      </trkpt>
      <trkpt lat="42.85209" lon="-0.15293">
        <ele>1576.6994628906</ele>
        <time>2015-07-26T16:19:46Z</time>
      </trkpt>
      <trkpt lat="42.85218" lon="-0.15263">
        <ele>1573.8154296875</ele>
        <time>2015-07-26T16:20:05Z</time>
      </trkpt>
      <trkpt lat="42.85224" lon="-0.15237">
        <ele>1573.8154296875</ele>
        <time>2015-07-26T16:20:23Z</time>
      </trkpt>
      <trkpt lat="42.85227" lon="-0.15213">
        <ele>1574.7768554688</ele>
        <time>2015-07-26T16:20:39Z</time>
      </trkpt>
      <trkpt lat="42.85231" lon="-0.152">
        <ele>1573.8154296875</ele>
        <time>2015-07-26T16:20:48Z</time>
      </trkpt>
      <trkpt lat="42.85238" lon="-0.15172">
        <ele>1573.3349609375</ele>
        <time>2015-07-26T16:21:07Z</time>
      </trkpt>
      <trkpt lat="42.85241" lon="-0.15163">
        <ele>1573.3349609375</ele>
        <time>2015-07-26T16:21:14Z</time>
      </trkpt>
      <trkpt lat="42.85247" lon="-0.15155">
        <ele>1571.8928222656</ele>
        <time>2015-07-26T16:21:21Z</time>
      </trkpt>
      <trkpt lat="42.8525" lon="-0.1515">
        <ele>1570.931640625</ele>
        <time>2015-07-26T16:21:24Z</time>
      </trkpt>
      <trkpt lat="42.8525" lon="-0.15134">
        <ele>1569.9702148438</ele>
        <time>2015-07-26T16:21:38Z</time>
      </trkpt>
      <trkpt lat="42.85244" lon="-0.15125">
        <ele>1567.5668945312</ele>
        <time>2015-07-26T16:21:49Z</time>
      </trkpt>
      <trkpt lat="42.85237" lon="-0.15104">
        <ele>1565.1638183594</ele>
        <time>2015-07-26T16:22:05Z</time>
      </trkpt>
      <trkpt lat="42.85229" lon="-0.15081">
        <ele>1564.6831054688</ele>
        <time>2015-07-26T16:22:23Z</time>
      </trkpt>
      <trkpt lat="42.85225" lon="-0.15073">
        <ele>1563.2409667969</ele>
        <time>2015-07-26T16:22:29Z</time>
      </trkpt>
      <trkpt lat="42.85216" lon="-0.1505">
        <ele>1560.8376464844</ele>
        <time>2015-07-26T16:22:47Z</time>
      </trkpt>
      <trkpt lat="42.8521" lon="-0.15028">
        <ele>1559.8762207031</ele>
        <time>2015-07-26T16:23:03Z</time>
      </trkpt>
      <trkpt lat="42.85204" lon="-0.15009">
        <ele>1556.9924316406</ele>
        <time>2015-07-26T16:23:16Z</time>
      </trkpt>
      <trkpt lat="42.85198" lon="-0.14991">
        <ele>1555.0698242188</ele>
        <time>2015-07-26T16:23:32Z</time>
      </trkpt>
      <trkpt lat="42.85191" lon="-0.1497">
        <ele>1552.1857910156</ele>
        <time>2015-07-26T16:23:47Z</time>
      </trkpt>
      <trkpt lat="42.85183" lon="-0.14953">
        <ele>1548.8212890625</ele>
        <time>2015-07-26T16:24:01Z</time>
      </trkpt>
      <trkpt lat="42.85172" lon="-0.14945">
        <ele>1547.3791503906</ele>
        <time>2015-07-26T16:24:15Z</time>
      </trkpt>
      <trkpt lat="42.85171" lon="-0.14933">
        <ele>1546.8984375</ele>
        <time>2015-07-26T16:24:23Z</time>
      </trkpt>
      <trkpt lat="42.85171" lon="-0.14905">
        <ele>1544.9758300781</ele>
        <time>2015-07-26T16:24:42Z</time>
      </trkpt>
      <trkpt lat="42.85169" lon="-0.14875">
        <ele>1542.5727539062</ele>
        <time>2015-07-26T16:25:00Z</time>
      </trkpt>
      <trkpt lat="42.85167" lon="-0.14843">
        <ele>1539.6887207031</ele>
        <time>2015-07-26T16:25:21Z</time>
      </trkpt>
      <trkpt lat="42.85166" lon="-0.14821">
        <ele>1535.8435058594</ele>
        <time>2015-07-26T16:25:36Z</time>
      </trkpt>
      <trkpt lat="42.85166" lon="-0.14819">
        <ele>1535.8435058594</ele>
        <time>2015-07-26T16:25:37Z</time>
      </trkpt>
      <trkpt lat="42.85163" lon="-0.14785">
        <ele>1534.4016113281</ele>
        <time>2015-07-26T16:25:57Z</time>
      </trkpt>
      <trkpt lat="42.85164" lon="-0.1475">
        <ele>1533.9208984375</ele>
        <time>2015-07-26T16:26:17Z</time>
      </trkpt>
      <trkpt lat="42.85162" lon="-0.1471">
        <ele>1533.4401855469</ele>
        <time>2015-07-26T16:26:40Z</time>
      </trkpt>
      <trkpt lat="42.8516" lon="-0.14686">
        <ele>1532.4790039062</ele>
        <time>2015-07-26T16:26:54Z</time>
      </trkpt>
      <trkpt lat="42.8516" lon="-0.14651">
        <ele>1532.9594726562</ele>
        <time>2015-07-26T16:27:14Z</time>
      </trkpt>
      <trkpt lat="42.85171" lon="-0.14621">
        <ele>1531.998046875</ele>
        <time>2015-07-26T16:27:33Z</time>
      </trkpt>
      <trkpt lat="42.85185" lon="-0.1459">
        <ele>1531.998046875</ele>
        <time>2015-07-26T16:27:54Z</time>
      </trkpt>
      <trkpt lat="42.85201" lon="-0.14556">
        <ele>1531.0368652344</ele>
        <time>2015-07-26T16:28:16Z</time>
      </trkpt>
      <trkpt lat="42.85214" lon="-0.14519">
        <ele>1531.0368652344</ele>
        <time>2015-07-26T16:28:39Z</time>
      </trkpt>
      <trkpt lat="42.8522" lon="-0.14491">
        <ele>1531.5173339844</ele>
        <time>2015-07-26T16:28:56Z</time>
      </trkpt>
      <trkpt lat="42.8523" lon="-0.14457">
        <ele>1532.4790039062</ele>
        <time>2015-07-26T16:29:17Z</time>
      </trkpt>
      <trkpt lat="42.85243" lon="-0.14424">
        <ele>1533.4401855469</ele>
        <time>2015-07-26T16:29:38Z</time>
      </trkpt>
      <trkpt lat="42.85256" lon="-0.14386">
        <ele>1533.4401855469</ele>
        <time>2015-07-26T16:30:01Z</time>
      </trkpt>
      <trkpt lat="42.85259" lon="-0.14345">
        <ele>1533.4401855469</ele>
        <time>2015-07-26T16:30:24Z</time>
      </trkpt>
      <trkpt lat="42.85258" lon="-0.14304">
        <ele>1532.4790039062</ele>
        <time>2015-07-26T16:30:46Z</time>
      </trkpt>
      <trkpt lat="42.8525" lon="-0.14267">
        <ele>1531.998046875</ele>
        <time>2015-07-26T16:31:08Z</time>
      </trkpt>
      <trkpt lat="42.85241" lon="-0.14255">
        <ele>1532.4790039062</ele>
        <time>2015-07-26T16:31:17Z</time>
      </trkpt>
      <trkpt lat="42.85223" lon="-0.1424">
        <ele>1531.5173339844</ele>
        <time>2015-07-26T16:31:33Z</time>
      </trkpt>
      <trkpt lat="42.85217" lon="-0.14236">
        <ele>1531.5173339844</ele>
        <time>2015-07-26T16:31:38Z</time>
      </trkpt>
      <trkpt lat="42.85216" lon="-0.14231">
        <ele>1531.998046875</ele>
        <time>2015-07-26T16:31:42Z</time>
      </trkpt>
      <trkpt lat="42.852" lon="-0.14211">
        <ele>1531.998046875</ele>
        <time>2015-07-26T16:31:58Z</time>
      </trkpt>
      <trkpt lat="42.85186" lon="-0.14188">
        <ele>1530.0754394531</ele>
        <time>2015-07-26T16:32:15Z</time>
      </trkpt>
      <trkpt lat="42.85174" lon="-0.14166">
        <ele>1528.6335449219</ele>
        <time>2015-07-26T16:32:31Z</time>
      </trkpt>
      <trkpt lat="42.8517" lon="-0.1416">
        <ele>1527.6721191406</ele>
        <time>2015-07-26T16:32:35Z</time>
      </trkpt>
      <trkpt lat="42.85155" lon="-0.14152">
        <ele>1525.7495117188</ele>
        <time>2015-07-26T16:32:48Z</time>
      </trkpt>
      <trkpt lat="42.85139" lon="-0.14141">
        <ele>1522.8657226562</ele>
        <time>2015-07-26T16:33:04Z</time>
      </trkpt>
      <trkpt lat="42.85138" lon="-0.1414">
        <ele>1522.8657226562</ele>
        <time>2015-07-26T16:33:05Z</time>
      </trkpt>
      <trkpt lat="42.85132" lon="-0.14114">
        <ele>1520.9431152344</ele>
        <time>2015-07-26T16:33:21Z</time>
      </trkpt>
      <trkpt lat="42.85126" lon="-0.14088">
        <ele>1518.0590820312</ele>
        <time>2015-07-26T16:33:38Z</time>
      </trkpt>
      <trkpt lat="42.85125" lon="-0.1408">
        <ele>1518.0590820312</ele>
        <time>2015-07-26T16:33:43Z</time>
      </trkpt>
      <trkpt lat="42.85125" lon="-0.1405">
        <ele>1516.6171875</ele>
        <time>2015-07-26T16:34:01Z</time>
      </trkpt>
      <trkpt lat="42.85128" lon="-0.14041">
        <ele>1516.1364746094</ele>
        <time>2015-07-26T16:34:14Z</time>
      </trkpt>
      <trkpt lat="42.85128" lon="-0.1404">
        <ele>1516.1364746094</ele>
        <time>2015-07-26T16:34:15Z</time>
      </trkpt>
      <trkpt lat="42.85135" lon="-0.1401">
        <ele>1513.7329101562</ele>
        <time>2015-07-26T16:34:35Z</time>
      </trkpt>
      <trkpt lat="42.8514" lon="-0.13979">
        <ele>1510.3684082031</ele>
        <time>2015-07-26T16:34:55Z</time>
      </trkpt>
      <trkpt lat="42.85121" lon="-0.13981">
        <ele>1510.3684082031</ele>
        <time>2015-07-26T16:35:11Z</time>
      </trkpt>
      <trkpt lat="42.85115" lon="-0.13994">
        <ele>1509.4072265625</ele>
        <time>2015-07-26T16:35:26Z</time>
      </trkpt>
      <trkpt lat="42.85114" lon="-0.13995">
        <ele>1508.9265136719</ele>
        <time>2015-07-26T16:35:40Z</time>
      </trkpt>
      <trkpt lat="42.85116" lon="-0.13996">
        <ele>1508.4458007812</ele>
        <time>2015-07-26T16:35:52Z</time>
      </trkpt>
      <trkpt lat="42.85116" lon="-0.13995">
        <ele>1507.9653320312</ele>
        <time>2015-07-26T16:36:11Z</time>
      </trkpt>
      <trkpt lat="42.85115" lon="-0.13984">
        <ele>1507.4846191406</ele>
        <time>2015-07-26T16:36:58Z</time>
      </trkpt>
      <trkpt lat="42.8511" lon="-0.13972">
        <ele>1507.4846191406</ele>
        <time>2015-07-26T16:37:27Z</time>
      </trkpt>
      <trkpt lat="42.85114" lon="-0.13982">
        <ele>1507.9653320312</ele>
        <time>2015-07-26T16:38:02Z</time>
      </trkpt>
      <trkpt lat="42.8511" lon="-0.13974">
        <ele>1508.9265136719</ele>
        <time>2015-07-26T16:38:40Z</time>
      </trkpt>
      <trkpt lat="42.85111" lon="-0.13978">
        <ele>1508.4458007812</ele>
        <time>2015-07-26T16:39:05Z</time>
      </trkpt>
      <trkpt lat="42.85112" lon="-0.13981">
        <ele>1508.4458007812</ele>
        <time>2015-07-26T16:39:09Z</time>
      </trkpt>
      <trkpt lat="42.85115" lon="-0.13989">
        <ele>1507.9653320312</ele>
        <time>2015-07-26T16:39:21Z</time>
      </trkpt>
      <trkpt lat="42.85118" lon="-0.13999">
        <ele>1508.4458007812</ele>
        <time>2015-07-26T16:39:39Z</time>
      </trkpt>
      <trkpt lat="42.85115" lon="-0.13992">
        <ele>1508.4458007812</ele>
        <time>2015-07-26T16:40:22Z</time>
      </trkpt>
      <trkpt lat="42.85114" lon="-0.13991">
        <ele>1508.4458007812</ele>
        <time>2015-07-26T16:40:42Z</time>
      </trkpt>
      <trkpt lat="42.85114" lon="-0.13993">
        <ele>1507.9653320312</ele>
        <time>2015-07-26T16:41:13Z</time>
      </trkpt>
      <trkpt lat="42.85114" lon="-0.13993">
        <ele>1507.9653320312</ele>
        <time>2015-07-26T16:41:36Z</time>
      </trkpt>
      <trkpt lat="42.85113" lon="-0.13993">
        <ele>1507.4846191406</ele>
        <time>2015-07-26T16:42:31Z</time>
      </trkpt>
      <trkpt lat="42.85115" lon="-0.13996">
        <ele>1507.4846191406</ele>
        <time>2015-07-26T16:42:56Z</time>
      </trkpt>
      <trkpt lat="42.85115" lon="-0.13994">
        <ele>1507.4846191406</ele>
        <time>2015-07-26T16:43:40Z</time>
      </trkpt>
      <trkpt lat="42.85114" lon="-0.13993">
        <ele>1507.00390625</ele>
        <time>2015-07-26T16:44:08Z</time>
      </trkpt>
      <trkpt lat="42.8512" lon="-0.14008">
        <ele>1507.00390625</ele>
        <time>2015-07-26T16:44:35Z</time>
      </trkpt>
      <trkpt lat="42.85119" lon="-0.14008">
        <ele>1507.00390625</ele>
        <time>2015-07-26T16:44:55Z</time>
      </trkpt>
      <trkpt lat="42.85115" lon="-0.14002">
        <ele>1507.00390625</ele>
        <time>2015-07-26T16:45:22Z</time>
      </trkpt>
      <trkpt lat="42.85116" lon="-0.14006">
        <ele>1506.5231933594</ele>
        <time>2015-07-26T16:45:43Z</time>
      </trkpt>
      <trkpt lat="42.85114" lon="-0.13997">
        <ele>1507.00390625</ele>
        <time>2015-07-26T16:46:05Z</time>
      </trkpt>
      <trkpt lat="42.85113" lon="-0.13991">
        <ele>1507.4846191406</ele>
        <time>2015-07-26T16:46:30Z</time>
      </trkpt>
      <trkpt lat="42.85113" lon="-0.13991">
        <ele>1507.00390625</ele>
        <time>2015-07-26T16:47:00Z</time>
      </trkpt>
      <trkpt lat="42.85115" lon="-0.13996">
        <ele>1507.4846191406</ele>
        <time>2015-07-26T16:47:17Z</time>
      </trkpt>
      <trkpt lat="42.85116" lon="-0.13998">
        <ele>1507.4846191406</ele>
        <time>2015-07-26T16:47:41Z</time>
      </trkpt>
      <trkpt lat="42.85116" lon="-0.13997">
        <ele>1507.4846191406</ele>
        <time>2015-07-26T16:48:06Z</time>
      </trkpt>
      <trkpt lat="42.85116" lon="-0.13996">
        <ele>1507.9653320312</ele>
        <time>2015-07-26T16:48:48Z</time>
      </trkpt>
      <trkpt lat="42.85115" lon="-0.13994">
        <ele>1507.9653320312</ele>
        <time>2015-07-26T16:49:10Z</time>
      </trkpt>
      <trkpt lat="42.85115" lon="-0.13995">
        <ele>1507.4846191406</ele>
        <time>2015-07-26T16:49:31Z</time>
      </trkpt>
      <trkpt lat="42.85116" lon="-0.13995">
        <ele>1507.4846191406</ele>
        <time>2015-07-26T16:49:54Z</time>
      </trkpt>
      <trkpt lat="42.85116" lon="-0.13995">
        <ele>1507.4846191406</ele>
        <time>2015-07-26T16:50:19Z</time>
      </trkpt>
      <trkpt lat="42.85118" lon="-0.13997">
        <ele>1507.00390625</ele>
        <time>2015-07-26T16:50:41Z</time>
      </trkpt>
      <trkpt lat="42.85117" lon="-0.13996">
        <ele>1507.4846191406</ele>
        <time>2015-07-26T16:51:01Z</time>
      </trkpt>
      <trkpt lat="42.85118" lon="-0.13996">
        <ele>1507.00390625</ele>
        <time>2015-07-26T16:51:27Z</time>
      </trkpt>
      <trkpt lat="42.85118" lon="-0.13997">
        <ele>1507.00390625</ele>
        <time>2015-07-26T16:51:52Z</time>
      </trkpt>
      <trkpt lat="42.85118" lon="-0.13995">
        <ele>1506.5231933594</ele>
        <time>2015-07-26T16:52:11Z</time>
      </trkpt>
      <trkpt lat="42.85117" lon="-0.13992">
        <ele>1507.9653320312</ele>
        <time>2015-07-26T16:52:26Z</time>
      </trkpt>
      <trkpt lat="42.85114" lon="-0.1399">
        <ele>1507.4846191406</ele>
        <time>2015-07-26T16:52:41Z</time>
      </trkpt>
      <trkpt lat="42.85109" lon="-0.13979">
        <ele>1507.4846191406</ele>
        <time>2015-07-26T16:52:55Z</time>
      </trkpt>
      <trkpt lat="42.85114" lon="-0.13969">
        <ele>1505.0812988281</ele>
        <time>2015-07-26T16:53:10Z</time>
      </trkpt>
      <trkpt lat="42.85114" lon="-0.13968">
        <ele>1505.0812988281</ele>
        <time>2015-07-26T16:53:11Z</time>
      </trkpt>
      <trkpt lat="42.85119" lon="-0.13958">
        <ele>1503.6394042969</ele>
        <time>2015-07-26T16:53:21Z</time>
      </trkpt>
      <trkpt lat="42.85132" lon="-0.13949">
        <ele>1500.7553710938</ele>
        <time>2015-07-26T16:53:36Z</time>
      </trkpt>
      <trkpt lat="42.85141" lon="-0.1394">
        <ele>1499.3132324219</ele>
        <time>2015-07-26T16:53:49Z</time>
      </trkpt>
      <trkpt lat="42.8514" lon="-0.13934">
        <ele>1497.390625</ele>
        <time>2015-07-26T16:53:57Z</time>
      </trkpt>
      <trkpt lat="42.85128" lon="-0.13932">
        <ele>1495.9487304688</ele>
        <time>2015-07-26T16:54:14Z</time>
      </trkpt>
      <trkpt lat="42.85127" lon="-0.13929">
        <ele>1495.9487304688</ele>
        <time>2015-07-26T16:54:39Z</time>
      </trkpt>
      <trkpt lat="42.85114" lon="-0.13933">
        <ele>1495.4680175781</ele>
        <time>2015-07-26T16:54:54Z</time>
      </trkpt>
      <trkpt lat="42.85108" lon="-0.13931">
        <ele>1494.9873046875</ele>
        <time>2015-07-26T16:55:15Z</time>
      </trkpt>
      <trkpt lat="42.85105" lon="-0.13923">
        <ele>1494.5065917969</ele>
        <time>2015-07-26T16:55:22Z</time>
      </trkpt>
      <trkpt lat="42.85097" lon="-0.13904">
        <ele>1493.5454101562</ele>
        <time>2015-07-26T16:55:36Z</time>
      </trkpt>
      <trkpt lat="42.85098" lon="-0.13891">
        <ele>1492.5842285156</ele>
        <time>2015-07-26T16:55:48Z</time>
      </trkpt>
      <trkpt lat="42.85103" lon="-0.13884">
        <ele>1491.1420898438</ele>
        <time>2015-07-26T16:56:03Z</time>
      </trkpt>
      <trkpt lat="42.8511" lon="-0.1388">
        <ele>1490.1809082031</ele>
        <time>2015-07-26T16:56:20Z</time>
      </trkpt>
      <trkpt lat="42.85114" lon="-0.13863">
        <ele>1487.7775878906</ele>
        <time>2015-07-26T16:56:37Z</time>
      </trkpt>
      <trkpt lat="42.85122" lon="-0.13848">
        <ele>1485.8549804688</ele>
        <time>2015-07-26T16:56:54Z</time>
      </trkpt>
      <trkpt lat="42.85127" lon="-0.13838">
        <ele>1484.4130859375</ele>
        <time>2015-07-26T16:57:04Z</time>
      </trkpt>
      <trkpt lat="42.85126" lon="-0.13811">
        <ele>1482.490234375</ele>
        <time>2015-07-26T16:57:19Z</time>
      </trkpt>
      <trkpt lat="42.85128" lon="-0.13783">
        <ele>1481.0483398438</ele>
        <time>2015-07-26T16:57:37Z</time>
      </trkpt>
      <trkpt lat="42.85138" lon="-0.1375">
        <ele>1480.5676269531</ele>
        <time>2015-07-26T16:58:00Z</time>
      </trkpt>
      <trkpt lat="42.85149" lon="-0.13721">
        <ele>1479.6062011719</ele>
        <time>2015-07-26T16:58:21Z</time>
      </trkpt>
      <trkpt lat="42.85154" lon="-0.13706">
        <ele>1477.203125</ele>
        <time>2015-07-26T16:58:31Z</time>
      </trkpt>
      <trkpt lat="42.85157" lon="-0.13697">
        <ele>1476.7224121094</ele>
        <time>2015-07-26T16:58:38Z</time>
      </trkpt>
      <trkpt lat="42.85165" lon="-0.13682">
        <ele>1474.3190917969</ele>
        <time>2015-07-26T16:58:52Z</time>
      </trkpt>
      <trkpt lat="42.85176" lon="-0.13654">
        <ele>1473.3579101562</ele>
        <time>2015-07-26T16:59:13Z</time>
      </trkpt>
      <trkpt lat="42.85179" lon="-0.13633">
        <ele>1472.396484375</ele>
        <time>2015-07-26T16:59:26Z</time>
      </trkpt>
      <trkpt lat="42.85177" lon="-0.13596">
        <ele>1471.9157714844</ele>
        <time>2015-07-26T16:59:49Z</time>
      </trkpt>
      <trkpt lat="42.85176" lon="-0.13586">
        <ele>1470.4738769531</ele>
        <time>2015-07-26T16:59:55Z</time>
      </trkpt>
      <trkpt lat="42.85176" lon="-0.13555">
        <ele>1471.4350585938</ele>
        <time>2015-07-26T17:00:15Z</time>
      </trkpt>
      <trkpt lat="42.85177" lon="-0.1353">
        <ele>1469.0319824219</ele>
        <time>2015-07-26T17:00:31Z</time>
      </trkpt>
      <trkpt lat="42.85179" lon="-0.13513">
        <ele>1469.0319824219</ele>
        <time>2015-07-26T17:00:47Z</time>
      </trkpt>
      <trkpt lat="42.85188" lon="-0.13518">
        <ele>1469.0319824219</ele>
        <time>2015-07-26T17:01:22Z</time>
      </trkpt>
    </trkseg>
  </trk>
</gpx>